[[{"header":{"parameterUnit":"m.s-1","parameterCategory":1,"la1":30.6,"la2":29.2853,"lo1":-89.7004,"lo2":-87.6739,"dy":0.0162,"dx":0.0183,"nx":112,"ny":82,"refTime":"2023-09-24T12:00:00:Z","depth":0,"parameterNumber":2,"parameterNumberName":"U-component_of_WINDS"},"data":[0.0,0.0,0.0,0.0,0.0,0.0,0.0,0.0,0.0,0.0,0.0,0.0,0.0,0.0,0.0,0.0,0.0,0.0,0.0,0.0,0.0,0.0,0.0,0.0,0.0,0.0,0.0,0.0,0.0,0.0,0.0,0.0,0.0,0.0,0.0,0.0,0.0,0.0,0.0,0.0,0.0,0.0,0.0,0.0,0.0,0.0,0.0,0.0,0.0,0.0,0.0,0.0,0.0,0.0,0.0,0.0,0.0,0.0,0.0,0.0,0.0,0.0,0.0,0.0,0.0,0.0,0.0,0.0,0.0,0.0,0.0,0.0,0.0,0.0,0.0,0.0,0.0,0.0,0.0,0.0,0.0,0.0,0.0,0.0,0.0,0.0,0.0,0.0,0.0,0.0,-2.3075,-2.6472,-2.9915,-3.2201,-3.2676,-3.2279,-3.0193,-2.596,0.0,0.0,0.0,0.0,0.0,0.0,0.0,0.0,0.0,0.0,0.0,0.0,0.0,0.0,0.0,0.0,0.0,0.0,0.0,0.0,0.0,0.0,0.0,0.0,0.0,0.0,0.0,0.0,0.0,0.0,0.0,0.0,0.0,0.0,0.0,0.0,0.0,0.0,0.0,0.0,0.0,0.0,0.0,0.0,0.0,0.0,0.0,0.0,0.0,0.0,0.0,0.0,0.0,0.0,0.0,0.0,0.0,0.0,0.0,0.0,0.0,0.0,0.0,0.0,0.0,0.0,0.0,0.0,0.0,0.0,0.0,0.0,0.0,0.0,0.0,0.0,0.0,0.0,0.0,0.0,0.0,0.0,0.0,0.0,0.0,0.0,0.0,0.0,0.0,0.0,0.0,0.0,0.0,0.0,0.0,0.0,0.0,0.0,0.0,0.0,0.0,0.0,0.0,0.0,-2.6057,-3.0604,-3.2379,-3.3338,-3.3649,-3.2445,-3.0339,-2.7203,0.0,0.0,0.0,0.0,0.0,0.0,0.0,0.0,0.0,0.0,0.0,0.0,0.0,0.0,0.0,0.0,0.0,0.0,0.0,0.0,0.0,0.0,0.0,0.0,0.0,0.0,0.0,0.0,0.0,0.0,0.0,0.0,0.0,0.0,0.0,0.0,0.0,0.0,0.0,0.0,0.0,0.0,0.0,0.0,0.0,0.0,0.0,0.0,0.0,0.0,0.0,0.0,0.0,0.0,0.0,0.0,0.0,0.0,0.0,0.0,0.0,0.0,0.0,0.0,0.0,0.0,0.0,0.0,0.0,0.0,0.0,0.0,0.0,0.0,0.0,0.0,0.0,0.0,0.0,0.0,0.0,0.0,0.0,0.0,0.0,0.0,0.0,0.0,0.0,0.0,0.0,0.0,0.0,0.0,0.0,0.0,0.0,0.0,0.0,0.0,0.0,0.0,0.0,-2.4023,-2.7002,-2.9548,-3.0454,-3.1053,-3.1466,-3.0673,-2.8963,-2.6212,-2.3847,0.0,0.0,0.0,0.0,0.0,0.0,0.0,0.0,0.0,0.0,0.0,0.0,0.0,0.0,0.0,0.0,0.0,0.0,0.0,0.0,0.0,0.0,0.0,0.0,0.0,0.0,0.0,0.0,0.0,0.0,0.0,0.0,0.0,0.0,0.0,0.0,0.0,0.0,0.0,0.0,0.0,0.0,0.0,0.0,0.0,0.0,0.0,0.0,0.0,0.0,0.0,0.0,0.0,0.0,0.0,0.0,0.0,0.0,0.0,0.0,0.0,0.0,0.0,0.0,0.0,0.0,0.0,0.0,0.0,0.0,0.0,0.0,0.0,0.0,0.0,0.0,0.0,0.0,0.0,0.0,0.0,0.0,0.0,0.0,0.0,0.0,0.0,0.0,0.0,0.0,0.0,0.0,0.0,0.0,0.0,0.0,0.0,0.0,0.0,0.0,0.0,0.0,-2.589,-2.7952,-2.9087,-2.9409,-2.9683,-3.0094,-2.9291,-2.766,-2.506,-2.2603,0.0,0.0,0.0,0.0,0.0,0.0,0.0,0.0,0.0,0.0,0.0,0.0,0.0,0.0,0.0,0.0,0.0,0.0,0.0,0.0,0.0,0.0,0.0,0.0,0.0,0.0,0.0,0.0,0.0,0.0,0.0,0.0,0.0,0.0,0.0,0.0,0.0,0.0,0.0,0.0,0.0,0.0,0.0,0.0,0.0,0.0,0.0,0.0,0.0,0.0,0.0,0.0,0.0,0.0,0.0,0.0,0.0,0.0,0.0,0.0,0.0,0.0,0.0,0.0,0.0,0.0,0.0,0.0,0.0,0.0,0.0,0.0,0.0,0.0,0.0,0.0,0.0,0.0,0.0,0.0,0.0,0.0,0.0,0.0,0.0,0.0,0.0,0.0,0.0,0.0,0.0,0.0,0.0,0.0,0.0,0.0,0.0,0.0,0.0,0.0,0.0,0.0,-2.7692,-2.9989,-3.2496,-3.2284,-3.1955,-3.1992,-2.9821,-2.7348,-2.4777,-2.1264,0.0,0.0,0.0,0.0,0.0,0.0,0.0,0.0,0.0,0.0,0.0,0.0,0.0,0.0,0.0,0.0,0.0,0.0,0.0,0.0,0.0,0.0,0.0,0.0,0.0,0.0,0.0,0.0,0.0,0.0,0.0,0.0,0.0,0.0,0.0,0.0,0.0,0.0,0.0,0.0,0.0,0.0,0.0,0.0,0.0,0.0,0.0,0.0,0.0,0.0,0.0,0.0,0.0,0.0,0.0,0.0,0.0,0.0,0.0,0.0,0.0,0.0,0.0,0.0,0.0,0.0,0.0,0.0,0.0,0.0,0.0,0.0,0.0,0.0,0.0,0.0,0.0,0.0,0.0,0.0,0.0,0.0,0.0,0.0,0.0,0.0,0.0,0.0,0.0,0.0,0.0,0.0,0.0,0.0,0.0,0.0,0.0,0.0,0.0,0.0,0.0,0.0,-2.6043,-2.7763,0.0,-2.9467,-2.952,-2.9594,-2.8693,-2.6895,-2.396,0.0,0.0,0.0,0.0,0.0,0.0,0.0,0.0,0.0,0.0,0.0,0.0,0.0,0.0,0.0,0.0,0.0,0.0,0.0,0.0,0.0,0.0,0.0,0.0,0.0,0.0,0.0,0.0,0.0,0.0,0.0,0.0,0.0,0.0,0.0,0.0,0.0,0.0,0.0,0.0,0.0,0.0,0.0,0.0,0.0,0.0,0.0,0.0,0.0,0.0,0.0,0.0,0.0,0.0,0.0,0.0,0.0,0.0,0.0,0.0,0.0,0.0,0.0,0.0,0.0,0.0,0.0,0.0,0.0,0.0,0.0,0.0,0.0,0.0,0.0,0.0,0.0,0.0,0.0,0.0,0.0,0.0,0.0,0.0,0.0,0.0,0.0,0.0,0.0,0.0,0.0,0.0,0.0,0.0,0.0,0.0,0.0,0.0,0.0,0.0,0.0,0.0,-2.3673,-2.5352,-2.6792,0.0,-2.8239,-2.8368,-2.839,-2.7797,-2.6058,-2.2912,0.0,0.0,0.0,0.0,0.0,0.0,0.0,0.0,0.0,0.0,0.0,0.0,0.0,0.0,0.0,0.0,0.0,0.0,0.0,0.0,0.0,0.0,0.0,0.0,0.0,0.0,0.0,0.0,0.0,0.0,0.0,0.0,0.0,0.0,0.0,0.0,0.0,0.0,0.0,0.0,0.0,0.0,0.0,0.0,0.0,0.0,0.0,0.0,0.0,0.0,0.0,0.0,0.0,0.0,0.0,0.0,0.0,0.0,0.0,0.0,0.0,0.0,0.0,0.0,0.0,0.0,0.0,0.0,0.0,0.0,0.0,0.0,0.0,0.0,0.0,0.0,0.0,0.0,0.0,0.0,0.0,0.0,0.0,0.0,0.0,0.0,0.0,0.0,0.0,0.0,0.0,0.0,0.0,0.0,0.0,0.0,0.0,0.0,0.0,0.0,0.0,0.0,-2.4532,-2.6165,-2.7783,-2.9863,-2.9598,-2.9285,-2.9285,-2.732,-2.4759,0.0,0.0,0.0,0.0,0.0,0.0,0.0,0.0,0.0,0.0,0.0,0.0,0.0,0.0,0.0,0.0,0.0,0.0,0.0,0.0,0.0,0.0,0.0,0.0,0.0,0.0,0.0,0.0,0.0,0.0,0.0,0.0,0.0,0.0,0.0,0.0,0.0,0.0,0.0,0.0,0.0,0.0,0.0,0.0,0.0,0.0,0.0,0.0,0.0,0.0,0.0,0.0,0.0,0.0,0.0,0.0,0.0,0.0,0.0,0.0,0.0,0.0,0.0,0.0,0.0,0.0,0.0,0.0,0.0,0.0,0.0,0.0,0.0,0.0,0.0,0.0,0.0,0.0,0.0,0.0,0.0,0.0,0.0,0.0,0.0,0.0,0.0,0.0,0.0,0.0,0.0,0.0,0.0,0.0,0.0,0.0,0.0,0.0,0.0,0.0,0.0,0.0,0.0,-2.3642,-2.5207,-2.6599,-2.7912,-2.8227,-2.8174,-2.7848,-2.6963,-2.4874,-2.1129,0.0,0.0,0.0,0.0,0.0,0.0,0.0,0.0,0.0,0.0,0.0,0.0,0.0,0.0,0.0,0.0,0.0,0.0,0.0,0.0,0.0,0.0,0.0,0.0,0.0,0.0,0.0,0.0,0.0,0.0,0.0,0.0,0.0,0.0,0.0,0.0,0.0,0.0,0.0,0.0,0.0,0.0,0.0,0.0,0.0,0.0,0.0,0.0,0.0,0.0,0.0,0.0,0.0,0.0,0.0,0.0,0.0,0.0,0.0,0.0,0.0,0.0,0.0,0.0,0.0,0.0,0.0,0.0,0.0,0.0,0.0,0.0,0.0,0.0,0.0,0.0,0.0,0.0,0.0,0.0,0.0,0.0,0.0,0.0,0.0,0.0,0.0,0.0,0.0,0.0,0.0,0.0,0.0,0.0,0.0,0.0,0.0,0.0,0.0,0.0,0.0,0.0,-2.2622,-2.4145,-2.5659,-2.7296,-2.7719,-2.7812,-2.7516,-2.6956,-2.5157,-2.1757,0.0,0.0,0.0,0.0,0.0,0.0,0.0,0.0,0.0,0.0,0.0,0.0,0.0,0.0,0.0,0.0,0.0,0.0,0.0,0.0,0.0,0.0,0.0,0.0,0.0,0.0,0.0,0.0,0.0,0.0,0.0,0.0,0.0,0.0,0.0,0.0,0.0,0.0,0.0,0.0,0.0,0.0,0.0,0.0,0.0,0.0,0.0,0.0,0.0,0.0,0.0,0.0,0.0,0.0,0.0,0.0,0.0,0.0,0.0,0.0,0.0,0.0,0.0,0.0,0.0,0.0,0.0,0.0,0.0,0.0,0.0,0.0,0.0,0.0,0.0,0.0,0.0,0.0,0.0,0.0,0.0,0.0,0.0,0.0,0.0,0.0,0.0,0.0,0.0,0.0,0.0,0.0,0.0,0.0,0.0,0.0,0.0,0.0,0.0,0.0,0.0,0.0,-2.1642,-2.3268,-2.5058,-2.7427,-2.7706,-2.7718,-2.7711,-2.6901,-2.5354,-2.2901,0.0,0.0,0.0,0.0,0.0,0.0,0.0,0.0,0.0,0.0,0.0,0.0,0.0,0.0,0.0,0.0,0.0,0.0,0.0,0.0,0.0,0.0,0.0,0.0,0.0,0.0,0.0,0.0,0.0,0.0,0.0,0.0,0.0,0.0,0.0,0.0,0.0,0.0,0.0,0.0,0.0,0.0,0.0,0.0,0.0,0.0,0.0,0.0,0.0,0.0,0.0,0.0,0.0,0.0,0.0,0.0,0.0,0.0,0.0,0.0,-1.9076,0.0,0.0,0.0,0.0,0.0,0.0,0.0,0.0,0.0,0.0,0.0,0.0,0.0,0.0,0.0,0.0,0.0,0.0,0.0,0.0,0.0,0.0,0.0,0.0,0.0,0.0,0.0,0.0,0.0,0.0,0.0,0.0,0.0,0.0,0.0,0.0,0.0,0.0,0.0,0.0,0.0,-2.1449,-2.3823,-2.5554,-2.612,-2.6393,-2.6462,-2.6189,-2.5539,-2.4282,-2.2359,-2.1809,0.0,0.0,0.0,0.0,0.0,0.0,0.0,0.0,0.0,0.0,0.0,0.0,0.0,0.0,0.0,0.0,0.0,0.0,0.0,0.0,0.0,0.0,0.0,0.0,0.0,0.0,0.0,0.0,0.0,0.0,0.0,0.0,0.0,0.0,0.0,0.0,0.0,0.0,0.0,0.0,0.0,0.0,0.0,0.0,0.0,0.0,0.0,0.0,0.0,0.0,0.0,0.0,0.0,0.0,0.0,0.0,0.0,0.0,0.0,0.0,-1.9523,0.0,0.0,0.0,0.0,0.0,0.0,0.0,0.0,0.0,0.0,0.0,0.0,0.0,0.0,0.0,0.0,0.0,0.0,0.0,0.0,0.0,0.0,0.0,0.0,0.0,0.0,0.0,0.0,0.0,0.0,0.0,0.0,0.0,0.0,0.0,0.0,0.0,0.0,0.0,0.0,-2.0946,-2.3062,-2.4777,-2.5892,-2.6039,-2.6046,-2.5985,-2.5373,-2.4561,-2.3513,-2.259,0.0,0.0,0.0,0.0,0.0,0.0,0.0,0.0,0.0,0.0,0.0,0.0,0.0,0.0,0.0,0.0,0.0,0.0,0.0,0.0,0.0,0.0,0.0,0.0,0.0,0.0,0.0,0.0,0.0,0.0,0.0,0.0,0.0,0.0,0.0,0.0,0.0,0.0,0.0,0.0,0.0,0.0,0.0,0.0,0.0,0.0,0.0,0.0,0.0,0.0,0.0,0.0,0.0,-2.1844,-2.2003,-2.2196,-2.2377,-2.2292,-2.2008,-2.2109,-2.2098,-2.1954,0.0,0.0,0.0,0.0,0.0,0.0,0.0,0.0,0.0,0.0,0.0,0.0,0.0,0.0,0.0,0.0,0.0,0.0,0.0,0.0,0.0,0.0,0.0,0.0,0.0,-1.6563,-1.6626,0.0,0.0,0.0,0.0,0.0,0.0,0.0,0.0,0.0,0.0,0.0,0.0,-2.0138,-2.1946,-2.3756,-2.5681,-2.5803,-2.5738,-2.5809,-2.5326,-2.4934,-2.4748,-2.3294,-2.2311,0.0,0.0,0.0,0.0,0.0,0.0,0.0,0.0,0.0,0.0,0.0,0.0,0.0,0.0,0.0,0.0,0.0,0.0,0.0,0.0,0.0,0.0,0.0,0.0,0.0,0.0,0.0,0.0,0.0,0.0,0.0,0.0,-1.5121,-1.8006,0.0,0.0,0.0,0.0,0.0,0.0,0.0,0.0,0.0,0.0,0.0,0.0,0.0,-2.0535,-2.0959,-2.2949,-2.3977,-2.4049,-2.5881,-2.6516,-2.606,-2.5732,-2.5491,-2.5267,-2.4668,0.0,-2.2626,-2.2305,0.0,0.0,0.0,0.0,0.0,0.0,0.0,0.0,0.0,0.0,0.0,0.0,0.0,0.0,0.0,0.0,0.0,0.0,0.0,0.0,0.0,0.0,-1.6905,-1.6892,-1.687,-1.7271,0.0,-1.7638,-1.6671,-1.834,0.0,0.0,0.0,0.0,0.0,0.0,0.0,0.0,-1.8742,-2.1628,-2.3756,-2.4186,-2.4438,-2.4442,-2.3976,-2.3875,-2.3878,-2.4025,-2.3967,-2.3167,-2.149,-2.2443,0.0,0.0,0.0,0.0,0.0,0.0,0.0,0.0,0.0,0.0,0.0,0.0,0.0,0.0,0.0,0.0,0.0,0.0,0.0,0.0,0.0,0.0,0.0,0.0,0.0,0.0,0.0,0.0,0.0,-1.4134,-1.6316,-1.7447,-1.8205,-1.8285,0.0,0.0,0.0,0.0,0.0,0.0,0.0,0.0,0.0,-2.1149,-2.1913,-2.273,-2.3484,-2.4704,-2.5467,-2.5854,-2.6646,-2.6991,-2.6974,-2.6918,-2.6818,-2.65,-2.5604,-2.4853,-2.4137,-2.2502,-2.1308,-2.033,0.0,0.0,0.0,0.0,-1.7215,-1.7134,-1.7837,-1.7705,0.0,0.0,0.0,0.0,0.0,0.0,0.0,0.0,0.0,0.0,0.0,0.0,0.0,-1.7069,-1.7406,-1.809,-1.9473,-1.8659,-1.7993,0.0,-1.8486,-1.7239,-1.5373,0.0,0.0,0.0,0.0,-1.7745,-1.9468,-2.1271,-2.268,-2.3324,-2.372,-2.3902,-2.3762,-2.3567,-2.353,-2.3714,-2.3934,-2.3518,-2.2343,-2.2777,-2.1947,0.0,0.0,0.0,0.0,0.0,0.0,0.0,0.0,0.0,0.0,0.0,0.0,0.0,0.0,0.0,0.0,0.0,0.0,0.0,0.0,0.0,0.0,0.0,0.0,0.0,0.0,0.0,0.0,-1.5418,-1.7062,-1.7037,-1.8419,-1.8865,0.0,0.0,0.0,0.0,0.0,0.0,-2.0766,-2.1301,-2.2155,-2.3311,-2.4088,-2.4928,-2.5774,-2.6085,-2.648,-2.6934,-2.6755,-2.6602,-2.6571,-2.6796,-2.6606,-2.6006,-2.5232,-2.4637,-2.4147,-2.2291,-2.101,-2.0046,-1.8701,-1.7992,-1.7787,-1.7507,-1.7248,-1.7091,-1.7989,-1.7945,-1.7619,-1.8203,0.0,-1.6655,-1.5612,0.0,0.0,0.0,0.0,-1.486,-1.5504,-1.6199,-1.6857,-1.7254,-1.7841,-1.8516,-1.9378,-1.9356,-1.937,0.0,-2.0239,-1.9533,-1.691,0.0,0.0,0.0,0.0,-1.7959,-1.991,-2.0932,-2.1866,-2.2809,-2.3335,-2.3677,-2.3824,-2.3556,-2.339,-2.345,-2.3668,-2.3468,-2.2832,-2.2743,-2.2097,-2.0765,0.0,0.0,0.0,0.0,0.0,0.0,0.0,0.0,0.0,0.0,0.0,0.0,0.0,0.0,0.0,0.0,0.0,0.0,0.0,0.0,0.0,0.0,0.0,0.0,0.0,0.0,0.0,0.0,0.0,-1.833,-1.9656,0.0,0.0,0.0,0.0,-1.8671,-1.9887,-2.1229,-2.2577,-2.3546,-2.4548,-2.566,-2.6524,-2.6953,-2.6996,-2.7048,-2.709,-2.7108,-2.7108,-2.6432,-2.5194,-2.5194,-2.451,-2.3325,-2.3263,-2.25,-2.1352,-2.1824,-2.1895,-2.1414,-1.9798,-1.8801,-1.8175,-1.6752,-1.6319,-1.657,-1.7052,-1.7177,-1.7482,-1.9445,-1.9071,-1.7639,-1.6647,-1.5897,0.0,0.0,-1.606,-1.669,-1.6433,-1.7026,-1.7654,-1.7457,-1.7862,-1.8358,-1.8548,-1.9152,-2.0114,0.0,-2.0976,-2.0054,-1.9485,0.0,-1.8114,-1.688,-1.7414,-1.8288,-1.9168,-2.0756,-2.201,-2.2654,-2.3261,-2.3593,-2.3593,-2.3593,-2.3439,-2.3146,-2.33,-2.2971,-2.2009,-2.2444,-2.2224,-2.1178,-2.0494,0.0,0.0,0.0,0.0,0.0,0.0,0.0,0.0,0.0,0.0,0.0,0.0,0.0,0.0,0.0,0.0,0.0,0.0,0.0,0.0,0.0,0.0,0.0,0.0,0.0,0.0,0.0,0.0,-1.8641,-1.9886,0.0,-1.9509,-1.9721,-1.9783,-1.9368,-2.1417,-2.3079,-2.386,-2.5271,-2.6454,-2.7355,-2.7407,-2.703,-2.615,-2.5929,-2.5386,-2.4502,-2.4353,-2.4001,-2.3566,-2.3354,-2.3014,-2.2522,-2.1678,-2.1006,-2.0556,-1.9938,-1.9672,-1.9672,-1.892,-1.8421,-1.8006,-1.7453,-1.7562,-1.8062,-1.8232,-1.8638,-1.9181,-1.9299,-1.8561,-1.752,-1.6928,-1.6551,-1.6421,-1.6393,-1.6783,-1.7135,-1.7018,-1.7245,-1.7407,-1.7191,-1.7325,-1.7471,-1.753,-1.8234,-1.92,-2.0253,-2.0767,-2.0808,-2.0096,-1.9917,-1.9529,-1.8468,-1.862,-1.8889,-1.9056,-2.0169,-2.1159,-2.167,-2.2397,-2.3075,-2.3751,-2.3288,-2.2922,-2.2911,-2.2819,-2.2434,-2.1752,-2.1856,-2.1585,-2.0897,-2.0754,-1.9606,0.0,0.0,0.0,0.0,0.0,0.0,0.0,0.0,0.0,0.0,0.0,0.0,0.0,0.0,0.0,0.0,0.0,0.0,0.0,0.0,0.0,0.0,0.0,0.0,0.0,0.0,-1.8482,-1.8288,-1.9703,-2.0371,-1.9434,-1.9886,-2.0102,-1.9842,-2.2429,-2.3972,-2.383,-2.5664,-2.667,-2.6455,-2.6392,-2.5894,-2.4766,-2.4549,-2.4008,-2.3069,-2.2926,-2.2519,-2.2043,-2.1836,-2.1382,-2.0773,-1.9986,-1.9555,-1.941,-1.8612,-1.8396,-1.8523,-1.8257,-1.804,-1.7918,-1.781,-1.8033,-1.848,-1.8573,-1.9195,-1.9886,-1.8996,-1.8387,-1.7855,-1.7386,-1.7348,-1.7359,-1.7124,-1.7239,-1.7417,-1.7308,-1.7279,-1.7239,-1.7073,-1.7073,-1.7037,-1.6743,-1.7401,-1.8276,-1.9031,-2.0346,-2.1079,-2.0139,-2.0064,-1.987,-1.8976,-1.8547,-1.8301,-1.8328,-1.9269,-2.0024,-2.0191,-2.1608,-2.275,-2.3274,-2.2682,-2.2348,-2.2476,-2.2014,-2.1638,-2.1479,-2.1004,-2.0541,-2.0133,-1.9434,-1.8237,-1.656,0.0,0.0,0.0,0.0,0.0,0.0,0.0,0.0,0.0,0.0,0.0,0.0,0.0,0.0,0.0,0.0,0.0,0.0,0.0,0.0,0.0,0.0,0.0,-1.4711,-1.7296,-1.869,-1.7408,-1.9152,-1.9922,-1.8389,-1.9555,-2.0337,-2.0119,-2.2788,-2.3823,-2.254,-2.4646,-2.5082,-2.3175,-2.3684,-2.3642,-2.3084,-2.3007,-2.3014,-2.2952,-2.2999,-2.215,-2.0635,-2.0621,-1.9636,-1.7877,-1.8149,-1.8112,-1.7883,-1.8155,-1.8269,-1.8239,-1.7986,-1.7943,-1.79,-1.7629,-1.7547,-1.7629,-1.7895,-1.8598,-1.9255,-1.8639,-1.8632,-1.8758,-1.8194,-1.8171,-1.8261,-1.7609,-1.7575,-1.7735,-1.7366,-1.7279,-1.7239,-1.7073,-1.7153,-1.7051,-1.6281,-1.6778,-1.7562,-1.8247,-1.9782,-2.0699,-1.9707,-1.9445,-1.9085,-1.8385,-1.7261,0.0,-1.7007,-1.8146,-1.8795,-1.8407,-2.0921,-2.2492,-2.2266,-2.1821,-2.1662,-2.1917,-2.0966,-2.0653,-2.1178,-1.9946,-1.917,-1.9023,-1.6596,-1.5749,-1.6541,0.0,0.0,0.0,0.0,0.0,0.0,0.0,0.0,0.0,0.0,0.0,0.0,0.0,0.0,0.0,0.0,0.0,0.0,0.0,0.0,0.0,0.0,-1.6493,-1.6654,-1.8147,-1.9134,-1.8886,-1.96,-1.9902,-1.9212,-1.932,-1.9429,-1.9354,-2.1229,-2.2209,-2.1842,-2.3354,-2.4056,-2.3617,-2.3488,-2.286,-2.1748,-2.1699,-2.1139,-2.0202,-1.9997,-1.9574,-1.8939,-1.8788,-1.8261,-1.7593,-1.7672,-1.766,-1.7599,-1.7672,-1.7708,-1.7738,-1.8052,-1.8294,-1.8414,-1.7763,-1.765,-1.7868,-1.7805,-1.8339,-1.8961,-1.8576,-1.8508,-1.8436,-1.803,-1.816,-1.8261,-1.7529,-1.7538,-1.7735,-1.7366,-1.7279,-1.7239,-1.7073,-1.7019,-1.698,-1.6472,-1.6583,-1.6913,-1.7445,-1.8456,-1.9508,-2.0378,-2.0343,-2.0136,-1.9783,-1.9283,0.0,-1.8493,-1.8864,-1.9439,-2.0107,-2.0247,-2.115,-2.3265,-2.1743,-2.1179,-2.2409,-2.1546,-2.1052,-2.119,-2.0611,-2.0072,-1.9575,-1.7379,-1.6678,0.0,0.0,0.0,0.0,0.0,0.0,0.0,0.0,0.0,0.0,0.0,0.0,0.0,0.0,0.0,0.0,0.0,0.0,0.0,0.0,0.0,0.0,-1.6197,-1.7335,-1.8084,-1.8851,-1.9362,-1.9522,-1.9801,-1.9854,-1.9542,-1.9332,-1.9193,-1.9084,-2.0477,-2.108,-2.0573,-2.1956,-2.2419,-2.1662,-2.1654,-2.1192,-2.0142,-2.0201,-1.989,-1.9072,-1.8921,-1.865,-1.8287,-1.8125,-1.7781,0.0,-1.7436,-1.7418,-1.7328,-1.7436,-1.7485,0.0,0.0,0.0,0.0,0.0,-1.8052,-1.8341,-1.8233,-1.8523,-1.8816,-1.8441,-1.8426,-1.8504,-1.7903,-1.7895,-1.8014,-1.7315,-1.7165,-1.7194,-1.7143,-1.7128,-1.7118,-1.7124,-1.7059,-1.687,-1.6552,-1.6124,-1.6022,-1.6729,0.0,0.0,-1.9566,-1.9765,-1.9592,-1.9085,-1.8665,-1.8284,-1.7825,-1.8267,-1.8798,-1.9259,-1.9624,-2.0496,-2.2057,-2.082,0.0,0.0,0.0,-2.0373,-2.0349,-1.985,0.0,0.0,0.0,-1.634,-1.736,0.0,0.0,0.0,-1.6807,-1.651,0.0,0.0,0.0,0.0,0.0,0.0,0.0,0.0,0.0,0.0,0.0,0.0,0.0,0.0,0.0,0.0,-1.6893,-1.773,-1.9013,-1.9416,-1.9532,-1.9468,-1.9638,-1.9694,-1.9512,-1.9422,-1.939,-1.909,-2.0227,-2.0361,-1.9142,0.0,0.0,0.0,0.0,-1.9151,-1.8686,-1.8945,-1.9078,-1.9078,-1.9048,-1.877,-1.8294,-1.8263,-1.7781,-1.7153,-1.7382,-1.7352,-1.7153,-1.7388,-1.7485,-1.7479,-1.7507,-1.7578,-1.7584,-1.8108,-1.8481,-1.8829,-1.8755,0.0,0.0,-1.8222,-1.8421,-1.8699,-1.7724,-1.763,-1.7684,-1.7123,-1.6741,-1.6587,-1.6881,-1.6954,-1.7013,-1.7216,-1.7062,-1.68,-1.6441,-1.5621,-1.5227,-1.6039,-1.6368,-1.6807,-1.7943,-1.8423,-1.8362,-1.7567,-1.701,-1.6626,-1.6487,-1.7281,-1.7784,-1.7467,0.0,0.0,-1.9943,-1.962,-1.9629,-2.0232,-1.9762,-1.9421,-1.9315,-1.8626,-1.7707,-1.6513,-1.5669,-1.5775,-1.6862,-1.7165,-1.7612,-1.8219,-1.702,-1.6771,0.0,0.0,0.0,0.0,0.0,0.0,0.0,0.0,0.0,0.0,0.0,0.0,0.0,0.0,0.0,-1.71,-1.7986,-1.8843,-1.982,-1.9991,-1.9788,-1.927,-1.9233,-1.9211,-1.9157,-1.9151,-1.9132,-1.9078,-1.9524,-1.9619,-1.9148,-1.9377,0.0,-1.8698,-1.8782,-1.8782,-1.8686,-1.8945,-1.9078,-1.9072,0.0,0.0,-1.8287,-1.7821,-1.7524,-1.7406,-1.7173,-1.7226,-1.7412,-1.7461,-1.7485,-1.7519,-1.7764,-1.7877,-1.7861,-1.7576,-1.8042,-1.8754,-1.7842,-1.8264,-1.912,-1.8546,-1.8534,-1.8702,-1.7938,-1.7768,0.0,-1.7347,-1.7194,-1.7157,-1.7223,-1.7238,-1.7186,-1.7042,-1.6947,-1.6741,-1.6126,-1.5608,-1.5277,-1.5187,-1.6052,-1.6891,-1.7113,-1.8147,-1.8901,-1.8898,-1.8656,-1.8527,-1.8673,-1.8845,-1.9149,-1.9573,-1.8963,-1.9172,-2.0733,-1.9571,-1.9286,-2.0516,-2.0889,-2.0728,-2.0036,-1.9957,-1.9821,-1.957,-1.8485,-1.8359,-1.9228,-1.8689,-1.8605,-1.9063,-1.879,-1.8589,0.0,0.0,0.0,0.0,0.0,0.0,0.0,0.0,0.0,0.0,0.0,-1.364,-1.4184,0.0,-1.6536,-1.7984,-1.8551,-1.9143,-2.0045,-2.0029,-1.9777,-1.9455,-1.9376,-1.9273,-1.9138,-1.9121,-1.9078,-1.9078,-1.9193,-1.9211,-1.9084,-1.9199,-1.909,-1.8698,-1.8939,-1.8945,-1.8686,-1.8945,-1.9078,-1.9072,-1.8807,-1.8547,-1.8281,-1.7822,-1.7613,-1.7479,-1.7309,-1.7367,-1.7485,-1.7485,-1.7485,-1.7525,-1.7625,-1.772,-1.7763,-1.7639,-1.8063,-1.8597,-1.817,-1.8587,-1.9201,-1.8557,-1.8556,-1.8635,-1.7816,-1.7574,-1.7501,-1.7179,-1.6974,-1.6887,-1.7047,-1.7091,-1.7055,-1.6939,-1.6778,-1.6485,-1.5804,-1.5498,-1.5287,-1.4966,-1.5779,-1.6561,-1.6767,-1.7391,-1.8146,-1.891,-1.8995,-1.9,-1.9019,-1.9182,-1.942,-1.9736,-1.9135,-1.908,-1.9983,-1.9297,-1.9176,-2.0041,-2.0463,-2.0519,-2.0201,-1.995,-1.9882,-2.01,-1.9191,-1.9008,-1.9613,-1.921,-1.9109,-1.9301,-1.9301,-1.9311,0.0,0.0,0.0,0.0,0.0,0.0,0.0,-1.0059,-1.0636,-1.1211,-1.2225,-1.3311,-1.427,-1.543,-1.6716,-1.8345,-1.883,-1.9319,-2.0182,-2.0053,-1.9861,-1.9803,-1.9607,-1.9354,-1.9118,-1.9057,-1.9042,-1.9145,-1.9102,-1.912,-1.9229,-1.938,-1.936,-1.8927,-1.9271,-1.933,-1.8969,-1.9063,-1.9142,-1.9264,-1.8821,-1.8561,-1.8404,-1.795,-1.7625,-1.7485,-1.7485,-1.7485,-1.7485,-1.7244,-1.7126,-1.712,-1.6885,-1.6733,-1.6774,-1.7277,-1.7779,-1.8147,-1.8104,-1.8432,-1.8765,-1.8189,-1.8131,-1.8139,-1.7289,-1.6998,-1.694,-1.6735,-1.6619,-1.6661,-1.6925,-1.6947,-1.6881,-1.6822,-1.6558,-1.6104,-1.5467,-1.5243,-1.5131,-1.4696,-1.5324,-1.6028,-1.6459,-1.6746,-1.7315,-1.8412,-1.8667,-1.8684,-1.8586,-1.8944,-1.9191,-1.9191,-1.9177,-1.9112,-1.8882,-1.8922,-1.9055,-1.9363,-1.9754,-1.9966,-2.0042,-1.9639,-1.9558,-1.9793,-1.9245,-1.9146,-1.954,-1.9384,-1.9347,-1.9421,-1.9265,-1.9412,-0.6746,-0.6191,-0.6289,-0.7308,-0.8491,-0.9636,0.0,-1.2054,-1.3346,-1.3425,-1.4176,-1.4767,-1.4676,-1.5868,-1.712,-1.7882,-1.8947,-1.9979,-2.0896,-2.0737,-2.0458,-2.0192,-1.9331,-1.8871,-1.9081,-1.8892,-1.8921,-1.9386,-1.9205,-1.9289,-1.9772,-1.9585,-1.9555,-1.9748,-1.9567,-1.9636,-1.9853,-1.9374,-1.9398,-1.9973,-1.8889,-1.8502,-1.8698,-1.7589,-1.7221,-1.7485,-1.7485,-1.7485,-1.742,-1.629,-1.5811,-1.5693,-1.456,-1.402,-1.3995,-1.5216,-1.6363,-1.7055,-1.5592,-1.6104,-1.7288,-1.6901,-1.6682,-1.6516,-1.6096,-1.5988,-1.5981,-1.5947,-1.6537,-1.723,-1.7267,-1.7069,-1.6829,-1.6536,-1.6191,-1.5789,-1.5097,-1.4772,-1.4392,-1.3777,-1.4499,-1.5393,-1.5898,-1.6734,-1.7511,-1.8082,-1.7893,-1.7807,-1.81,-1.854,-1.8779,-1.8779,-1.8755,-1.8692,-1.8482,-1.8652,-1.8834,-1.9049,-1.9934,-2.0091,-1.9439,-2.0014,-2.0215,-1.99,-1.9797,-1.9948,-2.0383,-1.9659,-1.9494,-1.9802,-1.9118,-1.899,-0.7336,-0.7458,-0.7759,-0.8127,-0.9107,-1.0094,-1.0509,-1.1354,-1.2087,-1.2386,-1.3346,-1.4098,-1.4104,-1.5093,-1.6155,0.0,-1.7936,-1.8947,-1.9562,-1.9957,-2.0054,-1.9766,-1.8629,-1.7974,-1.842,-1.8741,-1.8825,-1.8609,-1.8873,-1.9175,-1.9404,-1.9512,-1.938,-1.9193,-1.9223,-1.916,-1.8984,-1.8894,-1.8959,-1.9056,-1.852,-1.8264,-1.8216,-1.6816,-1.5876,-1.5273,-1.5273,-1.5273,-1.5273,-1.4738,-1.442,-1.4241,-1.3711,-1.3407,-1.338,-1.4029,-1.4787,-1.533,-1.4638,-1.5133,-1.5954,-1.5625,-1.5504,-1.5352,-1.5019,-1.4937,-1.4937,-1.4937,-1.5656,-1.6419,-1.6419,-1.6668,-1.6822,-1.6492,-1.614,-1.5738,-1.5046,-1.4798,-1.4662,-1.4353,-1.4669,-1.5111,-1.5501,-1.6396,-1.7089,-1.7216,-1.7779,-1.8183,-1.8091,-1.8669,-1.9015,-1.8906,-1.8753,-1.8612,-1.8442,-1.8571,-1.8603,-1.8324,-1.9252,-1.9427,-1.8611,-1.9369,-1.9652,-1.9366,-1.9487,-1.9641,-1.9806,-1.9467,-1.9393,-1.9558,-1.9219,-1.9146,-0.7825,-0.8288,-0.8727,-0.9035,-0.9701,-1.0347,-1.0595,-1.0749,-1.0948,-1.1342,-1.2175,-1.2858,-1.2999,-1.3888,-1.4841,-1.557,-1.6686,-1.7649,-1.8109,-1.8484,-1.8786,-1.8803,-1.7497,-1.6673,-1.6962,-1.8028,-1.8588,-1.8331,-1.8799,-1.9188,-1.9289,-1.9404,-1.9295,-1.8915,-1.9012,-1.8924,-1.8526,-1.8579,-1.8605,-1.8594,-1.8337,-1.7943,-1.7433,-1.5796,-1.456,-1.3725,-1.3663,-1.3634,-1.357,-1.3218,-1.2931,-1.2794,-1.2445,-1.2179,-1.2016,-1.2181,-1.2889,-1.367,-1.332,-1.3786,-1.4569,-1.4386,-1.4274,-1.418,-1.3937,-1.3884,-1.3884,-1.3884,-1.4603,-1.5399,-1.5368,-1.5835,-1.6271,-1.6044,-1.5872,-1.5586,-1.5024,-1.49,-1.482,-1.4557,-1.4652,-1.4857,-1.515,-1.6002,-1.6751,-1.705,-1.7916,-1.8449,-1.8127,-1.8715,-1.9064,-1.8913,-1.8772,-1.8612,-1.8442,-1.8531,-1.8444,-1.7978,-1.8638,-1.8767,-1.8148,-1.867,-1.8903,-1.8756,-1.8903,-1.9026,-1.9136,-1.9136,-1.9191,-1.9301,-1.9301,-1.9301,-0.7626,-0.7694,-0.7906,-0.9466,-0.9876,-1.0128,-1.1001,-1.1204,-1.1212,-1.1228,-1.1228,-1.129,-1.1294,-1.2481,-1.3617,-1.4098,-1.5371,-1.6482,-1.6963,-1.6485,-1.6434,-1.7262,-1.5909,-1.478,0.0,-1.6399,-1.814,-1.9333,-1.926,-1.9343,-1.982,-1.9609,-1.9458,-1.9512,-1.9205,-1.913,-1.9168,-1.8612,-1.86,-1.9254,-1.8372,-1.7445,-1.6501,-1.4595,-1.3725,-1.3715,-1.3502,-1.3411,-1.328,-1.193,-1.1393,-1.1216,-1.0019,-0.9322,-0.9006,-0.9061,-1.0527,-1.2361,-1.0862,-1.1527,-1.3054,-1.3048,-1.2931,-1.2737,-1.2732,-1.2727,-1.2727,-1.2727,-1.3499,-1.4351,-1.4334,-1.4604,-1.4901,-1.4932,-1.5198,-1.5309,-1.4973,-1.49,-1.4623,-1.3718,-1.4048,-1.4602,-1.4877,-1.567,-1.6748,-1.8065,-1.8174,-1.81,-1.8091,-1.8476,-1.8734,-1.8696,-1.87,-1.8612,-1.8442,-1.8402,-1.8395,-1.8366,-1.8395,-1.8339,-1.8118,-1.8118,-1.8127,-1.8127,-1.8127,-1.831,-1.8733,-1.8733,-1.8926,-1.9301,-1.9301,-1.9301,-0.7374,-0.8147,-0.9035,-0.9579,-1.0164,-1.0619,-1.0684,-1.0883,-1.0988,-1.0694,-1.0416,-1.0201,-1.0314,-1.0501,-1.0915,-1.1888,-1.3033,-1.4161,-1.5219,-1.5003,-1.5051,-1.5945,-1.4681,0.0,0.0,0.0,0.0,-1.6611,-1.7285,-1.8206,-1.9361,-1.9334,-1.9091,-1.8803,-1.8016,-1.7477,-1.7155,-1.6442,-1.6028,-1.5861,-1.5366,-1.4485,-1.3273,-1.2601,-1.1807,-1.0975,-1.0801,-1.0724,-1.072,-1.0203,-1.0004,-0.9894,-0.9458,-0.9127,-0.8764,-0.8776,-0.9582,-1.0651,-1.0117,-1.0764,-1.1786,-1.1786,-1.1737,-1.1722,-1.1722,-1.1722,-1.1722,-1.1722,-1.248,-1.3242,-1.311,-1.3498,-1.407,-1.4516,-1.4418,-1.4323,-1.4801,-1.4604,-1.4275,-1.4165,-1.4181,-1.4106,-1.3944,-1.5246,-1.6704,-1.7964,-1.8361,-1.8513,-1.8513,-1.8632,-1.8754,-1.8886,-1.8772,-1.8612,-1.8442,-1.8402,-1.8236,-1.7852,-1.8184,-1.8121,-1.7521,-1.7895,-1.8044,-1.7886,-1.8044,-1.8155,-1.8283,-1.8586,-1.8779,-1.8916,-1.9182,-1.9301,-0.7925,-0.8878,-0.9795,-1.0063,-1.0538,-1.0826,-1.0664,-1.0704,-1.0712,-1.0427,-1.0054,-0.9713,-0.9697,-0.9508,-0.9637,-1.0477,-1.127,-1.2183,-1.3416,-1.3366,-1.3587,-1.462,-1.3461,-1.2998,0.0,0.0,0.0,-1.493,-1.5702,-1.6585,-1.7553,-1.7512,-1.7428,-1.7294,-1.6585,-1.5997,-1.5585,-1.5071,-1.4585,-1.4083,-1.3366,-1.2491,-1.1591,-1.1063,-1.0307,-0.9442,-0.9344,-0.9269,-0.9225,-0.9225,-0.9164,-0.9118,-0.9189,-0.8977,-0.8651,-0.8767,-0.9244,-0.974,-0.974,-1.036,-1.1194,-1.1194,-1.1194,-1.1194,-1.1194,-1.1194,-1.1194,-1.1194,-1.1724,-1.2146,-1.1932,-1.2392,-1.3063,-1.3692,-1.3721,-1.3791,-1.4594,-1.445,-1.4225,-1.4313,-1.4166,-1.3861,-1.3438,-1.4866,-1.6346,-1.7168,-1.796,-1.8504,-1.8504,-1.8623,-1.8738,-1.8768,-1.8802,-1.8732,-1.8523,-1.8442,-1.8188,-1.7726,-1.7926,-1.7792,-1.7206,-1.7505,-1.7615,-1.7488,-1.7615,-1.7725,-1.7899,-1.8155,-1.8357,-1.8513,-1.876,-1.888,-0.906,-0.968,-1.0107,-1.0968,-1.0928,-1.072,-1.0947,-1.0668,-1.035,-1.0298,-1.0038,-0.9669,-0.9359,-0.9405,-0.9558,-0.9835,-1.0136,-1.075,-1.1878,-1.1663,-1.1988,0.0,0.0,0.0,0.0,0.0,0.0,-1.4281,0.0,-1.4621,-1.4821,-1.4646,-1.4781,-1.5251,-1.5049,-1.4776,-1.451,-1.4451,-1.4267,-1.3904,-1.235,-1.1539,-1.1362,-1.0128,-0.9435,-0.921,-0.9193,-0.9052,-0.8927,-0.892,-0.8916,-0.8954,-0.9068,-0.8863,-0.8556,-0.8973,-0.9322,-0.9579,-0.9628,-1.0314,-1.1194,-1.1194,-1.1194,-1.1194,-1.1194,-1.1194,-1.1194,-1.1194,-1.1179,-1.1168,-1.0949,-1.1375,-1.1963,-1.2422,-1.3041,-1.3676,-1.4288,-1.4443,-1.4364,-1.4056,-1.3953,-1.384,-1.3402,-1.4599,-1.5697,-1.5759,-1.708,-1.8036,-1.8054,-1.8402,-1.861,-1.8389,-1.874,-1.8895,-1.8705,-1.8514,-1.8316,-1.8103,-1.7705,-1.7427,-1.7198,-1.6997,-1.6908,-1.6874,-1.6874,-1.7057,-1.7432,-1.7486,-1.7661,-1.8054,-1.8081,-1.8081,-0.7639,-0.8859,-1.0176,-1.0546,-1.0566,-1.0477,-1.0441,-1.0298,-1.0006,-0.921,-0.8694,-0.8237,-0.7833,-0.7859,-0.834,-0.9486,-0.974,-1.0302,-1.1817,-1.1302,-1.1212,-1.2291,-1.1889,-1.1747,-1.2266,-1.2024,0.0,0.0,-1.3254,-1.4348,-1.5484,-1.5477,-1.538,-1.5152,-1.4435,-1.3901,-1.3559,-1.2354,-1.1627,-1.1265,-1.0604,-1.0226,-1.0073,-0.9666,-0.9334,-0.9197,-0.892,-0.891,-0.9028,-0.8919,-0.903,-0.9228,-0.9369,-0.9227,-0.8966,-0.911,-0.9371,-0.9628,-0.9821,-1.0462,-1.1194,-1.1194,-1.1194,-1.1194,-1.1194,-1.1194,-1.1194,-1.1194,-1.1259,-1.117,-1.0784,-1.0835,-1.1112,-1.1536,-1.1916,-1.2428,-1.3272,-1.3613,-1.3718,-1.3638,-1.3395,-1.3314,-1.3821,-1.4423,-1.5069,-1.5718,-1.6616,-1.7321,-1.7614,-1.8018,-1.8237,-1.8162,-1.8411,-1.8482,-1.8287,-1.8356,-1.8278,-1.8063,-1.7702,-1.7393,-1.7213,-1.7026,-1.6769,-1.6447,-1.6621,-1.6666,-1.6598,-1.7072,-1.727,-1.7224,-1.7824,-1.8007,-0.7526,-0.8439,-0.9501,-1.0143,-1.0167,-1.0,-1.0107,-0.9987,-0.9554,-0.8617,-0.815,-0.7747,-0.7347,-0.759,-0.8131,-0.9108,-0.9522,-1.0234,-1.1465,-1.1276,-1.1303,-1.2035,-1.2025,-1.2067,-1.2451,-1.2373,-1.216,0.0,-1.2201,-1.2813,-1.3821,-1.3713,-1.3639,-1.3737,-1.3181,-1.2719,-1.2359,-1.1333,-1.0574,-1.0208,-0.9913,-0.9676,-0.9408,-0.9391,-0.9188,-0.8907,0.0,-0.8902,-0.8934,-0.9025,-0.9171,-0.9313,-0.9449,-0.9329,-0.9111,-0.9295,-0.948,-0.9677,-1.0019,-1.0556,-1.1047,-1.1145,-1.1194,-1.1194,-1.1194,-1.1194,-1.1194,-1.1194,-1.1154,-1.102,-1.0691,-1.056,-1.0586,-1.0874,-1.1057,-1.1443,-1.2531,-1.2876,-1.3046,-1.3309,-1.3119,-1.301,-1.3368,-1.3825,-1.4394,-1.5144,-1.5939,-1.6632,-1.7176,-1.7596,-1.7844,-1.7844,-1.8262,-1.8407,-1.8127,-1.8382,-1.8362,-1.804,-1.7765,-1.7588,-1.7464,-1.7207,-1.6927,-1.6714,-1.6632,-1.6542,-1.6438,-1.667,-1.6741,-1.6634,-1.7117,-1.7288,-0.779,-0.8086,-0.8442,-0.9532,-0.9519,-0.9287,-0.9584,-0.9406,-0.8928,-0.8119,-0.7906,-0.7789,-0.7499,-0.797,-0.8576,-0.8927,-0.9617,-1.0355,-1.1049,-1.1386,-1.1711,-1.2182,-1.2276,-1.2446,-1.2738,-1.2629,-1.2511,-1.2624,-1.1554,-1.1114,-1.1478,-1.1146,-1.13,-1.1922,-1.1914,-1.1708,-1.1273,-1.1031,-1.059,-1.0083,-0.9932,-0.9644,-0.927,-0.9425,-0.9174,-0.8674,0.0,0.0,-0.8834,-0.9161,-0.9317,-0.9354,-0.9458,-0.9349,-0.9182,-0.9486,-0.9579,-0.9677,-1.0216,-1.0556,-1.0801,-1.1096,-1.1175,-1.1209,-1.1184,-1.1175,-1.1209,-1.1238,-1.1076,-1.0858,-1.0715,-1.0491,-1.0299,-1.0357,-1.0435,-1.0817,-1.1947,-1.2325,-1.2599,-1.3083,-1.3046,-1.2826,-1.2636,-1.3105,-1.3745,-1.4494,-1.5286,-1.6088,-1.6795,-1.7202,-1.7413,-1.7413,-1.8146,-1.8441,-1.8056,-1.8434,-1.8491,-1.804,-1.7886,-1.7796,-1.7757,-1.739,-1.7153,-1.7081,-1.6705,-1.6508,-1.6508,-1.6342,-1.6272,-1.6237,-1.6272,-1.6368,-0.645,-0.707,-0.7817,-0.8205,-0.8074,-0.7856,-0.7839,-0.7894,-0.7662,-0.6868,-0.7045,-0.7381,-0.7553,-0.8154,-0.8956,-0.9864,-1.0319,-1.0607,-1.098,-1.1427,-1.1764,-1.1857,-1.213,-1.2446,-1.2738,-1.2406,0.0,0.0,0.0,-1.1796,-1.1918,-1.18,-1.1809,-1.1821,-1.2022,-1.1877,-1.1333,-1.1212,-1.0831,-1.0083,-1.0173,-0.9999,-0.955,-0.9713,-0.9624,-0.9301,-0.9047,0.0,-0.9372,-0.9268,-0.9322,-0.9568,-0.9585,-0.9573,-0.952,-0.9591,-0.9579,-0.9677,-1.0216,-1.0413,-1.0556,-1.1047,-1.1177,-1.1216,-1.119,-1.1221,-1.1264,-1.1487,-1.1206,-1.0896,-1.0908,-1.0606,-1.0193,-0.9822,-1.0141,-1.069,-1.1414,-1.2465,-1.3273,-1.32,-1.3046,-1.2826,-1.2636,-1.3105,-1.3745,-1.4494,-1.5286,-1.6088,-1.6795,-1.6963,-1.7009,-1.7009,-1.7734,-1.8032,-1.7656,-1.8284,-1.8491,-1.804,-1.7886,-1.7718,-1.7553,-1.7186,-1.6809,-1.6536,-1.6297,-1.6096,-1.5938,-1.607,-1.6035,-1.5903,-1.6175,-1.6272,-0.5323,-0.5765,-0.6526,-0.7229,-0.7209,-0.703,-0.6953,-0.6854,-0.6493,-0.5545,-0.5921,-0.6501,-0.6755,-0.7772,-0.8846,-0.9716,-1.0336,-1.0789,-1.1266,-1.1641,-1.1916,-1.202,-1.2203,-1.2373,-1.2544,-1.2324,-1.2228,0.0,0.0,-1.1939,-1.2024,-1.2061,-1.2036,-1.1841,-1.2062,-1.1933,-1.1333,-1.1273,-1.0951,-1.038,-1.0394,-1.0098,-0.9603,-0.9856,-0.9687,-0.9171,-0.9256,0.0,-0.9266,-0.9377,-0.9424,-0.9494,-0.9592,-0.9579,-0.9579,-0.9579,-0.9579,-0.9677,-1.0216,-1.0413,-1.0493,-1.0882,-1.1091,-1.1192,-1.1091,-1.1144,-1.1192,-1.1236,-1.1,-1.0755,-1.0755,-1.0487,-1.0043,-0.9554,-1.0148,-1.0904,-1.117,-1.2435,-1.3419,-1.3083,-1.2973,-1.2783,-1.2489,-1.2666,-1.328,-1.4422,-1.4931,-1.5578,-1.676,-1.6908,-1.6908,-1.6908,-1.744,-1.7706,-1.7503,-1.8053,-1.8272,-1.8023,-1.7949,-1.7799,-1.7514,-1.7229,-1.6874,-1.6499,-1.6226,-1.6061,-1.5973,-1.6333,-1.6464,-1.6403,-1.7001,-1.7079,-0.4792,-0.4939,-0.5406,-0.6379,-0.6418,-0.6203,-0.6046,-0.5835,-0.5411,-0.4497,-0.4948,-0.5677,-0.6193,-0.7313,-0.8489,-0.9424,-1.0014,-1.0643,-1.1393,-1.1635,-1.1866,-1.2231,-1.2308,0.0,-1.2414,-1.2343,0.0,0.0,0.0,0.0,-1.2024,-1.216,-1.2144,-1.1893,-1.2144,-1.196,-1.1398,-1.1358,-1.1137,-1.062,-1.0557,-1.0149,-0.9381,-0.9841,-0.96,-0.8804,-0.9391,0.0,0.0,-0.9453,-0.9518,-0.9372,-0.9306,-0.9274,-0.9229,-0.8977,-0.8874,-0.8874,-0.9365,-0.9562,-0.9735,-1.0277,-1.0759,-1.1081,-1.0925,-1.0953,-1.1067,-1.0953,-1.0721,-1.0554,-1.06,-1.0324,-0.989,-0.9422,-1.0099,-1.0887,-1.1074,-1.2194,-1.3119,-1.2936,-1.2863,-1.2709,-1.2378,-1.2305,-1.2769,-1.4178,-1.4494,-1.5108,-1.6473,-1.6795,-1.6908,-1.6908,-1.7257,-1.7488,-1.7362,-1.7743,-1.7904,-1.7775,-1.776,-1.7663,-1.7364,-1.7216,-1.7029,-1.6791,-1.651,-1.6422,-1.6508,-1.6941,-1.7139,-1.7139,-1.7838,-1.7881,-0.5219,-0.5233,-0.5245,-0.5352,-0.5265,-0.5,-0.4431,-0.4495,-0.4489,-0.4031,-0.4449,-0.5306,-0.6673,-0.7189,-0.7925,-0.9527,-0.956,-0.9796,-1.0916,-1.1088,-1.1388,-1.2186,-1.2308,0.0,-1.2689,-1.239,0.0,0.0,0.0,0.0,-1.2191,-1.2332,-1.2306,-1.2174,-1.2319,-1.2196,-1.1772,-1.1546,-1.1255,-1.079,-1.0728,-0.9977,-0.8615,-0.978,-0.9594,-0.8472,-0.9212,0.0,0.0,-0.9551,-0.9518,-0.9324,-0.8459,-0.8124,-0.8024,-0.7071,-0.6526,-0.6379,-0.6672,-0.6918,-0.736,-0.859,-0.9848,-1.09,-1.07,-1.0622,-1.0708,-1.0925,-1.0685,-1.0391,-1.0621,-1.0347,-0.989,-0.9422,-0.9674,-1.0218,-1.0925,-1.1632,-1.2298,-1.2783,-1.2746,-1.2562,-1.2342,-1.2305,-1.2592,-1.3462,-1.4171,-1.4931,-1.5798,-1.6482,-1.6908,-1.6908,-1.7257,-1.736,-1.7008,-1.7298,-1.7404,-1.7021,-1.6983,-1.7004,-1.697,-1.6935,-1.7057,-1.7306,-1.7297,-1.745,-1.7833,-1.7867,-1.7901,-1.7891,-1.7993,-1.8003,-0.4451,-0.4816,-0.519,-0.519,-0.5013,-0.4722,-0.401,-0.3805,-0.3653,-0.3206,-0.3612,-0.4259,-0.5118,-0.5718,-0.6588,-0.8162,-0.8412,-0.9002,-1.0741,-1.0418,-1.0637,-1.2168,-1.1727,-1.1639,0.0,0.0,0.0,0.0,0.0,0.0,-1.0355,-1.1743,-1.241,-1.1945,-1.2069,-1.1598,-1.0498,-1.0454,-0.9995,-0.9037,-0.8893,-0.8462,-0.7753,-0.8157,-0.7905,-0.7148,-0.7606,0.0,0.0,-0.7579,-0.7586,-0.7403,-0.7137,-0.7021,-0.6971,-0.6376,-0.6079,-0.6077,-0.647,-0.6716,-0.695,-0.7857,-0.8552,-0.9304,-1.0288,-1.061,-1.0579,-1.0586,-1.0429,-1.0317,-1.0407,-1.0109,-0.9691,-0.9393,-0.9696,-1.0275,-1.0954,-1.1558,-1.2187,-1.2783,-1.2746,-1.2526,-1.2342,-1.2305,-1.2556,-1.339,-1.4135,-1.4895,-1.5692,-1.6438,-1.6908,-1.6908,-1.7046,-1.7061,-1.6892,-1.706,-1.7079,-1.691,-1.688,-1.6778,-1.6539,-1.6576,-1.6753,-1.7075,-1.711,-1.7411,-1.8003,-1.8408,-1.861,-1.861,-1.9187,-1.9154,-0.408,-0.4659,-0.5284,-0.5284,-0.5018,-0.4556,-0.3861,-0.343,-0.3092,-0.2616,-0.2867,-0.3358,-0.3897,-0.4473,-0.5306,-0.6716,-0.7112,-0.784,-0.9559,-0.9264,-0.95,-1.1085,0.0,-1.0448,0.0,-1.1278,0.0,0.0,0.0,0.0,0.0,-1.0548,-1.1276,-1.0814,-1.0763,-1.021,-0.9121,-0.9146,-0.8739,-0.7913,-0.7675,-0.722,-0.6706,-0.6829,-0.6518,-0.5899,0.0,0.0,0.0,-0.6342,-0.6304,-0.6098,-0.6002,-0.5927,-0.5877,-0.5381,-0.5079,-0.5027,-0.5575,-0.5722,-0.5859,-0.6761,-0.7251,-0.7717,-0.9262,-0.9883,-1.0081,-0.9943,-1.0044,-1.0222,-1.0222,-0.9866,-0.947,-0.9319,-0.9553,-0.9956,-1.0585,-1.1186,-1.1744,-1.2415,-1.2526,-1.2489,-1.2335,-1.2305,-1.2482,-1.3062,-1.3998,-1.4816,-1.5365,-1.6298,-1.6908,-1.6908,-1.6839,-1.6799,-1.6723,-1.6705,-1.6684,-1.6567,-1.6584,-1.6465,-1.6154,-1.6321,-1.666,-1.7217,-1.7329,-1.7777,-1.861,-1.9088,-1.932,-1.9353,-1.9998,-1.9998,-0.447,-0.4998,-0.538,-0.538,-0.4975,-0.4457,-0.3835,-0.3344,-0.2853,-0.2396,-0.2375,-0.2703,-0.3638,-0.3819,-0.4212,-0.5442,-0.5808,-0.6165,-0.6923,-0.7442,-0.7898,0.0,-0.8663,-0.8858,-0.9181,0.0,0.0,0.0,0.0,0.0,0.0,-0.8521,-0.8518,-0.8518,-0.81,-0.7864,-0.7922,-0.7741,-0.7729,-0.799,-0.759,-0.6728,-0.5536,-0.6354,-0.6037,0.0,0.0,0.0,0.0,-0.6325,-0.6306,-0.6117,-0.5196,-0.4834,-0.4684,-0.3632,-0.2876,-0.2522,-0.3027,-0.323,-0.3481,-0.5125,-0.5922,-0.6499,-0.7349,-0.8238,-0.8894,-0.8894,-0.9423,-0.9999,-0.9999,-0.9644,-0.9286,-0.9282,-0.9006,-0.8932,-0.9728,-1.0218,-1.0738,-1.1558,-1.204,-1.2305,-1.2305,-1.2305,-1.2305,-1.2305,-1.3637,-1.4601,-1.4601,-1.5965,-1.6908,-1.6908,-1.6716,-1.6508,-1.6316,-1.6316,-1.6149,-1.5849,-1.5814,-1.5814,-1.5805,-1.6192,-1.6911,-1.7978,-1.8319,-1.9021,-2.0074,-2.0085,-2.0085,-2.0085,-2.0118,-2.0216,-0.3454,-0.3913,-0.4307,-0.4307,-0.4055,-0.3716,-0.3326,-0.2996,-0.2722,-0.2423,-0.231,-0.2414,-0.2894,-0.2917,-0.3288,-0.4711,-0.5066,-0.5659,-0.7133,-0.6793,-0.6987,-0.8532,-0.9032,-0.914,0.0,0.0,0.0,0.0,0.0,0.0,0.0,-0.5864,-0.6376,-0.8029,-0.7798,-0.7254,-0.6468,-0.6624,-0.6323,-0.5527,-0.5239,-0.4821,-0.439,-0.4345,0.0,0.0,0.0,0.0,0.0,-0.4198,-0.4184,-0.4023,-0.3603,-0.3429,-0.3328,-0.2625,-0.2273,-0.2218,-0.2685,-0.3067,-0.3503,-0.4574,-0.5284,-0.5776,-0.5866,-0.6837,-0.8061,-0.8496,-0.9292,-0.9994,-0.9994,-0.9748,-0.9465,-0.9319,-0.9115,-0.9189,-1.0289,-1.0519,-1.085,-1.2077,-1.2305,-1.2305,-1.2305,-1.2305,-1.2305,-1.2305,-1.3164,-1.4034,-1.453,-1.5507,-1.6333,-1.6839,-1.6716,-1.6508,-1.6307,-1.6202,-1.607,-1.5841,-1.5805,-1.5805,-1.5805,-1.5908,-1.6395,-1.7217,-1.7856,-1.8548,-1.9353,-1.9835,-2.0118,-2.0118,-2.0118,-2.0216,-0.2885,-0.3374,-0.3812,-0.3812,-0.3581,-0.3299,-0.3036,-0.2772,-0.2526,-0.2435,-0.2392,-0.243,-0.2577,-0.2585,-0.284,-0.3693,-0.4128,-0.4736,-0.5774,-0.552,0.0,-0.7004,0.0,0.0,0.0,0.0,0.0,0.0,0.0,0.0,0.0,-0.4667,-0.5092,-0.6551,-0.6262,-0.5826,-0.5101,-0.5353,-0.5042,-0.4236,-0.3986,-0.3796,-0.3728,-0.3352,0.0,0.0,0.0,0.0,0.0,-0.3165,-0.3158,-0.3128,-0.2863,-0.2775,-0.2723,-0.2304,-0.2148,-0.2192,-0.2686,-0.3151,-0.3675,-0.4351,-0.4886,-0.5213,-0.4988,-0.6138,-0.7621,-0.8324,-0.9205,-0.9975,-0.9856,-0.9682,-0.9432,-0.9221,-0.9053,-0.9135,-1.0138,-1.0438,-1.0812,-1.1929,-1.2224,-1.2305,-1.2305,-1.2305,-1.2305,-1.2305,-1.3208,-1.407,-1.453,-1.5542,-1.6403,-1.6839,-1.6656,-1.6438,-1.6307,-1.6167,-1.6,-1.5797,-1.5805,-1.5805,-1.5805,-1.5805,-1.6272,-1.732,-1.7765,-1.8476,-1.9419,-1.9868,-2.0205,-2.0413,-2.0194,-2.0282,0.0,-0.3258,-0.3699,-0.3699,-0.3348,-0.303,-0.2984,-0.2636,0.0,-0.2397,-0.2579,-0.2704,-0.264,-0.2786,-0.2835,-0.2608,-0.3192,-0.3642,-0.3376,-0.3905,0.0,0.0,-0.4801,0.0,0.0,0.0,0.0,0.0,0.0,0.0,0.0,-0.4711,-0.4519,-0.4392,-0.3947,-0.3795,-0.3984,-0.3982,-0.4028,-0.4017,-0.3731,-0.3545,-0.3521,-0.3299,0.0,0.0,0.0,0.0,0.0,-0.318,-0.3177,-0.3173,-0.287,-0.2767,-0.2708,-0.2463,-0.2299,-0.2342,-0.2872,-0.3373,-0.3843,-0.4403,-0.4678,-0.4778,-0.4717,-0.5921,-0.7515,-0.8189,-0.9104,-0.9842,-0.9653,-0.9442,-0.9235,-0.9032,-0.8859,-0.8856,-0.9468,-1.0067,-1.0663,-1.126,-1.1892,-1.2305,-1.2305,-1.2305,-1.2305,-1.2305,-1.3564,-1.453,-1.4601,-1.5903,-1.6839,-1.6908,-1.6551,-1.6307,-1.6307,-1.6167,-1.6,-1.5797,-1.5805,-1.5805,-1.5805,-1.5805,-1.6482,-1.7901,-1.8037,-1.8754,-2.0118,-2.0118,-2.038,-2.0829,-2.0325,-2.038,-0.2322,0.0,-0.2613,-0.2685,-0.2557,-0.2433,0.0,-0.2467,-0.236,-0.264,-0.2751,-0.2806,-0.2876,-0.3079,-0.3177,-0.3037,-0.3462,-0.3786,-0.3747,-0.4355,0.0,-0.4273,-0.4973,-0.5324,0.0,0.0,0.0,0.0,0.0,0.0,0.0,-0.4447,-0.4205,-0.439,-0.3901,-0.375,-0.3982,-0.3982,-0.4074,-0.4151,-0.3783,-0.3595,-0.362,-0.3358,0.0,0.0,0.0,0.0,-0.318,-0.318,-0.3153,-0.3062,-0.2666,-0.2448,-0.2368,-0.1876,-0.1824,-0.2011,-0.23,-0.2841,-0.3519,-0.4261,-0.4736,-0.4879,-0.4572,-0.521,-0.6251,-0.7183,-0.8088,-0.8888,-0.9447,-0.9442,-0.9235,-0.9032,-0.8859,-0.8813,-0.9263,-0.9949,-1.0625,-1.1074,-1.1781,-1.2305,-1.2305,-1.2305,-1.2305,-1.2305,-1.3135,-1.3962,-1.453,-1.5436,-1.6263,-1.6839,-1.6551,-1.6307,-1.6307,-1.6044,-1.5832,-1.5805,-1.5805,-1.5805,-1.5805,-1.5805,-1.6237,-1.7139,-1.823,-1.922,-2.0118,-2.0118,-2.0172,-2.0282,-2.0162,-2.0172,-0.2247,-0.2237,-0.2286,-0.2413,-0.2338,-0.2301,-0.2466,-0.2387,-0.2388,-0.2709,-0.2787,-0.2871,-0.3028,-0.3094,-0.3202,-0.328,-0.3461,-0.3651,0.0,0.0,-0.4525,-0.4214,-0.4675,0.0,0.0,0.0,0.0,0.0,0.0,0.0,0.0,-0.436,-0.4185,-0.4236,-0.3836,-0.3685,-0.3835,-0.3835,-0.3762,-0.3716,-0.3519,-0.3397,-0.3429,-0.323,-0.3121,0.0,0.0,0.0,-0.3146,-0.2973,-0.3007,-0.305,-0.2421,-0.2261,-0.2381,-0.1841,-0.1882,-0.2253,-0.2299,-0.2901,-0.3758,-0.4195,-0.4601,-0.4813,-0.441,-0.4565,-0.5187,-0.6641,-0.7649,-0.8451,-0.9248,-0.9301,-0.9094,-0.8926,-0.8712,-0.8703,-0.9188,-0.9873,-1.0519,-1.0999,-1.1744,-1.2305,-1.2305,-1.2305,-1.2305,-1.2305,-1.3273,-1.4142,-1.4565,-1.5613,-1.6403,-1.6716,-1.6482,-1.6272,-1.6202,-1.5973,-1.5805,-1.5805,-1.5805,-1.5805,-1.5805,-1.6132,-1.6811,-1.7847,-1.8944,-1.9704,-2.0118,-2.0118,-2.0227,-2.0478,-2.0478,-2.0412,-0.2299,-0.2319,-0.2358,-0.2516,-0.2429,-0.2351,-0.2527,-0.2433,-0.2419,-0.2677,-0.2854,-0.3018,-0.3069,-0.3149,-0.3241,-0.3355,-0.3398,0.0,-0.3892,-0.4232,-0.4355,-0.4198,-0.4398,0.0,0.0,0.0,0.0,0.0,0.0,0.0,0.0,-0.4338,-0.4236,-0.3932,-0.3684,-0.3534,-0.3534,-0.3534,-0.3418,-0.3146,-0.3162,-0.3153,-0.3132,-0.3098,-0.3077,0.0,0.0,0.0,-0.3093,-0.2762,-0.2766,-0.2941,-0.2231,-0.2179,-0.2496,-0.2039,-0.2165,-0.2575,-0.2575,-0.3177,-0.3968,-0.4056,-0.4306,-0.4503,-0.4265,-0.4107,-0.4362,-0.6217,-0.7313,-0.8049,-0.8873,-0.9032,-0.8929,-0.8717,-0.8513,-0.8513,-0.8965,-0.9685,-1.0331,-1.0807,-1.1663,-1.2305,-1.2305,-1.2305,-1.2305,-1.2305,-1.3528,-1.4458,-1.4601,-1.586,-1.6691,-1.6603,-1.6403,-1.6237,-1.6096,-1.5938,-1.5805,-1.5805,-1.5805,-1.5805,-1.5805,-1.6603,-1.7619,-1.88,-1.9671,-2.0118,-2.0118,-2.0118,-2.0391,-2.0894,-2.0894,-2.087,-0.2299,-0.2407,-0.2579,-0.2647,-0.2574,-0.2527,-0.2702,-0.2614,-0.2554,-0.2874,-0.3154,-0.3262,-0.311,-0.3677,-0.3987,-0.3428,0.0,-0.3998,0.0,0.0,-0.4737,-0.4558,0.0,0.0,0.0,0.0,0.0,0.0,0.0,0.0,0.0,-0.4185,-0.3934,-0.3685,-0.3381,-0.3281,-0.3281,-0.3281,-0.3269,-0.3336,-0.3169,-0.3186,-0.3254,-0.313,-0.3111,0.0,0.0,-0.3088,-0.3095,-0.2801,-0.2682,-0.2652,-0.2279,-0.2209,-0.2264,-0.2167,-0.23,-0.2525,-0.2743,-0.3017,-0.3291,-0.3588,-0.379,-0.3966,-0.4072,-0.4031,-0.4164,-0.5268,-0.6235,-0.7069,-0.7817,-0.8524,-0.889,-0.8525,-0.8441,-0.8327,-0.8068,-0.916,-1.0175,-1.0088,-1.1285,-1.2305,-1.2305,-1.2305,-1.2305,-1.2305,-1.3098,-1.389,-1.453,-1.5401,-1.6114,-1.6533,-1.6403,-1.6237,-1.6096,-1.5938,-1.5805,-1.5805,-1.5805,-1.5805,-1.5805,-1.7123,-1.7925,-1.8138,-1.9429,-2.0118,-2.0118,-2.0118,-2.0391,-2.0894,-2.0894,-2.109,-0.2289,-0.2379,-0.2522,-0.272,-0.2695,-0.2659,-0.2945,-0.2792,-0.2704,-0.2981,-0.3042,-0.3057,-0.3116,-0.3472,-0.361,-0.3391,0.0,-0.4135,-0.4039,-0.4376,-0.4492,0.0,0.0,0.0,0.0,0.0,0.0,0.0,0.0,0.0,0.0,0.0,-0.3833,-0.3383,-0.3281,-0.3265,-0.3381,-0.3231,-0.3169,-0.3189,-0.3254,-0.3218,-0.3097,-0.316,-0.314,-0.3043,0.0,-0.2969,-0.2951,-0.2553,-0.2544,-0.2688,-0.2185,-0.2217,-0.2555,-0.2526,-0.2604,-0.2687,-0.2744,-0.2969,-0.3174,-0.3344,-0.3561,-0.3841,-0.3968,-0.3947,-0.3978,-0.4418,-0.5454,-0.6647,-0.7577,-0.8299,-0.8749,-0.8464,-0.8327,-0.814,-0.788,-0.897,-1.0013,-0.9933,-1.1211,-1.2305,-1.2305,-1.2305,-1.2305,-1.2305,-1.2989,-1.3781,-1.4494,-1.5215,-1.5833,-1.6368,-1.6307,-1.6105,-1.5929,-1.5867,-1.5805,-1.5805,-1.5805,-1.5973,-1.6368,-1.7423,-1.8172,-1.8533,-1.9572,-2.0118,-2.0118,-2.0402,-2.0642,-2.0894,-2.1065,-2.1235,-0.2265,-0.2328,-0.2471,-0.2687,-0.2706,-0.2768,-0.3097,-0.2951,-0.2773,-0.3102,-0.2979,-0.2939,-0.314,-0.3183,-0.3266,-0.3542,-0.3967,-0.4236,-0.4121,0.0,0.0,0.0,0.0,0.0,0.0,0.0,0.0,0.0,0.0,0.0,0.0,0.0,-0.3732,-0.323,-0.318,-0.3302,-0.3485,-0.3224,-0.312,-0.3073,-0.3296,-0.3213,-0.294,-0.3153,-0.3168,-0.2979,-0.2888,-0.2875,-0.2871,-0.2337,-0.2388,-0.2739,-0.2154,-0.2289,-0.2913,-0.2822,-0.2786,-0.2758,-0.2725,-0.282,-0.2902,-0.3084,-0.328,-0.3542,-0.3727,-0.3827,-0.3869,-0.3869,-0.4996,-0.6384,-0.7207,-0.8043,-0.8627,-0.8403,-0.8217,-0.803,-0.7799,-0.8884,-0.9895,-0.9895,-1.1211,-1.2305,-1.2305,-1.2305,-1.2305,-1.2305,-1.2806,-1.3535,-1.443,-1.4931,-1.5471,-1.6167,-1.6167,-1.6035,-1.5841,-1.5805,-1.5805,-1.5805,-1.5805,-1.6035,-1.6638,-1.7526,-1.824,-1.8777,-1.9627,-2.0118,-2.0118,-2.0511,-2.0839,-2.1069,-2.1268,-2.1501,-0.2214,-0.2297,-0.2451,-0.2582,-0.261,-0.2717,-0.3086,-0.2951,-0.2808,-0.3217,-0.3302,-0.3282,-0.3158,-0.3322,-0.3575,-0.3974,-0.4174,-0.4449,0.0,0.0,0.0,0.0,0.0,0.0,0.0,0.0,0.0,0.0,0.0,0.0,0.0,0.0,0.0,-0.323,-0.318,-0.3302,-0.3485,-0.3229,-0.3195,-0.3376,-0.3317,-0.3191,-0.2997,-0.3125,-0.3102,-0.2925,-0.2915,-0.2914,-0.2873,-0.2374,-0.2331,-0.2513,-0.2244,-0.2469,-0.2918,-0.2914,-0.2796,-0.2706,-0.2759,-0.2456,-0.2096,-0.2705,-0.2761,-0.2707,-0.3258,-0.3614,-0.3812,-0.3812,-0.4971,-0.6205,-0.6293,-0.7518,-0.8589,-0.8217,-0.8102,-0.7987,-0.7599,-0.8765,-0.9895,-0.9895,-1.1211,-1.2305,-1.2305,-1.2305,-1.2305,-1.2305,-1.2342,-1.2849,-1.4158,-1.4374,-1.484,-1.5991,-1.6096,-1.6035,-1.5841,-1.5805,-1.5805,-1.5805,-1.5805,-1.5832,-1.5867,-1.7226,-1.8037,-1.807,-1.9396,-2.0118,-2.0118,-2.0151,-2.063,-2.1538,-2.157,-2.2062,-0.2121,-0.2247,-0.2377,-0.2609,-0.2629,-0.2722,-0.3183,-0.3094,-0.307,-0.3407,-0.3366,-0.3244,-0.3141,-0.3317,-0.3539,-0.3653,-0.3963,-0.422,0.0,0.0,0.0,0.0,0.0,0.0,0.0,0.0,0.0,0.0,0.0,0.0,0.0,0.0,0.0,-0.323,-0.3343,-0.3489,-0.3665,-0.3359,-0.3304,-0.3534,-0.3507,-0.3356,-0.3128,-0.3329,-0.323,-0.292,-0.292,-0.2784,-0.2649,-0.2469,-0.2424,-0.2511,-0.2566,-0.2662,-0.2756,-0.2718,-0.2676,-0.2634,-0.2619,-0.2368,-0.2162,-0.2538,-0.2489,-0.2431,-0.302,-0.3295,-0.3413,-0.3724,-0.4965,-0.6202,-0.6202,-0.7357,-0.8441,-0.8178,-0.7991,-0.7838,-0.7561,-0.8765,-0.9895,-0.9895,-1.1211,-1.2305,-1.2305,-1.2305,-1.2305,-1.2305,-1.2636,-1.3222,-1.4194,-1.4517,-1.5054,-1.5991,-1.6,-1.5867,-1.5805,-1.5805,-1.5805,-1.5805,-1.5805,-1.5805,-1.5805,-1.6777,-1.7516,-1.8003,-1.8921,-1.9627,-2.0118,-2.0852,-2.1335,-2.1592,-2.177,-2.2259,-0.175,-0.2012,-0.2331,-0.255,-0.2575,-0.2676,-0.3179,-0.3166,-0.3206,-0.3538,-0.347,-0.3301,-0.3161,-0.3288,0.0,0.0,-0.3624,0.0,0.0,0.0,0.0,0.0,0.0,0.0,0.0,0.0,0.0,0.0,0.0,0.0,0.0,0.0,0.0,0.0,-0.328,-0.3468,-0.3638,-0.3307,-0.3294,-0.3587,-0.3474,-0.3341,-0.3093,-0.3339,-0.3242,-0.2888,-0.2826,-0.2739,-0.2578,-0.2488,-0.2488,-0.2484,-0.2691,-0.2729,-0.2687,-0.2646,-0.2619,-0.2595,-0.2474,-0.2289,-0.2119,-0.2198,-0.2148,-0.2137,-0.2584,-0.2888,-0.3149,-0.3483,-0.4849,-0.6192,-0.6068,-0.7202,-0.8327,-0.8063,-0.7919,-0.7761,-0.7561,-0.8765,-0.9895,-0.9895,-1.1211,-1.2305,-1.2305,-1.2305,-1.2268,-1.2224,-1.2783,-1.3448,-1.4049,-1.4581,-1.5196,-1.5921,-1.5867,-1.5805,-1.5805,-1.5805,-1.5805,-1.5805,-1.5805,-1.5805,-1.5805,-1.6499,-1.7242,-1.8003,-1.8667,-1.9353,-2.0118,-2.1037,-2.1543,-2.1603,-2.1883,-2.2349,-0.1034,-0.1615,-0.2199,-0.2339,-0.2385,-0.2524,-0.3058,-0.3136,-0.3218,-0.359,-0.3628,-0.3531,-0.3299,-0.3221,0.0,-0.3099,0.0,0.0,0.0,0.0,0.0,0.0,0.0,0.0,0.0,0.0,0.0,0.0,0.0,0.0,0.0,0.0,0.0,0.0,-0.3095,-0.316,-0.3281,-0.3093,-0.3199,-0.3583,-0.3243,-0.3028,-0.2915,-0.3025,-0.2995,-0.2779,-0.2718,-0.2726,-0.2782,-0.252,-0.2389,-0.2428,-0.2629,-0.2691,-0.2691,-0.2691,-0.2653,-0.256,-0.2356,-0.2123,-0.1848,-0.165,-0.1702,-0.1827,-0.1869,-0.2467,-0.3082,-0.3117,-0.4611,-0.6126,-0.5795,-0.7036,-0.8284,-0.7872,-0.7799,-0.7723,-0.7522,-0.8765,-0.9895,-0.989,-1.1211,-1.2305,-1.2305,-1.2305,-1.2224,-1.204,-1.2673,-1.3339,-1.376,-1.4438,-1.5125,-1.5726,-1.5805,-1.5805,-1.5805,-1.5805,-1.5805,-1.5805,-1.5805,-1.5805,-1.5805,-1.6499,-1.7242,-1.8003,-1.8643,-1.9353,-2.0118,-2.043,-2.0941,-2.1592,-2.1883,-2.2349,0.0548,-0.028,-0.0977,-0.0195,-0.0701,-0.1137,-0.0428,-0.1164,-0.2045,-0.2343,-0.3038,-0.3227,-0.2134,-0.2178,0.0,0.0,0.0,0.0,0.0,0.0,0.0,0.0,0.0,0.0,0.0,0.0,0.0,0.0,0.0,0.0,0.0,0.0,0.0,0.0,-0.124,-0.1308,-0.1414,-0.1309,-0.1326,-0.1505,-0.1185,-0.1747,-0.3024,-0.3045,-0.2591,-0.1824,-0.1812,-0.173,-0.1655,-0.2123,-0.2398,-0.2528,-0.2594,-0.2602,-0.2564,-0.2564,-0.2474,-0.2299,-0.226,-0.1974,-0.169,-0.1611,-0.1525,-0.1513,-0.1766,-0.2207,-0.2679,-0.2952,-0.4309,-0.5659,-0.5404,-0.6477,-0.7614,-0.7604,-0.7488,-0.7343,-0.7305,-0.8665,-0.9846,-0.9722,-1.1083,-1.2305,-1.2305,-1.2187,-1.2077,-1.2003,-1.2452,-1.3142,-1.4214,-1.5062,-1.5611,-1.577,-1.5805,-1.5805,-1.5805,-1.5805,-1.5805,-1.5805,-1.5805,-1.5805,-1.5805,-1.6,-1.6716,-1.7969,-1.8206,-1.8854,-1.9976,-2.0868,-2.1103,-2.0724,-2.1923,-2.2416,0.1535,0.0771,0.0154,0.0762,0.0443,0.023,0.1253,0.0348,-0.0827,-0.1165,-0.1716,-0.1879,-0.1017,-0.1103,0.0,0.0,0.0,0.0,0.0,0.0,0.0,0.0,0.0,0.0,0.0,0.0,0.0,0.0,0.0,0.0,0.0,0.0,0.0,0.0,-0.0351,-0.0432,-0.0465,-0.0446,-0.0398,-0.04,-0.0195,-0.0714,-0.1835,-0.1827,-0.1492,-0.087,-0.087,-0.0829,-0.0746,-0.1575,-0.1933,-0.1989,-0.2333,-0.2423,-0.2392,-0.2392,-0.2301,-0.2167,-0.2089,-0.1846,-0.1565,-0.145,-0.1327,-0.1277,-0.1495,-0.1815,-0.2205,-0.2659,-0.4054,-0.5407,-0.5307,-0.6324,-0.7372,-0.738,-0.7298,-0.7187,-0.7187,-0.8622,-0.9825,-0.9635,-1.1071,-1.2268,-1.2194,-1.2077,-1.1966,-1.1781,-1.2445,-1.3353,-1.4458,-1.5311,-1.5805,-1.5805,-1.5805,-1.5805,-1.5805,-1.5805,-1.5805,-1.5805,-1.5805,-1.5805,-1.5805,-1.5805,-1.6482,-1.7969,-1.8003,-1.8643,-1.9976,-2.0813,-2.0939,-2.0452,-2.1815,-2.2261,0.2257,0.1817,0.1296,0.1243,0.1409,0.175,0.2211,0.151,0.0541,0.0058,-0.0056,-0.0054,0.0054,0.0053,0.0103,0.0,0.0,0.0,0.0,0.0,0.0,0.0,0.0,0.0,0.0,0.0,0.0,0.0,0.0,0.0,0.0,0.0,0.0,0.0042,0.0084,0.0041,-0.004,-0.004,0.0,0.0,0.0227,0.0304,0.0349,0.004,-0.004,0.004,0.004,0.004,-0.004,-0.0849,-0.1091,-0.1087,-0.1817,-0.2115,-0.2189,-0.2189,-0.2158,-0.2115,-0.185,-0.1636,-0.1459,-0.1276,-0.1147,-0.1129,-0.1191,-0.1429,-0.1804,-0.2256,-0.3769,-0.5217,-0.5275,-0.6342,-0.7375,-0.7229,-0.7163,-0.7196,-0.7253,-0.8602,-0.9808,-0.9707,-1.1071,-1.2198,-1.204,-1.1966,-1.1855,-1.1521,-1.2595,-1.37,-1.4454,-1.5236,-1.5703,-1.5703,-1.5728,-1.5745,-1.5745,-1.578,-1.5805,-1.5805,-1.5805,-1.5805,-1.5805,-1.5805,-1.6482,-1.7969,-1.8003,-1.8687,-2.0074,-2.043,-2.0568,-2.0547,-2.1485,-2.1927,0.4319,0.3649,0.314,0.4205,0.4219,0.383,0.3403,0.3186,0.2725,0.1465,0.0533,0.0157,0.0996,0.1094,0.0,0.0,0.0,0.0,0.0,0.0,0.0,0.0,0.0,0.0,0.0,0.0,0.0,0.0,0.0,0.0,0.0,0.0,0.0,0.2007,0.2252,0.2205,0.1805,0.1885,0.1916,0.0,0.2105,0.2212,0.2156,0.0789,0.0465,0.0987,0.0987,0.0976,0.0845,0.0039,-0.0547,-0.1001,-0.113,-0.1551,-0.21,-0.1947,-0.1842,-0.1802,-0.1617,-0.1429,-0.1239,-0.1203,-0.1198,-0.1153,-0.1136,-0.1408,-0.1678,-0.1593,-0.2995,-0.4523,-0.4545,-0.5576,-0.6694,-0.698,-0.7049,-0.7151,-0.7525,-0.8524,-0.9512,-1.0125,-1.1185,-1.2001,-1.2,-1.1855,-1.1855,-1.2077,-1.2647,-1.3308,-1.4115,-1.4646,-1.4923,-1.4923,-1.5172,-1.5343,-1.5343,-1.5625,-1.5805,-1.5805,-1.5805,-1.5805,-1.5805,-1.5805,-1.6482,-1.7969,-1.8003,-1.8643,-1.9933,-2.0386,-2.0328,-1.9852,-2.0941,-2.1452,0.458,0.4412,0.4441,0.5514,0.5337,0.4804,0.4402,0.434,0.4036,0.3066,0.2163,0.1641,0.2278,0.0,0.0,0.0,0.0,0.0,0.0,0.0,0.0,0.0,0.0,0.0,0.0,0.0,0.0,0.0,0.0,0.0,0.0,0.3231,0.3315,0.3197,0.3356,0.3295,0.3023,0.2948,0.2947,0.2945,0.2942,0.294,0.2875,0.1846,0.155,0.1782,0.1917,0.1936,0.182,0.1053,0.0413,-0.0112,-0.0528,-0.1128,-0.1786,-0.1711,-0.1611,-0.1539,-0.1467,-0.1312,-0.1123,-0.1054,-0.1019,-0.1016,-0.0967,-0.1032,-0.1169,-0.1338,-0.2532,-0.3849,-0.4264,-0.5373,-0.649,-0.6798,-0.6861,-0.7011,-0.7591,-0.8487,-0.9445,-1.0239,-1.1131,-1.1778,-1.1846,-1.1595,-1.1588,-1.2038,-1.2571,-1.3204,-1.4005,-1.4463,-1.4684,-1.4684,-1.5,-1.5215,-1.5215,-1.5574,-1.5805,-1.5805,-1.5805,-1.5805,-1.5805,-1.5805,-1.6482,-1.7969,-1.8307,-1.8988,-2.0009,-2.0226,-2.0149,-1.9768,-2.0894,-2.1382,0.4227,0.4683,0.524,0.5792,0.5512,0.512,0.5039,0.4898,0.47,0.4429,0.3864,0.3478,0.3522,0.0,0.0,0.0,0.0,0.0,0.0,0.0,0.0,0.0,0.0,0.0,0.0,0.0,0.0,0.0,0.0,0.0,0.3572,0.3559,0.3622,0.3779,0.3787,0.3772,0.362,0.3542,0.3497,0.3479,0.3303,0.3128,0.2995,0.2813,0.2591,0.2373,0.2534,0.2631,0.2533,0.1997,0.1488,0.0977,0.0145,-0.0618,-0.1267,-0.134,-0.1353,-0.1288,-0.1288,-0.12,-0.1043,-0.0909,-0.0843,-0.0843,-0.0843,-0.0708,-0.0677,-0.1349,-0.2291,-0.3348,-0.411,-0.5306,-0.637,-0.6567,-0.6625,-0.6882,-0.7653,-0.8499,-0.9364,-1.0305,-1.1026,-1.1478,-1.1528,-1.1236,-1.1248,-1.1901,-1.2501,-1.3195,-1.4018,-1.4455,-1.4658,-1.459,-1.4966,-1.5215,-1.5215,-1.5574,-1.5805,-1.5805,-1.5805,-1.5805,-1.5805,-1.5938,-1.6612,-1.7969,-1.8533,-1.9253,-2.0118,-2.0118,-2.0042,-1.9922,-2.0978,-2.14,0.4426,0.4962,0.5452,0.5203,0.5056,0.4863,0.4635,0.4459,0.4441,0.0,0.4569,0.4454,0.0,0.0,0.0,0.0,0.0,0.0,0.0,0.0,0.0,0.0,0.0,0.0,0.0,0.0,0.0,0.0,0.0,0.0,0.3818,0.4012,0.3951,0.3644,0.3783,0.3725,0.3362,0.3714,0.3864,0.3746,0.3713,0.3444,0.301,0.2861,0.2717,0.2549,0.2415,0.2422,0.2507,0.2489,0.2154,0.162,0.0974,0.0359,-0.0246,-0.0775,-0.0935,-0.0879,-0.0881,-0.0879,-0.0876,-0.1009,-0.1076,-0.1076,-0.1076,-0.0909,-0.0877,-0.142,-0.2227,-0.3117,-0.3864,-0.4993,-0.6019,-0.6234,-0.636,-0.6812,-0.8115,-0.85,-0.904,-1.0632,-1.095,-1.095,-1.0779,-1.0765,-1.1142,-1.2258,-1.27,-1.3203,-1.4003,-1.4439,-1.4588,-1.4213,-1.4795,-1.5215,-1.5215,-1.5574,-1.5805,-1.5805,-1.5805,-1.5805,-1.5805,-1.6403,-1.7139,-1.7969,-1.8104,-1.8777,-2.0118,-2.0118,-2.0042,-1.9922,-2.0663,-2.1109,0.4452,0.4805,0.5099,0.5554,0.5355,0.5029,0.4993,0.4905,0.4804,0.4805,0.4916,0.0,0.0,0.0,0.0,0.0,0.0,0.0,0.0,0.0,0.0,0.0,0.0,0.0,0.0,0.0,0.0,0.0,0.0,0.4132,0.4219,0.4318,0.4316,0.4215,0.4303,0.4291,0.4186,0.4186,0.4024,0.3673,0.3751,0.3558,0.3092,0.2961,0.2823,0.2648,0.2481,0.2496,0.2638,0.2773,0.2456,0.1816,0.1318,0.0727,0.0103,-0.048,-0.0646,-0.064,-0.064,-0.0708,-0.0809,-0.0775,-0.0842,-0.0909,-0.0808,-0.0909,-0.1144,-0.1379,-0.2214,-0.319,-0.3736,-0.4593,-0.5409,-0.5911,-0.6074,-0.6544,-0.8161,-0.849,-0.8917,-1.037,-1.0689,-1.0623,-1.027,-1.0482,-1.1156,-1.2412,-1.2782,-1.3335,-1.4562,-1.4701,-1.4615,-1.4444,-1.4898,-1.5215,-1.5215,-1.567,-1.5938,-1.5805,-1.5903,-1.5859,-1.5647,-1.6061,-1.6577,-1.7182,-1.8094,-1.9088,-2.0118,-2.0118,-2.0085,-2.002,-2.0497,-2.0986,0.4254,0.4426,0.457,0.5479,0.5303,0.4926,0.5083,0.5089,0.4989,0.0,0.5048,0.0,0.0,0.0,0.0,0.0,0.0,0.0,0.0,0.0,0.0,0.0,0.0,0.0,0.0,0.0,0.0,0.0,0.0,0.4553,0.4543,0.4483,0.4509,0.4646,0.4613,0.4635,0.4744,0.4531,0.4202,0.3804,0.3828,0.3578,0.3094,0.298,0.2855,0.2757,0.2612,0.264,0.2787,0.2922,0.2688,0.2153,0.1546,0.1042,0.0538,-0.0168,-0.0404,-0.0371,-0.0438,-0.0573,-0.0708,-0.0607,-0.0708,-0.0841,-0.0635,-0.0938,-0.141,-0.1532,-0.2368,-0.3316,-0.3818,-0.4356,-0.4964,-0.5624,-0.5822,-0.6379,-0.8069,-0.8716,-0.9224,-1.0085,-1.033,-1.027,-0.9874,-1.0184,-1.0972,-1.2356,-1.2765,-1.3446,-1.4883,-1.5018,-1.4932,-1.4829,-1.5146,-1.536,-1.536,-1.5791,-1.6,-1.5797,-1.6,-1.5921,-1.5541,-1.5691,-1.614,-1.6872,-1.8094,-1.911,-1.9835,-2.0009,-2.0074,-2.0053,-2.043,-2.0852,0.3757,0.3983,0.407,0.4342,0.4315,0.4285,0.4413,0.4444,0.4542,0.4822,0.0,0.0,0.0,0.0,0.0,0.0,0.0,0.0,0.0,0.0,0.0,0.0,0.0,0.0,0.0,0.0,0.0,0.0,0.0,0.4506,0.4691,0.4455,0.4359,0.4517,0.4376,0.4319,0.4319,0.4618,0.4645,0.4364,0.4095,0.3574,0.2808,0.2753,0.282,0.2989,0.2792,0.2792,0.2989,0.2989,0.3058,0.3025,0.1782,0.1379,0.1379,0.0135,-0.0202,-0.0067,-0.0236,-0.0404,-0.0539,-0.0742,-0.0909,-0.1037,-0.0848,-0.1153,-0.1705,-0.2209,-0.2758,-0.3351,-0.4097,-0.4531,-0.4897,-0.5329,-0.566,-0.6313,-0.7874,-0.9268,-1.0117,-0.9887,-0.9835,-0.9777,-0.9572,-0.9763,-1.0432,-1.1913,-1.2686,-1.3508,-1.4587,-1.5317,-1.56,-1.5223,-1.554,-1.5771,-1.5771,-1.5991,-1.6,-1.5797,-1.6,-1.5921,-1.5541,-1.5691,-1.6368,-1.7634,-1.7925,-1.8365,-1.9044,-1.9769,-2.0042,-1.9911,-2.0397,-2.0533,0.3326,0.3472,0.3585,0.4048,0.3924,0.3751,0.4076,0.4111,0.4121,0.4238,0.0,0.0,0.0,0.0,0.0,0.0,0.0,0.0,0.0,0.0,0.0,0.0,0.0,0.0,0.0,0.0,0.0,0.0,0.0,0.0,0.471,0.445,0.4306,0.4363,0.4322,0.4367,0.4495,0.4964,0.4827,0.4159,0.412,0.374,0.3043,0.2929,0.2984,0.3121,0.2998,0.2973,0.2989,0.2989,0.3023,0.2958,0.1915,0.1547,0.1446,0.0303,-0.0067,-0.0034,-0.0236,-0.0404,-0.0539,-0.0742,-0.0832,-0.0886,-0.0662,-0.1318,-0.2127,-0.2176,-0.3029,-0.3961,-0.4233,-0.4564,-0.4964,-0.5557,-0.6572,-0.7489,-0.7982,-0.9267,-1.0314,-1.0091,-0.996,-0.9883,-0.9985,-1.0522,-1.135,-1.2572,-1.3499,-1.4387,-1.5273,-1.5634,-1.5745,-1.5608,-1.572,-1.5832,-1.5964,-1.614,-1.6211,-1.614,-1.6096,-1.6,-1.5691,-1.5647,-1.6053,-1.6966,-1.7662,-1.8576,-1.9704,-1.9976,-2.0074,-2.0042,-2.0117,-2.0255,0.309,0.3146,0.3241,0.3692,0.3534,0.3358,0.3651,0.3812,0.3852,0.3852,0.0,0.0,0.0,0.0,0.0,0.0,0.0,0.0,0.0,0.0,0.0,0.0,0.0,0.0,0.0,0.0,0.0,0.0,0.0,0.0,0.4589,0.4402,0.4314,0.44,0.4398,0.4464,0.4592,0.496,0.4704,0.3871,0.3934,0.3624,0.3036,0.2977,0.2971,0.3014,0.3085,0.3077,0.3058,0.3058,0.3058,0.2989,0.2183,0.1714,0.1379,0.0505,0.0034,-0.0202,-0.0337,-0.0472,-0.0607,-0.0742,-0.0799,-0.0787,-0.0754,-0.1461,-0.2288,-0.2309,-0.3218,-0.4183,-0.4289,-0.4597,-0.5093,-0.5785,-0.706,-0.8166,-0.8247,-0.9284,-1.0188,-1.0122,-1.0007,-0.9991,-1.025,-1.097,-1.1847,-1.2936,-1.387,-1.4809,-1.5674,-1.5805,-1.5805,-1.5805,-1.5867,-1.5929,-1.6096,-1.6272,-1.6342,-1.6237,-1.6202,-1.6035,-1.5726,-1.5647,-1.5921,-1.6603,-1.7526,-1.8576,-1.9736,-1.9976,-2.0118,-2.0118,-1.9976,-1.9974,0.0,0.0,0.0,0.3173,0.3152,0.3113,0.317,0.0,0.3791,0.3793,0.0,0.0,0.0,0.0,0.0,0.0,0.0,0.0,0.0,0.0,0.0,0.0,0.0,0.0,0.0,0.0,0.0,0.0,0.0,0.4558,0.431,0.429,0.4398,0.46,0.4592,0.4592,0.4592,0.4592,0.4265,0.3604,0.3537,0.3225,0.2722,0.276,0.2731,0.2641,0.2959,0.3138,0.3222,0.3192,0.3192,0.3159,0.2584,0.1947,0.1244,0.0672,0.0067,-0.0506,-0.0506,-0.064,-0.0808,-0.0808,-0.0807,-0.0831,-0.11,-0.1574,-0.2109,-0.2638,-0.3333,-0.395,-0.4234,-0.4694,-0.5253,-0.5947,-0.7088,-0.8129,-0.8668,-0.9323,-0.9833,-0.9898,-0.9919,-1.0009,-1.0274,-1.099,-1.1902,-1.295,-1.3762,-1.4618,-1.5675,-1.5805,-1.5805,-1.5805,-1.5964,-1.6096,-1.6096,-1.6403,-1.6438,-1.6132,-1.6202,-1.6061,-1.5541,-1.5691,-1.6035,-1.6603,-1.7491,-1.8297,-1.9011,-1.9736,-2.0118,-2.0118,-1.9976,-1.9671,0.2807,0.0,0.0,0.0,0.0,0.0,0.0,0.0,0.0,0.3558,0.0,0.0,0.0,0.0,0.0,0.0,0.0,0.0,0.0,0.0,0.0,0.0,0.0,0.0,0.0,0.0,0.0,0.0,0.4523,0.436,0.43,0.4284,0.4402,0.4595,0.4694,0.4694,0.4592,0.4694,0.4408,0.3746,0.3633,0.3356,0.2987,0.2854,0.2842,0.29,0.284,0.3016,0.3364,0.34,0.3431,0.3295,0.2248,0.171,0.1375,0.0202,-0.0337,-0.0506,-0.0674,-0.0765,-0.0784,-0.0784,-0.0699,-0.0644,-0.0895,-0.1344,-0.1915,-0.2612,-0.3323,-0.4014,-0.453,-0.4694,-0.5054,-0.6243,-0.699,-0.7674,-0.8603,-0.9367,-0.9937,-1.0136,-1.034,-1.0551,-1.0815,-1.187,-1.2817,-1.3315,-1.4517,-1.5458,-1.5753,-1.5805,-1.5805,-1.5805,-1.5964,-1.6096,-1.6096,-1.6272,-1.6342,-1.6237,-1.6035,-1.5938,-1.5921,-1.5718,-1.5991,-1.6802,-1.707,-1.7789,-1.9011,-1.9736,-2.0118,-2.0118,-1.9976,-1.9769,0.2752,0.2862,0.2964,0.0,0.0,0.0,0.3128,0.3368,0.361,0.0,0.0,0.0,0.0,0.0,0.0,0.0,0.0,0.0,0.0,0.0,0.0,0.0,0.0,0.0,0.0,0.0,0.0,0.4564,0.4426,0.4318,0.4302,0.4338,0.4473,0.4639,0.4758,0.4691,0.4436,0.4554,0.4225,0.3558,0.3401,0.3221,0.2957,0.2824,0.2758,0.2741,0.2803,0.3009,0.3292,0.352,0.346,0.3092,0.2348,0.1643,0.0973,0.0135,-0.0404,-0.0775,-0.0876,-0.0893,-0.0872,-0.0807,-0.0657,-0.0601,-0.1057,-0.1343,-0.1716,-0.2671,-0.3407,-0.3969,-0.4238,-0.4392,-0.4858,-0.6305,-0.6859,-0.747,-0.8958,-0.9683,-1.0112,-1.0268,-1.0509,-1.0803,-1.1063,-1.229,-1.3322,-1.3469,-1.4754,-1.5695,-1.578,-1.573,-1.5695,-1.5788,-1.6035,-1.6167,-1.6167,-1.6342,-1.6377,-1.6316,-1.607,-1.5938,-1.5964,-1.5753,-1.5885,-1.6438,-1.6733,-1.7575,-1.9011,-1.9419,-1.9802,-2.0118,-1.9976,-1.9835,0.2793,0.2819,0.2842,0.0,0.0,0.0,0.3125,0.3421,0.3748,0.0,0.0,0.0,0.0,0.0,0.0,0.0,0.0,0.0,0.0,0.0,0.0,0.0,0.0,0.0,0.0,0.4625,0.4437,0.4141,0.4265,0.4363,0.4361,0.4452,0.456,0.4702,0.473,0.4586,0.4164,0.4193,0.3868,0.3192,0.3023,0.2913,0.2764,0.2728,0.2595,0.2455,0.2797,0.3032,0.3179,0.3598,0.338,0.272,0.2653,0.1678,0.0302,0.0202,-0.037,-0.1109,-0.1109,-0.1057,-0.0968,-0.0804,-0.0662,-0.0672,-0.1359,-0.149,-0.1608,-0.2786,-0.347,-0.3828,-0.3641,-0.3982,-0.4694,-0.6191,-0.6752,-0.7503,-0.9436,-1.0077,-1.0304,-1.0334,-1.0551,-1.0828,-1.1144,-1.2458,-1.3461,-1.354,-1.4667,-1.5557,-1.5729,-1.5618,-1.5592,-1.5762,-1.607,-1.6272,-1.6202,-1.6403,-1.6473,-1.6272,-1.6132,-1.6,-1.5805,-1.5805,-1.5822,-1.5857,-1.6561,-1.7598,-1.8877,-1.8977,-1.9386,-2.0118,-1.9976,-1.99,0.0,0.0,0.0,0.0,0.0,0.0,0.2882,0.2937,0.3049,0.0,0.0,0.0,0.0,0.0,0.0,0.0,0.0,0.0,0.0,0.0,0.0,0.0,0.0,0.0,0.0,0.4606,0.4378,0.4277,0.4242,0.436,0.4691,0.4683,0.4654,0.4616,0.4629,0.4406,0.3953,0.3825,0.3498,0.3025,0.2855,0.2715,0.2643,0.2629,0.2585,0.2558,0.2654,0.2968,0.3427,0.3587,0.3353,0.2889,0.2281,0.141,0.037,-0.0337,-0.0808,-0.1109,-0.1109,-0.0991,-0.0804,-0.0628,-0.0671,-0.0887,-0.1258,-0.1585,-0.2046,-0.2857,-0.3381,-0.3641,-0.3611,-0.4077,-0.4821,-0.5928,-0.678,-0.7718,-0.9197,-0.9935,-1.0358,-1.0569,-1.0858,-1.1199,-1.1713,-1.2565,-1.3349,-1.3815,-1.479,-1.5496,-1.554,-1.5653,-1.5676,-1.5568,-1.5921,-1.5991,-1.5674,-1.5991,-1.6096,-1.5903,-1.5867,-1.5832,-1.5805,-1.5805,-1.5934,-1.6189,-1.6938,-1.7614,-1.8206,-1.8744,-1.9386,-2.0118,-2.0074,-2.0009,0.0,0.0,0.0,0.2934,0.0,0.0,0.0,0.3001,0.3112,0.3321,0.3753,0.4126,0.0,0.0,0.0,0.0,0.0,0.0,0.0,0.0,0.0,0.0,0.0,0.0,0.0,0.4681,0.449,0.4306,0.4367,0.452,0.4734,0.4828,0.4769,0.4557,0.4683,0.4545,0.4114,0.3862,0.3578,0.319,0.2774,0.2538,0.2504,0.2468,0.2506,0.262,0.2711,0.3045,0.3535,0.3293,0.2942,0.2517,0.2147,0.1175,-0.0067,-0.0506,-0.0842,-0.1076,-0.0976,-0.0893,-0.0739,-0.0374,-0.0544,-0.0937,-0.1131,-0.1736,-0.2452,-0.2969,-0.3253,-0.3477,-0.3908,-0.4303,-0.494,-0.6334,-0.6985,-0.7741,-0.9402,-0.9973,-1.0355,-1.0791,-1.1021,-1.1218,-1.1516,-1.2394,-1.3212,-1.3499,-1.4547,-1.5344,-1.5477,-1.5609,-1.5661,-1.5665,-1.5929,-1.6026,-1.5815,-1.5991,-1.607,-1.5973,-1.5867,-1.5805,-1.5805,-1.5968,-1.6423,-1.7239,-1.7606,-1.8292,-1.9233,-1.9589,-1.9872,-2.0118,-2.0118,-2.0205,0.0,0.0,0.0,0.0,0.0,0.3034,0.0,0.0,0.0,0.3568,0.0,0.0,0.0,0.0,0.0,0.0,0.0,0.0,0.0,0.0,0.0,0.0,0.0,0.0,0.0,0.4721,0.4581,0.4372,0.4572,0.4728,0.4776,0.4991,0.4901,0.4566,0.472,0.4635,0.4237,0.39,0.3587,0.3291,0.2659,0.2357,0.2356,0.2333,0.2432,0.2609,0.284,0.3099,0.3315,0.2975,0.244,0.1846,0.1879,0.0907,-0.0506,-0.0506,-0.0741,-0.1076,-0.0842,-0.073,-0.0648,-0.0314,-0.0668,-0.1231,-0.1422,-0.2052,-0.2733,-0.2918,-0.3081,-0.3338,-0.4051,-0.4438,-0.508,-0.6667,-0.7189,-0.7807,-0.9611,-1.0035,-1.0231,-1.0977,-1.1111,-1.1187,-1.1371,-1.2338,-1.3137,-1.3343,-1.4363,-1.5188,-1.5414,-1.5487,-1.5558,-1.5727,-1.5894,-1.5991,-1.5991,-1.6035,-1.6061,-1.6131,-1.6006,-1.5934,-1.6019,-1.6362,-1.707,-1.8175,-1.8248,-1.9006,-2.0517,-2.0517,-2.0456,-2.0391,-2.0391,-2.0577,0.0,0.0,0.0,0.0,0.3048,0.0,0.0,0.0,0.3306,0.3977,0.0,0.0,0.0,0.0,0.0,0.0,0.0,0.0,0.0,0.0,0.0,0.0,0.0,0.0,0.0,0.0,0.4494,0.4629,0.489,0.5087,0.5133,0.5271,0.5143,0.4686,0.4646,0.4406,0.3931,0.3383,0.301,0.2868,0.2419,0.2221,0.2221,0.2348,0.2479,0.2609,0.2933,0.2847,0.2471,0.2783,0.211,0.0974,0.1143,0.0505,-0.0506,-0.0506,-0.0741,-0.1042,-0.0672,-0.047,-0.0434,-0.0842,-0.1543,-0.2322,-0.2749,-0.2781,-0.2693,-0.2589,-0.2796,-0.3121,-0.3488,-0.4265,-0.5221,-0.6252,-0.709,-0.8027,-0.9362,-0.9757,-1.0107,-1.0941,-1.1111,-1.1431,-1.2419,-1.2739,-1.3179,-1.4189,-1.4755,-1.5124,-1.5127,-1.5334,-1.5525,-1.5532,-1.5541,-1.5576,-1.5576,-1.5726,-1.5969,-1.6251,-1.6276,-1.6385,-1.6781,-1.7141,-1.7623,-1.8184,-1.8468,-1.9247,-2.0517,-2.0517,-2.0829,-2.1428,-2.1428,-2.1255,0.0,0.0,0.0,0.0,0.0,0.0,0.3458,0.0,0.3169,0.0,0.0,0.0,0.0,0.0,0.0,0.0,0.6877,0.0,0.0,0.0,0.0,0.0,0.0,0.0,0.0,0.0,0.0,0.0,0.4721,0.4949,0.5146,0.5242,0.5138,0.4843,0.4822,0.4678,0.4295,0.3833,0.3418,0.3081,0.2651,0.2391,0.2322,0.2391,0.2574,0.2834,0.3017,0.2813,0.2364,0.2292,0.1691,0.0773,0.0538,0.0067,-0.0506,-0.064,-0.0775,-0.0876,-0.0505,-0.0269,-0.0268,-0.1073,-0.165,-0.2187,-0.2926,-0.2926,-0.2663,-0.2771,-0.3045,-0.3491,-0.4135,-0.4897,-0.574,-0.6798,-0.7367,-0.8058,-0.9307,-0.9738,-1.0102,-1.0928,-1.1484,-1.2002,-1.2572,-1.2732,-1.3065,-1.3922,-1.455,-1.4937,-1.4974,-1.5298,-1.5514,-1.5515,-1.5806,-1.6005,-1.6005,-1.6283,-1.6516,-1.6624,-1.6641,-1.6841,-1.7227,-1.7428,-1.8154,-1.9516,-1.9678,-2.047,-2.1942,-2.1942,-2.2099,-2.24,-2.1843,-2.1625,0.393,0.0,0.0,0.0,0.0,0.0,0.0,0.0,0.0,0.0,0.0,0.0,0.0,0.0,0.0,0.0,0.0,0.6721,0.0,0.0,0.0,0.0,0.0,0.0,0.0,0.0,0.0,0.441,0.4693,0.4944,0.5092,0.5232,0.5265,0.5074,0.4952,0.4788,0.4582,0.4002,0.356,0.3205,0.271,0.2469,0.2391,0.2456,0.2555,0.2714,0.2804,0.2424,0.172,0.1491,0.1024,0.0399,0.0,-0.0268,-0.0466,-0.06,-0.07,-0.0666,-0.0267,-0.0268,-0.0604,-0.1574,-0.2077,-0.2406,-0.3045,-0.2941,-0.2662,-0.2786,-0.3208,-0.3806,-0.4625,-0.5321,-0.611,-0.7274,-0.759,-0.7961,-0.9251,-0.9782,-1.0229,-1.081,-1.1821,-1.2585,-1.2524,-1.2766,-1.3218,-1.3842,-1.451,-1.4974,-1.5172,-1.5558,-1.5832,-1.5882,-1.6226,-1.647,-1.6544,-1.6756,-1.6961,-1.7064,-1.7167,-1.7346,-1.7612,-1.7856,-1.8795,-2.0459,-2.0731,-2.1576,-2.3001,-2.3001,-2.3001,-2.299,-2.2291,-2.2095,0.0,0.0,0.0,0.3849,0.0,0.0,0.0,0.0,0.3527,0.0,0.0,0.0,0.0,0.0,0.0,0.5481,0.0,0.0,0.0,0.0,0.0,0.0,0.0,0.0,0.0,0.0,0.0,0.452,0.4987,0.5246,0.5101,0.5467,0.5603,0.5479,0.4904,0.4622,0.4584,0.3557,0.3027,0.2985,0.2454,0.229,0.2391,0.2587,0.242,0.1947,0.2148,0.1414,0.0097,0.0354,0.0097,-0.0454,-0.0467,-0.0398,-0.0323,-0.0323,-0.0388,-0.042,0.0097,-0.0526,-0.1709,-0.2644,-0.3218,-0.3512,-0.3354,-0.302,-0.2665,-0.2467,-0.2977,-0.3775,-0.4503,-0.5257,-0.611,-0.7399,-0.7533,-0.7772,-0.9016,-0.9892,-1.0402,-1.0518,-1.2044,-1.3155,-1.2412,-1.2967,-1.372,-1.4446,-1.4915,-1.5377,-1.5887,-1.6306,-1.6632,-1.6838,-1.6695,-1.6657,-1.6863,-1.6872,-1.7072,-1.7471,-1.78,-1.7965,-1.7974,-1.8807,-1.9638,-2.0459,-2.1336,-2.2193,-2.3001,-2.3001,-2.3001,-2.3001,-2.2968,-2.2728,0.0,0.0,0.4537,0.4488,0.0,0.0,0.0,0.0,0.0,0.0,0.0,0.0,0.0,0.0,0.5585,0.5945,0.6503,0.0,0.0,0.0,0.0,0.0,0.0,0.0,0.0,0.0,0.0,0.4066,0.4426,0.4627,0.4628,0.4935,0.5136,0.5224,0.4875,0.4634,0.4582,0.384,0.3294,0.2985,0.274,0.2601,0.2621,0.2822,0.2619,0.2111,0.2181,0.1365,0.0033,0.0292,0.0033,-0.0499,-0.0403,-0.0268,-0.0133,-0.0358,-0.0415,-0.0377,-0.0416,-0.0907,-0.1638,-0.2366,-0.286,-0.3207,-0.3236,-0.2966,-0.2715,-0.3086,-0.3689,-0.4315,-0.4826,-0.5515,-0.6277,-0.7112,-0.737,-0.77,-0.8795,-1.0073,-1.1075,-1.1354,-1.3135,-1.4393,-1.3752,-1.4224,-1.4613,-1.4417,-1.4813,-1.5296,-1.5729,-1.5859,-1.6079,-1.6636,-1.6758,-1.6936,-1.7261,-1.7518,-1.7675,-1.7834,-1.8475,-1.8708,-1.8401,-1.9198,-1.9857,-2.0353,-2.1018,-2.1713,-2.2553,-2.2848,-2.3001,-2.3001,-2.3001,-2.2914,0.4851,0.4931,0.0,0.4828,0.4749,0.0,0.4306,0.0,0.0,0.0,0.0,0.0,0.0,0.0,0.0,0.5043,0.5514,0.6057,0.0,0.7537,0.0,0.0,0.0,0.0,0.0,0.0,0.4097,0.3874,0.4184,0.4399,0.0,0.0,0.5024,0.5205,0.4794,0.4594,0.4582,0.3838,0.3329,0.306,0.2775,0.2701,0.2787,0.2654,0.2318,0.1811,0.1546,0.0755,-0.0331,-0.0131,-0.0197,-0.0499,-0.0336,-0.0167,-0.0033,-0.0228,-0.0383,-0.0566,-0.1087,-0.1555,-0.2033,-0.2736,-0.3079,-0.3164,-0.3152,-0.2963,-0.2857,-0.3451,-0.4022,-0.4662,-0.5366,-0.6037,-0.6697,-0.733,-0.7583,-0.7882,-0.8548,-1.0166,-1.1479,-1.151,-1.3585,-1.5098,-1.4263,-1.4939,-1.5384,-1.472,-1.4978,-1.5463,-1.6052,-1.6168,-1.6426,-1.7017,-1.7196,-1.7415,-1.7655,-1.7894,-1.8112,-1.8434,-1.8984,-1.93,-1.9303,-1.9905,-2.0397,-2.0648,-2.1083,-2.166,-2.2396,-2.248,-2.2586,-2.2761,-2.2586,-2.2499]},{"header":{"parameterUnit":"m.s-1","parameterCategory":1,"la1":30.6,"la2":29.2853,"lo1":-89.7004,"lo2":-87.6739,"dy":0.0162,"dx":0.0183,"nx":112,"ny":82,"refTime":"2023-09-24T12:00:00:Z","depth":0,"parameterNumber":3,"parameterNumberName":"V-component_of_WINDS"},"data":[0.0,0.0,0.0,0.0,0.0,0.0,0.0,0.0,0.0,0.0,0.0,0.0,0.0,0.0,0.0,0.0,0.0,0.0,0.0,0.0,0.0,0.0,0.0,0.0,0.0,0.0,0.0,0.0,0.0,0.0,0.0,0.0,0.0,0.0,0.0,0.0,0.0,0.0,0.0,0.0,0.0,0.0,0.0,0.0,0.0,0.0,0.0,0.0,0.0,0.0,0.0,0.0,0.0,0.0,0.0,0.0,0.0,0.0,0.0,0.0,0.0,0.0,0.0,0.0,0.0,0.0,0.0,0.0,0.0,0.0,0.0,0.0,0.0,0.0,0.0,0.0,0.0,0.0,0.0,0.0,0.0,0.0,0.0,0.0,0.0,0.0,0.0,0.0,0.0,0.0,3.0691,3.4266,3.8986,4.2155,4.2874,4.1972,3.882,3.2782,0.0,0.0,0.0,0.0,0.0,0.0,0.0,0.0,0.0,0.0,0.0,0.0,0.0,0.0,0.0,0.0,0.0,0.0,0.0,0.0,0.0,0.0,0.0,0.0,0.0,0.0,0.0,0.0,0.0,0.0,0.0,0.0,0.0,0.0,0.0,0.0,0.0,0.0,0.0,0.0,0.0,0.0,0.0,0.0,0.0,0.0,0.0,0.0,0.0,0.0,0.0,0.0,0.0,0.0,0.0,0.0,0.0,0.0,0.0,0.0,0.0,0.0,0.0,0.0,0.0,0.0,0.0,0.0,0.0,0.0,0.0,0.0,0.0,0.0,0.0,0.0,0.0,0.0,0.0,0.0,0.0,0.0,0.0,0.0,0.0,0.0,0.0,0.0,0.0,0.0,0.0,0.0,0.0,0.0,0.0,0.0,0.0,0.0,0.0,0.0,0.0,0.0,0.0,0.0,3.2979,3.8647,4.0254,4.1261,4.2114,4.0426,3.7382,3.278,0.0,0.0,0.0,0.0,0.0,0.0,0.0,0.0,0.0,0.0,0.0,0.0,0.0,0.0,0.0,0.0,0.0,0.0,0.0,0.0,0.0,0.0,0.0,0.0,0.0,0.0,0.0,0.0,0.0,0.0,0.0,0.0,0.0,0.0,0.0,0.0,0.0,0.0,0.0,0.0,0.0,0.0,0.0,0.0,0.0,0.0,0.0,0.0,0.0,0.0,0.0,0.0,0.0,0.0,0.0,0.0,0.0,0.0,0.0,0.0,0.0,0.0,0.0,0.0,0.0,0.0,0.0,0.0,0.0,0.0,0.0,0.0,0.0,0.0,0.0,0.0,0.0,0.0,0.0,0.0,0.0,0.0,0.0,0.0,0.0,0.0,0.0,0.0,0.0,0.0,0.0,0.0,0.0,0.0,0.0,0.0,0.0,0.0,0.0,0.0,0.0,0.0,0.0,3.1664,3.5189,3.8946,3.9778,4.0377,4.1193,3.9437,3.6657,3.2806,2.9646,0.0,0.0,0.0,0.0,0.0,0.0,0.0,0.0,0.0,0.0,0.0,0.0,0.0,0.0,0.0,0.0,0.0,0.0,0.0,0.0,0.0,0.0,0.0,0.0,0.0,0.0,0.0,0.0,0.0,0.0,0.0,0.0,0.0,0.0,0.0,0.0,0.0,0.0,0.0,0.0,0.0,0.0,0.0,0.0,0.0,0.0,0.0,0.0,0.0,0.0,0.0,0.0,0.0,0.0,0.0,0.0,0.0,0.0,0.0,0.0,0.0,0.0,0.0,0.0,0.0,0.0,0.0,0.0,0.0,0.0,0.0,0.0,0.0,0.0,0.0,0.0,0.0,0.0,0.0,0.0,0.0,0.0,0.0,0.0,0.0,0.0,0.0,0.0,0.0,0.0,0.0,0.0,0.0,0.0,0.0,0.0,0.0,0.0,0.0,0.0,0.0,0.0,3.4513,3.6676,3.8512,3.9027,3.9481,4.0027,3.8258,3.5643,3.2148,2.8415,0.0,0.0,0.0,0.0,0.0,0.0,0.0,0.0,0.0,0.0,0.0,0.0,0.0,0.0,0.0,0.0,0.0,0.0,0.0,0.0,0.0,0.0,0.0,0.0,0.0,0.0,0.0,0.0,0.0,0.0,0.0,0.0,0.0,0.0,0.0,0.0,0.0,0.0,0.0,0.0,0.0,0.0,0.0,0.0,0.0,0.0,0.0,0.0,0.0,0.0,0.0,0.0,0.0,0.0,0.0,0.0,0.0,0.0,0.0,0.0,0.0,0.0,0.0,0.0,0.0,0.0,0.0,0.0,0.0,0.0,0.0,0.0,0.0,0.0,0.0,0.0,0.0,0.0,0.0,0.0,0.0,0.0,0.0,0.0,0.0,0.0,0.0,0.0,0.0,0.0,0.0,0.0,0.0,0.0,0.0,0.0,0.0,0.0,0.0,0.0,0.0,0.0,3.4273,3.6786,3.9073,3.8817,3.8507,3.8552,3.6418,3.3622,3.0123,2.6435,0.0,0.0,0.0,0.0,0.0,0.0,0.0,0.0,0.0,0.0,0.0,0.0,0.0,0.0,0.0,0.0,0.0,0.0,0.0,0.0,0.0,0.0,0.0,0.0,0.0,0.0,0.0,0.0,0.0,0.0,0.0,0.0,0.0,0.0,0.0,0.0,0.0,0.0,0.0,0.0,0.0,0.0,0.0,0.0,0.0,0.0,0.0,0.0,0.0,0.0,0.0,0.0,0.0,0.0,0.0,0.0,0.0,0.0,0.0,0.0,0.0,0.0,0.0,0.0,0.0,0.0,0.0,0.0,0.0,0.0,0.0,0.0,0.0,0.0,0.0,0.0,0.0,0.0,0.0,0.0,0.0,0.0,0.0,0.0,0.0,0.0,0.0,0.0,0.0,0.0,0.0,0.0,0.0,0.0,0.0,0.0,0.0,0.0,0.0,0.0,0.0,0.0,3.3635,3.6181,0.0,3.7801,3.7784,3.8394,3.6398,3.3736,3.0529,0.0,0.0,0.0,0.0,0.0,0.0,0.0,0.0,0.0,0.0,0.0,0.0,0.0,0.0,0.0,0.0,0.0,0.0,0.0,0.0,0.0,0.0,0.0,0.0,0.0,0.0,0.0,0.0,0.0,0.0,0.0,0.0,0.0,0.0,0.0,0.0,0.0,0.0,0.0,0.0,0.0,0.0,0.0,0.0,0.0,0.0,0.0,0.0,0.0,0.0,0.0,0.0,0.0,0.0,0.0,0.0,0.0,0.0,0.0,0.0,0.0,0.0,0.0,0.0,0.0,0.0,0.0,0.0,0.0,0.0,0.0,0.0,0.0,0.0,0.0,0.0,0.0,0.0,0.0,0.0,0.0,0.0,0.0,0.0,0.0,0.0,0.0,0.0,0.0,0.0,0.0,0.0,0.0,0.0,0.0,0.0,0.0,0.0,0.0,0.0,0.0,0.0,3.0505,3.372,3.6373,0.0,3.739,3.739,3.8106,3.5982,3.3203,2.9859,0.0,0.0,0.0,0.0,0.0,0.0,0.0,0.0,0.0,0.0,0.0,0.0,0.0,0.0,0.0,0.0,0.0,0.0,0.0,0.0,0.0,0.0,0.0,0.0,0.0,0.0,0.0,0.0,0.0,0.0,0.0,0.0,0.0,0.0,0.0,0.0,0.0,0.0,0.0,0.0,0.0,0.0,0.0,0.0,0.0,0.0,0.0,0.0,0.0,0.0,0.0,0.0,0.0,0.0,0.0,0.0,0.0,0.0,0.0,0.0,0.0,0.0,0.0,0.0,0.0,0.0,0.0,0.0,0.0,0.0,0.0,0.0,0.0,0.0,0.0,0.0,0.0,0.0,0.0,0.0,0.0,0.0,0.0,0.0,0.0,0.0,0.0,0.0,0.0,0.0,0.0,0.0,0.0,0.0,0.0,0.0,0.0,0.0,0.0,0.0,0.0,0.0,3.1048,3.4722,3.7633,3.831,3.7798,3.7399,3.7399,3.4968,3.169,0.0,0.0,0.0,0.0,0.0,0.0,0.0,0.0,0.0,0.0,0.0,0.0,0.0,0.0,0.0,0.0,0.0,0.0,0.0,0.0,0.0,0.0,0.0,0.0,0.0,0.0,0.0,0.0,0.0,0.0,0.0,0.0,0.0,0.0,0.0,0.0,0.0,0.0,0.0,0.0,0.0,0.0,0.0,0.0,0.0,0.0,0.0,0.0,0.0,0.0,0.0,0.0,0.0,0.0,0.0,0.0,0.0,0.0,0.0,0.0,0.0,0.0,0.0,0.0,0.0,0.0,0.0,0.0,0.0,0.0,0.0,0.0,0.0,0.0,0.0,0.0,0.0,0.0,0.0,0.0,0.0,0.0,0.0,0.0,0.0,0.0,0.0,0.0,0.0,0.0,0.0,0.0,0.0,0.0,0.0,0.0,0.0,0.0,0.0,0.0,0.0,0.0,0.0,3.0603,3.3756,3.6443,3.7635,3.7374,3.7219,3.7463,3.5539,3.2416,2.7976,0.0,0.0,0.0,0.0,0.0,0.0,0.0,0.0,0.0,0.0,0.0,0.0,0.0,0.0,0.0,0.0,0.0,0.0,0.0,0.0,0.0,0.0,0.0,0.0,0.0,0.0,0.0,0.0,0.0,0.0,0.0,0.0,0.0,0.0,0.0,0.0,0.0,0.0,0.0,0.0,0.0,0.0,0.0,0.0,0.0,0.0,0.0,0.0,0.0,0.0,0.0,0.0,0.0,0.0,0.0,0.0,0.0,0.0,0.0,0.0,0.0,0.0,0.0,0.0,0.0,0.0,0.0,0.0,0.0,0.0,0.0,0.0,0.0,0.0,0.0,0.0,0.0,0.0,0.0,0.0,0.0,0.0,0.0,0.0,0.0,0.0,0.0,0.0,0.0,0.0,0.0,0.0,0.0,0.0,0.0,0.0,0.0,0.0,0.0,0.0,0.0,0.0,3.0226,3.3156,3.5725,3.7142,3.7121,3.7076,3.7271,3.5691,3.3084,2.9336,0.0,0.0,0.0,0.0,0.0,0.0,0.0,0.0,0.0,0.0,0.0,0.0,0.0,0.0,0.0,0.0,0.0,0.0,0.0,0.0,0.0,0.0,0.0,0.0,0.0,0.0,0.0,0.0,0.0,0.0,0.0,0.0,0.0,0.0,0.0,0.0,0.0,0.0,0.0,0.0,0.0,0.0,0.0,0.0,0.0,0.0,0.0,0.0,0.0,0.0,0.0,0.0,0.0,0.0,0.0,0.0,0.0,0.0,0.0,0.0,0.0,0.0,0.0,0.0,0.0,0.0,0.0,0.0,0.0,0.0,0.0,0.0,0.0,0.0,0.0,0.0,0.0,0.0,0.0,0.0,0.0,0.0,0.0,0.0,0.0,0.0,0.0,0.0,0.0,0.0,0.0,0.0,0.0,0.0,0.0,0.0,0.0,0.0,0.0,0.0,0.0,0.0,2.9856,3.2848,3.5457,3.6729,3.6935,3.6951,3.6858,3.5537,3.3646,3.1162,0.0,0.0,0.0,0.0,0.0,0.0,0.0,0.0,0.0,0.0,0.0,0.0,0.0,0.0,0.0,0.0,0.0,0.0,0.0,0.0,0.0,0.0,0.0,0.0,0.0,0.0,0.0,0.0,0.0,0.0,0.0,0.0,0.0,0.0,0.0,0.0,0.0,0.0,0.0,0.0,0.0,0.0,0.0,0.0,0.0,0.0,0.0,0.0,0.0,0.0,0.0,0.0,0.0,0.0,0.0,0.0,0.0,0.0,0.0,0.0,3.3976,0.0,0.0,0.0,0.0,0.0,0.0,0.0,0.0,0.0,0.0,0.0,0.0,0.0,0.0,0.0,0.0,0.0,0.0,0.0,0.0,0.0,0.0,0.0,0.0,0.0,0.0,0.0,0.0,0.0,0.0,0.0,0.0,0.0,0.0,0.0,0.0,0.0,0.0,0.0,0.0,0.0,2.9053,3.2714,3.5415,3.5704,3.6327,3.6421,3.5799,3.4991,3.3345,3.0494,2.954,0.0,0.0,0.0,0.0,0.0,0.0,0.0,0.0,0.0,0.0,0.0,0.0,0.0,0.0,0.0,0.0,0.0,0.0,0.0,0.0,0.0,0.0,0.0,0.0,0.0,0.0,0.0,0.0,0.0,0.0,0.0,0.0,0.0,0.0,0.0,0.0,0.0,0.0,0.0,0.0,0.0,0.0,0.0,0.0,0.0,0.0,0.0,0.0,0.0,0.0,0.0,0.0,0.0,0.0,0.0,0.0,0.0,0.0,0.0,0.0,3.5403,0.0,0.0,0.0,0.0,0.0,0.0,0.0,0.0,0.0,0.0,0.0,0.0,0.0,0.0,0.0,0.0,0.0,0.0,0.0,0.0,0.0,0.0,0.0,0.0,0.0,0.0,0.0,0.0,0.0,0.0,0.0,0.0,0.0,0.0,0.0,0.0,0.0,0.0,0.0,0.0,2.8962,3.1962,3.4338,3.5071,3.5594,3.5685,3.5197,3.4605,3.365,3.2215,3.0809,0.0,0.0,0.0,0.0,0.0,0.0,0.0,0.0,0.0,0.0,0.0,0.0,0.0,0.0,0.0,0.0,0.0,0.0,0.0,0.0,0.0,0.0,0.0,0.0,0.0,0.0,0.0,0.0,0.0,0.0,0.0,0.0,0.0,0.0,0.0,0.0,0.0,0.0,0.0,0.0,0.0,0.0,0.0,0.0,0.0,0.0,0.0,0.0,0.0,0.0,0.0,0.0,0.0,4.1739,4.2493,4.3096,4.2871,4.2937,4.3193,4.2812,4.2002,4.0752,0.0,0.0,0.0,0.0,0.0,0.0,0.0,0.0,0.0,0.0,0.0,0.0,0.0,0.0,0.0,0.0,0.0,0.0,0.0,0.0,0.0,0.0,0.0,0.0,0.0,3.7202,3.7452,0.0,0.0,0.0,0.0,0.0,0.0,0.0,0.0,0.0,0.0,0.0,0.0,2.8626,3.127,3.3459,3.4547,3.487,3.4942,3.472,3.4227,3.4006,3.4142,3.1915,3.0359,0.0,0.0,0.0,0.0,0.0,0.0,0.0,0.0,0.0,0.0,0.0,0.0,0.0,0.0,0.0,0.0,0.0,0.0,0.0,0.0,0.0,0.0,0.0,0.0,0.0,0.0,0.0,0.0,0.0,0.0,0.0,0.0,3.2989,3.5149,0.0,0.0,0.0,0.0,0.0,0.0,0.0,0.0,0.0,0.0,0.0,0.0,0.0,3.9448,4.0262,4.385,4.5693,4.5831,4.9061,5.0801,5.1146,5.0502,5.0711,5.152,5.0161,0.0,4.1565,4.1295,0.0,0.0,0.0,0.0,0.0,0.0,0.0,0.0,0.0,0.0,0.0,0.0,0.0,0.0,0.0,0.0,0.0,0.0,0.0,0.0,0.0,0.0,4.1451,4.0907,4.098,4.0812,0.0,3.4898,3.1107,3.1449,0.0,0.0,0.0,0.0,0.0,0.0,0.0,0.0,2.6766,3.1396,3.4484,3.3752,3.434,3.4505,3.3926,3.3782,3.3708,3.3604,3.314,3.1741,2.9242,3.0819,0.0,0.0,0.0,0.0,0.0,0.0,0.0,0.0,0.0,0.0,0.0,0.0,0.0,0.0,0.0,0.0,0.0,0.0,0.0,0.0,0.0,0.0,0.0,0.0,0.0,0.0,0.0,0.0,0.0,3.2701,3.519,3.4709,3.5442,3.4209,0.0,0.0,0.0,0.0,0.0,0.0,0.0,0.0,0.0,4.0735,4.2891,4.4491,4.5597,4.8746,5.0526,5.0878,5.2579,5.3695,5.425,5.3841,5.3935,5.4483,5.3982,5.196,4.8811,4.6393,4.48,4.3598,0.0,0.0,0.0,0.0,3.8216,3.9171,4.0419,4.171,0.0,0.0,0.0,0.0,0.0,0.0,0.0,0.0,0.0,0.0,0.0,0.0,0.0,4.2248,4.3081,4.354,4.2853,3.8901,3.4936,0.0,3.1227,2.8833,2.5397,0.0,0.0,0.0,0.0,2.9532,2.9765,3.2366,3.4104,3.3857,3.4034,3.3978,3.3623,3.3736,3.3761,3.3633,3.3477,3.2669,3.1036,3.1422,3.0069,0.0,0.0,0.0,0.0,0.0,0.0,0.0,0.0,0.0,0.0,0.0,0.0,0.0,0.0,0.0,0.0,0.0,0.0,0.0,0.0,0.0,0.0,0.0,0.0,0.0,0.0,0.0,0.0,3.6103,3.7877,3.552,3.7976,3.7734,0.0,0.0,0.0,0.0,0.0,0.0,4.0537,4.158,4.3249,4.5751,4.805,4.9726,5.0721,5.275,5.3993,5.4466,5.4554,5.4998,5.5706,5.5555,5.5624,5.5929,5.6176,5.5991,5.5204,5.1112,4.9049,4.8247,4.557,4.3707,4.2418,4.1878,4.2028,4.2703,4.3835,4.5411,4.6813,4.5918,0.0,4.3105,3.9381,0.0,0.0,0.0,0.0,3.6779,3.8373,4.0093,4.1723,4.2974,4.4296,4.5118,4.4435,4.1747,3.8639,0.0,3.4705,3.2832,2.8142,0.0,0.0,0.0,0.0,3.1106,3.1939,3.3096,3.3913,3.4136,3.3873,3.3658,3.3555,3.372,3.3716,3.3412,3.3258,3.2825,3.1935,3.1446,3.0274,2.832,0.0,0.0,0.0,0.0,0.0,0.0,0.0,0.0,0.0,0.0,0.0,0.0,0.0,0.0,0.0,0.0,0.0,0.0,0.0,0.0,0.0,0.0,0.0,0.0,0.0,0.0,0.0,0.0,0.0,4.0691,4.5613,0.0,0.0,0.0,0.0,4.0385,3.9997,4.1551,4.553,4.7098,4.937,5.2611,5.4232,5.5109,5.5197,5.5302,5.539,5.5425,5.5425,5.5729,5.6257,5.6257,5.6537,5.7015,5.704,5.7303,5.7491,5.4357,5.2534,5.138,4.7504,4.6099,4.5992,4.3926,4.4234,4.5681,4.5608,4.6249,4.7386,4.9207,4.7801,4.4923,4.2396,4.0487,0.0,0.0,4.0254,4.118,4.0546,4.214,4.3971,4.4176,4.4771,4.5014,4.3962,4.1905,4.0233,0.0,3.7075,3.4044,3.2997,0.0,3.1061,2.7886,3.0315,3.1998,3.0675,3.2976,3.4633,3.4308,3.3924,3.3694,3.3694,3.3694,3.3396,3.2599,3.2441,3.1763,3.0362,3.0891,3.0519,2.9082,2.9473,0.0,0.0,0.0,0.0,0.0,0.0,0.0,0.0,0.0,0.0,0.0,0.0,0.0,0.0,0.0,0.0,0.0,0.0,0.0,0.0,0.0,0.0,0.0,0.0,0.0,0.0,0.0,0.0,4.4453,4.8609,0.0,4.5272,4.5627,4.6047,4.5906,4.7269,4.9212,5.1757,5.2539,5.394,5.6087,5.6192,5.6353,5.6723,5.6244,5.6192,5.6519,5.6009,5.5863,5.6027,5.5523,5.539,5.557,5.5926,5.6182,5.6286,5.5533,5.5359,5.5359,5.3429,5.2383,5.1742,4.9804,4.9766,5.0479,4.9253,4.9685,5.0629,4.9789,4.7729,4.52,4.325,4.2287,4.1687,4.1089,4.1669,4.2411,4.2122,4.2683,4.3355,4.3504,4.3703,4.3792,4.3389,4.244,4.141,4.0622,3.7951,3.5413,3.4201,3.4238,3.374,3.1668,3.291,3.3902,3.3426,3.4498,3.4954,3.4016,3.408,3.405,3.3607,3.3335,3.3042,3.2645,3.2065,3.1307,3.0355,3.1214,3.126,3.0264,3.1655,3.0118,0.0,0.0,0.0,0.0,0.0,0.0,0.0,0.0,0.0,0.0,0.0,0.0,0.0,0.0,0.0,0.0,0.0,0.0,0.0,0.0,0.0,0.0,0.0,0.0,0.0,0.0,4.799,4.6724,5.1496,5.3415,4.9653,5.0482,5.1195,5.1024,5.2521,5.4,5.5299,5.6151,5.6869,5.755,5.7579,5.7484,5.7299,5.6797,5.6731,5.7098,5.6566,5.6266,5.614,5.5613,5.5161,5.4829,5.5474,5.5607,5.5389,5.6032,5.6617,5.7008,5.619,5.5522,5.474,5.2655,5.2373,5.2734,5.0855,5.0999,5.1635,4.9487,4.7901,4.6515,4.4854,4.4324,4.4068,4.2921,4.2938,4.3245,4.2973,4.2901,4.2938,4.3067,4.3067,4.2976,4.2778,4.188,4.0929,4.0238,3.8775,3.6881,3.4447,3.4491,3.4242,3.2457,3.2615,3.2932,3.2895,3.3799,3.3994,3.2868,3.3754,3.4128,3.3393,3.2544,3.199,3.1877,3.0863,3.0196,2.9974,2.9927,2.9679,2.9225,2.9997,2.9115,2.6501,0.0,0.0,0.0,0.0,0.0,0.0,0.0,0.0,0.0,0.0,0.0,0.0,0.0,0.0,0.0,0.0,0.0,0.0,0.0,0.0,0.0,0.0,0.0,3.883,4.6413,5.0833,4.7829,5.4651,5.8064,5.4171,5.5607,5.6448,5.5655,5.5356,5.545,5.5963,5.7712,5.8205,5.7181,5.8619,5.8699,5.7134,5.7123,5.7141,5.7166,5.7105,5.6958,5.6693,5.6657,5.6034,5.502,5.5856,5.5744,5.5039,5.5874,5.6227,5.6134,5.5354,5.5019,5.4684,5.2119,5.1693,5.2119,5.0186,4.9909,5.0162,4.8557,4.8539,4.8867,4.7243,4.6728,4.6357,4.4704,4.4192,4.3896,4.3118,4.2901,4.2938,4.3067,4.2994,4.274,4.214,4.0257,3.8873,3.9354,3.9569,3.8322,3.4134,3.3427,3.2643,3.0149,2.9524,0.0,2.9016,3.0884,3.1907,3.1093,3.2918,3.3901,3.3089,3.1382,3.0299,3.0236,2.8923,2.8426,2.9082,2.7079,2.6026,2.6182,2.4662,2.6082,3.0623,0.0,0.0,0.0,0.0,0.0,0.0,0.0,0.0,0.0,0.0,0.0,0.0,0.0,0.0,0.0,0.0,0.0,0.0,0.0,0.0,0.0,0.0,4.5937,4.6544,5.0199,5.3477,5.524,5.7947,5.9267,5.8262,5.8164,5.8066,5.7844,5.7932,5.8045,5.8225,5.8352,5.8256,5.7908,5.7771,5.7665,5.7593,5.7653,5.7882,5.8257,5.7666,5.7048,5.6397,5.5747,5.4976,5.4147,5.4388,5.4351,5.4166,5.4388,5.45,5.4593,5.5559,5.5479,5.4637,5.3475,5.275,5.2078,5.028,5.0046,5.0378,4.9354,4.8691,4.8028,4.6364,4.625,4.621,4.3937,4.3681,4.3896,4.3118,4.2901,4.2938,4.3067,4.3068,4.2831,4.2086,4.1434,4.0581,3.9182,3.8695,3.7978,3.6202,3.5413,3.4788,3.418,3.4083,0.0,3.3362,3.4384,3.4623,3.3217,3.2719,3.2725,3.3303,3.0553,2.9419,3.0844,2.9588,2.8909,2.9098,2.9368,3.0326,3.21,2.9068,2.8598,0.0,0.0,0.0,0.0,0.0,0.0,0.0,0.0,0.0,0.0,0.0,0.0,0.0,0.0,0.0,0.0,0.0,0.0,0.0,0.0,0.0,0.0,4.5898,4.999,5.252,5.4363,5.6232,5.8344,5.961,6.0209,5.9921,5.9497,5.9069,5.8735,5.8637,5.8713,5.8913,5.8725,5.8403,5.7938,5.8108,5.8028,5.7678,5.805,5.8385,5.8698,5.8234,5.7398,5.6283,5.5782,5.4723,0.0,5.3664,5.3608,5.333,5.3664,5.3813,0.0,0.0,0.0,0.0,0.0,5.28,5.1437,5.0438,5.0041,4.9827,4.8674,4.8158,4.7583,4.5595,4.5284,4.5152,4.2992,4.2484,4.2556,4.2429,4.2393,4.2502,4.2921,4.2758,4.2286,4.1488,4.0544,3.9533,3.8473,0.0,0.0,3.6225,3.5112,3.402,3.3477,3.3243,3.2986,3.2659,3.3908,3.4353,3.3107,3.3232,3.3528,3.3883,3.1307,0.0,0.0,0.0,2.8628,2.7753,2.8613,0.0,0.0,0.0,2.8589,3.084,0.0,0.0,0.0,3.0165,2.9481,0.0,0.0,0.0,0.0,0.0,0.0,0.0,0.0,0.0,0.0,0.0,0.0,0.0,0.0,0.0,0.0,4.8716,5.2043,5.6619,5.8029,5.8588,5.8609,5.9993,6.0611,5.9828,5.9775,5.9457,5.8754,5.8331,5.8305,5.8696,0.0,0.0,0.0,0.0,5.8939,5.7509,5.8308,5.8716,5.8716,5.8624,5.7769,5.6302,5.6209,5.4928,5.2791,5.3497,5.3404,5.2791,5.3515,5.3813,5.3794,5.3682,5.37,5.3719,5.3153,5.2009,5.0698,5.033,0.0,0.0,4.7315,4.7217,4.7318,4.4994,4.4191,4.3769,4.2248,4.1307,4.0926,4.165,4.1831,4.1976,4.2611,4.223,4.1451,4.0564,3.8663,3.722,3.7558,3.5403,3.3894,3.5027,3.3668,3.2046,3.0813,3.0141,2.9841,3.0052,3.191,3.2926,3.2254,0.0,0.0,3.4629,3.2734,3.1953,3.2774,3.0576,2.8457,2.6646,2.7037,2.6879,2.6046,2.6404,2.8169,3.1382,3.1862,3.2863,3.4266,3.1429,3.0809,0.0,0.0,0.0,0.0,0.0,0.0,0.0,0.0,0.0,0.0,0.0,0.0,0.0,0.0,0.0,4.8458,5.1686,5.4531,5.6756,5.7854,5.8502,5.8654,5.8974,5.9125,5.8958,5.8939,5.8884,5.8716,5.9208,5.9279,5.8714,5.8762,0.0,5.7546,5.7806,5.7806,5.7509,5.8308,5.8716,5.8698,0.0,0.0,5.6283,5.5674,5.4744,5.3571,5.3851,5.3814,5.359,5.3738,5.3813,5.3719,5.2898,5.3045,5.338,5.0506,5.0424,5.1351,4.8689,4.8366,4.8852,4.7232,4.6753,4.6434,4.4678,4.4115,0.0,4.2936,4.2556,4.2466,4.2629,4.2665,4.2538,4.2049,4.1813,4.1307,3.9912,3.8752,3.7812,3.7237,3.5633,3.444,3.4701,3.395,3.3492,3.3919,3.3919,3.4123,3.4843,3.5349,3.5452,3.504,3.386,3.363,3.4936,3.2491,3.1704,3.3562,3.2243,3.1391,3.1375,3.1402,3.2109,3.3558,3.3433,3.4258,3.6163,3.5056,3.499,3.5852,3.5246,3.4777,0.0,0.0,0.0,0.0,0.0,0.0,0.0,0.0,0.0,0.0,0.0,4.1364,4.3015,0.0,4.7352,5.0963,5.331,5.5399,5.7401,5.7759,5.7845,5.7934,5.8331,5.8447,5.8039,5.8415,5.8716,5.8716,5.9069,5.9125,5.8735,5.9088,5.8754,5.7546,5.8289,5.8308,5.7509,5.8308,5.8716,5.8698,5.7881,5.7082,5.6265,5.5469,5.4613,5.3794,5.387,5.3851,5.3813,5.3813,5.3813,5.3738,5.3253,5.3345,5.3475,5.1228,5.0831,5.1096,4.8922,4.8263,4.8127,4.6513,4.6219,4.6124,4.4095,4.3498,4.3317,4.252,4.2013,4.1796,4.2194,4.2303,4.2212,4.1795,4.1397,4.0673,3.9115,3.848,3.7955,3.7158,3.6182,3.5313,3.4761,3.3949,3.3596,3.4202,3.4713,3.5177,3.5676,3.6077,3.6237,3.6067,3.5059,3.4778,3.5774,3.4457,3.3807,3.4278,3.364,3.3078,3.2724,3.2877,3.3669,3.5079,3.5162,3.5749,3.6887,3.6128,3.5939,3.6301,3.6301,3.6318,0.0,0.0,0.0,0.0,0.0,0.0,0.0,3.8896,4.0219,4.2208,4.3348,4.4579,4.6492,4.7313,4.9067,5.3278,5.4494,5.571,5.7995,5.7626,5.7073,5.6907,5.7553,5.7844,5.7346,5.8004,5.8605,5.8921,5.8791,5.8846,5.9181,5.9645,5.9364,5.8252,5.9311,5.9271,5.7951,5.8454,5.8696,5.8635,5.7711,5.6913,5.6225,5.5243,5.4445,5.3813,5.3813,5.3813,5.3813,5.387,5.3907,5.3889,5.3963,5.3888,5.3609,5.2586,5.1634,5.0718,4.9571,4.849,4.7334,4.5882,4.5736,4.5754,4.3612,4.3013,4.2868,4.2214,4.1524,4.1107,4.1759,4.1813,4.165,4.1506,4.0854,3.9858,3.8282,3.7846,3.7449,3.6488,3.6101,3.558,3.4411,3.3771,3.3439,3.3474,3.4113,3.4682,3.4956,3.5628,3.6094,3.6094,3.6256,3.6423,3.6564,3.6544,3.6122,3.5112,3.4827,3.4322,3.3438,3.3676,3.4219,3.5074,3.5444,3.6008,3.6749,3.6456,3.6387,3.6525,3.6232,3.6508,3.279,3.0431,3.091,3.6123,3.7908,3.9566,0.0,4.6611,4.8125,4.8407,5.0266,5.1925,5.2255,5.2722,5.3684,5.5655,5.5817,5.6224,5.7804,5.7363,5.6591,5.5857,5.614,5.6605,5.7235,5.7503,5.8234,5.9664,5.9107,5.9367,6.0853,6.0277,6.0184,6.0778,6.0221,5.9767,5.9551,5.8969,5.8612,5.8418,5.7073,5.6316,5.6086,5.4743,5.4,5.3813,5.3813,5.3813,5.3813,5.4125,5.4246,5.4281,5.4576,5.4212,5.3392,5.2203,5.1506,5.0972,4.964,4.8304,4.702,4.6122,4.537,4.4619,4.3629,4.3336,4.3318,4.3226,4.2941,4.2647,4.2737,4.2248,4.1524,4.08,4.0075,3.9079,3.7484,3.6562,3.562,3.4099,3.4054,3.3874,3.2686,3.3472,3.3909,3.2875,3.2956,3.3401,3.413,3.4869,3.5318,3.5318,3.6125,3.6684,3.6768,3.6705,3.6568,3.6302,3.5778,3.5601,3.5895,3.5555,3.5912,3.7133,3.7232,3.7616,3.8336,3.6973,3.6663,3.734,3.5956,3.5714,3.5659,3.6053,3.7507,3.9505,4.2392,4.5295,4.7404,4.8934,5.0347,5.1841,5.2792,5.3546,5.4049,5.3741,5.4104,0.0,5.5822,5.5817,5.7423,5.6356,5.5097,5.4308,5.3158,5.295,5.4263,5.6216,5.7299,5.7062,5.8085,5.9014,5.972,5.9828,5.9645,5.9069,5.9162,5.8751,5.7782,5.7934,5.7707,5.7161,5.6577,5.6003,5.5444,5.4577,5.4248,5.438,5.438,5.438,5.438,5.4528,5.4289,5.3852,5.3989,5.3522,5.2683,5.213,5.1147,4.9946,4.883,4.7634,4.6499,4.5703,4.5188,4.4744,4.3929,4.3689,4.3689,4.3689,4.3457,4.3195,4.3195,4.245,4.1506,4.0691,3.9948,3.8952,3.7357,3.6741,3.629,3.5636,3.5634,3.5385,3.4211,3.4765,3.4844,3.3248,3.3703,3.4197,3.4113,3.5111,3.5856,3.5935,3.6411,3.6725,3.6788,3.6745,3.651,3.606,3.6017,3.5967,3.5847,3.5954,3.629,3.6907,3.6843,3.6939,3.7249,3.6611,3.6473,3.6784,3.6146,3.6008,3.7014,3.8992,4.1055,4.2507,4.564,4.8678,4.9843,5.0569,5.1505,5.3359,5.3535,5.3556,5.4145,5.3702,5.3973,5.6143,5.5882,5.5975,5.7652,5.6054,5.4365,5.347,5.1359,5.0194,5.0694,5.388,5.5958,5.6002,5.7431,5.8619,5.9367,5.972,5.9385,5.8215,5.8512,5.8027,5.6596,5.6969,5.6837,5.6183,5.602,5.5635,5.508,5.4637,5.4576,5.4791,5.4545,5.4432,5.4427,5.4273,5.386,5.329,5.3373,5.2753,5.1788,5.173,5.0752,4.9292,4.8234,4.7106,4.6031,4.5453,4.51,4.4802,4.4202,4.4035,4.4035,4.4035,4.3802,4.3487,4.3249,4.2351,4.1305,4.0471,3.9657,3.8698,3.7303,3.6995,3.6796,3.6143,3.6379,3.6317,3.5156,3.542,3.5418,3.4384,3.4601,3.4697,3.4182,3.5197,3.6139,3.6527,3.6643,3.6725,3.6788,3.6766,3.6394,3.5667,3.5899,3.5766,3.5141,3.5486,3.5739,3.5838,3.5739,3.5783,3.599,3.599,3.6094,3.6301,3.6301,3.6301,3.5878,3.6003,3.7196,4.4532,4.6462,4.7646,5.1754,5.2709,5.2747,5.2824,5.2824,5.283,5.285,5.3264,5.4114,5.5765,5.638,5.7245,5.8915,5.702,5.504,5.3926,5.1832,4.9501,0.0,5.0284,5.4214,5.8201,5.7772,5.8445,6.1001,6.0351,5.9887,5.9828,5.9107,5.8227,5.7288,5.665,5.6201,5.5918,5.531,5.5118,5.5265,5.495,5.4791,5.4754,5.3901,5.3541,5.3513,5.299,5.2748,5.2766,5.3086,5.2201,5.075,5.074,5.0337,4.9576,4.8245,4.6885,4.5712,4.5693,4.5097,4.4421,4.4402,4.4383,4.4383,4.4383,4.4154,4.3679,4.2841,4.182,4.0802,3.9937,3.8957,3.8009,3.7176,3.6995,3.6306,3.3954,3.4769,3.5471,3.4316,3.4584,3.5311,3.6431,3.5194,3.413,3.4113,3.4749,3.5607,3.6594,3.6702,3.6725,3.6788,3.6809,3.6397,3.5469,3.5431,3.5042,3.4165,3.4165,3.4182,3.4182,3.4182,3.4527,3.5232,3.5232,3.5594,3.6301,3.6301,3.6301,3.5452,3.8742,4.2507,4.5067,4.7818,4.9958,5.0264,5.12,5.1697,5.0581,4.9003,4.799,4.8525,4.8365,4.9234,5.2539,5.3514,5.5003,5.832,5.5508,5.3367,5.4045,5.1625,0.0,0.0,0.0,0.0,5.3087,5.5454,5.7089,5.7656,5.7995,5.7684,5.6607,5.6494,5.607,5.5249,5.5731,5.5668,5.5086,5.4942,5.5019,5.5284,5.458,5.4377,5.4551,5.369,5.3307,5.3288,5.3111,5.2691,5.2116,5.1661,5.0788,4.9702,4.8529,4.7899,4.7552,4.7089,4.6164,4.5167,4.5167,4.4978,4.472,4.472,4.472,4.472,4.472,4.4068,4.3314,4.3048,4.1698,4.029,3.9882,3.869,3.7557,3.7098,3.6146,3.5331,3.5059,3.4989,3.4914,3.4622,3.4752,3.4922,3.4972,3.4898,3.4818,3.4818,3.5042,3.5552,3.6474,3.6643,3.6725,3.6788,3.6809,3.6477,3.5708,3.5496,3.5089,3.4387,3.4194,3.4116,3.4177,3.4116,3.4234,3.4476,3.4956,3.5318,3.5576,3.6077,3.6301,3.831,4.2221,4.608,4.76,4.9576,5.0932,5.0168,5.0359,5.0397,4.932,4.7302,4.5698,4.5621,4.5462,4.6332,4.9289,5.0576,5.2772,5.7258,5.488,5.3255,5.4802,5.2763,5.1651,0.0,0.0,0.0,5.1431,5.3871,5.5545,5.5882,5.6181,5.6126,5.5697,5.5545,5.5108,5.4352,5.5044,5.5155,5.47,5.488,5.4925,5.4823,5.4374,5.3966,5.3549,5.2991,5.2568,5.2318,5.2318,5.1972,5.1385,5.0499,4.9644,4.875,4.73,4.6472,4.6071,4.6071,4.5555,4.4895,4.4895,4.4895,4.4895,4.4895,4.4895,4.4895,4.4895,4.4335,4.3614,4.3024,4.1836,4.0504,3.9346,3.8217,3.7256,3.6697,3.5765,3.5098,3.5315,3.4953,3.4634,3.4779,3.4916,3.4659,3.3603,3.4226,3.48,3.48,3.5025,3.5428,3.6052,3.6408,3.6664,3.6748,3.6788,3.6479,3.5749,3.5277,3.4731,3.4043,3.3538,3.3304,3.3327,3.3304,3.3423,3.3662,3.4145,3.4525,3.4818,3.5283,3.5508,4.356,4.5785,4.7551,5.1601,5.141,5.0436,5.1226,5.0187,4.8957,4.8708,4.7226,4.5488,4.3796,4.4246,4.5211,4.6271,4.7944,5.0849,5.588,5.5167,5.4638,0.0,0.0,0.0,0.0,0.0,0.0,5.3296,0.0,5.4094,5.5799,5.5139,5.5406,5.6918,5.6163,5.5387,5.4629,5.4645,5.4673,5.4746,5.5138,5.4874,5.4033,5.4318,5.351,5.1904,5.1808,5.1337,5.0625,5.0587,5.0567,5.0462,4.9528,4.8712,4.7914,4.6983,4.6078,4.5307,4.5297,4.5125,4.4895,4.4895,4.4895,4.4895,4.4895,4.4895,4.4895,4.4895,4.4838,4.4378,4.2721,4.2084,4.1209,3.8515,3.7608,3.7069,3.6041,3.5747,3.5442,3.4682,3.4534,3.4579,3.4688,3.4923,3.4443,3.258,3.3253,3.401,3.4044,3.47,3.5186,3.5324,3.6,3.6492,3.6612,3.6731,3.6437,3.5625,3.4842,3.4019,3.3214,3.2305,3.18,3.1818,3.1818,3.2163,3.2871,3.2886,3.3302,3.4044,3.4096,3.4096,4.147,4.4538,4.7876,4.9614,4.971,4.9289,4.8858,4.8449,4.7073,4.3329,4.0683,3.8544,3.6852,3.7785,4.0318,4.4868,4.7608,5.0921,5.5893,5.5242,5.4802,5.6311,5.6237,5.6167,5.6496,5.5969,0.0,0.0,5.5208,5.5479,5.5599,5.6047,5.5932,5.5103,5.5073,5.4989,5.4893,5.5157,5.5295,5.5369,5.552,5.5174,5.4348,5.3787,5.2933,5.1827,5.0587,4.9894,4.9615,4.9019,4.8721,4.8604,4.7642,4.7192,4.6944,4.6061,4.555,4.5297,4.5235,4.5091,4.4895,4.4895,4.4895,4.4895,4.4895,4.4895,4.4895,4.4895,4.3932,4.2805,4.2461,4.1338,4.007,3.9258,3.7938,3.6744,3.6219,3.5005,3.3954,3.3755,3.3789,3.38,3.3575,3.347,3.3162,3.2405,3.2349,3.2576,3.3128,3.3886,3.4389,3.4429,3.518,3.5694,3.5794,3.6417,3.6761,3.6628,3.5215,3.4321,3.4149,3.2621,3.1873,3.2019,3.1929,3.2015,3.2314,3.2795,3.3176,3.3442,3.3878,3.4135,4.5277,4.7558,4.9745,5.0136,4.9693,4.8611,4.6552,4.5519,4.3774,3.9481,3.7144,3.5492,3.42,3.5327,3.8047,4.2851,4.5778,4.9201,5.4231,5.451,5.4943,5.6925,5.7187,5.7697,5.8893,5.8211,5.7518,0.0,5.5611,5.4952,5.5432,5.5257,5.5215,5.5352,5.5166,5.5094,5.5176,5.5395,5.5366,5.5078,5.5508,5.4876,5.3356,5.326,5.2106,5.0192,0.0,4.8923,4.8202,4.8106,4.8019,4.7912,4.6969,4.6635,4.6598,4.5685,4.5328,4.5286,4.5192,4.5049,4.4931,4.4907,4.4895,4.4895,4.4895,4.4895,4.4895,4.4895,4.3918,4.2803,4.2484,4.1389,4.003,3.8717,3.7628,3.6572,3.5386,3.4324,3.3549,3.3466,3.352,3.3563,3.3401,3.3172,3.2908,3.2569,3.2231,3.2121,3.2388,3.3093,3.3559,3.3559,3.4619,3.5359,3.5481,3.6272,3.6829,3.6987,3.5729,3.4988,3.5028,3.3319,3.243,3.254,3.2121,3.1948,3.2002,3.2453,3.268,3.2735,3.3058,3.3211,5.0615,5.1419,5.148,5.1429,5.0139,4.8056,4.4847,4.2647,4.0272,3.6811,3.5297,3.4423,3.3827,3.5223,3.7709,4.1552,4.406,4.7198,5.1983,5.3569,5.5097,5.7313,5.7753,5.8555,6.025,5.9415,5.8861,5.9076,5.5549,5.4025,5.5485,5.4178,5.4325,5.639,5.5753,5.5377,5.5408,5.5456,5.5125,5.4405,5.5267,5.4346,5.1913,5.2778,5.1375,4.827,0.0,0.0,4.681,4.7404,4.7652,4.7566,4.6748,4.6471,4.6425,4.5606,4.5307,4.5286,4.5148,4.5049,4.4991,4.4919,4.4819,4.475,4.4857,4.4819,4.475,4.4864,4.422,4.3348,4.2579,4.1688,4.0367,3.7826,3.7156,3.6517,3.4452,3.3862,3.3698,3.3534,3.3549,3.3633,3.3684,3.3484,3.3184,3.2842,3.2503,3.2179,3.1838,3.2352,3.2748,3.2748,3.4128,3.5143,3.5342,3.618,3.6786,3.6987,3.6171,3.5692,3.5712,3.4038,3.3127,3.3164,3.2348,3.1966,3.1966,3.2073,3.2108,3.2126,3.2108,3.2037,4.8183,4.8392,4.9009,4.9698,4.8572,4.6945,4.562,4.2853,3.9418,3.5335,3.3146,3.2132,3.2714,3.5321,3.9185,4.4726,4.6546,4.8342,5.1379,5.376,5.5345,5.5785,5.7065,5.8555,6.025,5.8364,0.0,0.0,0.0,5.6097,5.6371,5.6116,5.5855,5.5613,5.537,5.5281,5.5395,5.542,5.5078,5.4405,5.5223,5.4282,5.1842,5.2726,5.161,4.8988,4.8519,0.0,4.6586,4.6069,4.5819,4.5748,4.5585,4.5528,4.5519,4.5364,4.5307,4.5286,4.5148,4.5103,4.5049,4.4931,4.4416,4.3963,4.4674,4.4385,4.395,4.4619,4.3723,4.2513,4.2368,4.1196,3.9769,3.8674,3.7683,3.6677,3.5392,3.4247,3.3481,3.3509,3.3549,3.3633,3.3684,3.3484,3.3184,3.2842,3.2503,3.2179,3.1838,3.1903,3.199,3.199,3.3352,3.4365,3.4559,3.5884,3.6786,3.6987,3.6171,3.5731,3.5791,3.4097,3.3259,3.3439,3.2598,3.2197,3.2319,3.2232,3.2249,3.2336,3.2179,3.2108,4.7181,4.7818,4.9158,4.9475,4.8234,4.6009,4.2402,3.9626,3.6358,3.125,2.9768,2.9787,3.1111,3.3665,3.7386,4.2938,4.522,4.7681,5.1617,5.3614,5.5173,5.6549,5.7409,5.8211,5.9014,5.7982,5.7223,0.0,0.0,5.6167,5.6568,5.6141,5.5727,5.5409,5.5261,5.5249,5.5395,5.5408,5.5054,5.435,5.4745,5.3827,5.1813,5.2223,5.1022,4.8595,4.8181,0.0,4.5292,4.5329,4.506,4.4666,4.5125,4.5307,4.5307,4.5307,4.5307,4.5286,4.5148,4.5103,4.5004,4.4469,4.4277,4.4271,4.4277,4.4283,4.4271,4.424,4.3312,4.2347,4.2347,4.1105,3.9545,3.8319,3.6749,3.5389,3.4896,3.405,3.3422,3.3534,3.3577,3.3629,3.3739,3.3652,3.3394,3.2874,3.2668,3.2386,3.1856,3.18,3.18,3.18,3.28,3.3742,3.4352,3.5431,3.6349,3.6952,3.6597,3.6192,3.581,3.4556,3.3751,3.3457,3.2634,3.2214,3.2301,3.2055,3.1966,3.202,3.164,3.162,4.7591,4.8519,4.9864,4.9709,4.8345,4.5576,3.9857,3.7102,3.4164,2.8594,2.7706,2.8542,3.061,3.2648,3.5704,4.0821,4.2949,4.5871,5.1389,5.2755,5.4365,5.7542,5.7905,0.0,5.8402,5.7758,0.0,0.0,0.0,0.0,5.6268,5.542,5.5063,5.5358,5.5063,5.5084,5.5402,5.5211,5.4738,5.4005,5.3997,5.3141,5.1556,5.1529,5.0263,4.8087,4.7757,0.0,0.0,4.4954,4.4781,4.4093,4.4985,4.533,4.536,4.539,4.539,4.539,4.5272,4.5231,4.5074,4.4292,4.4177,4.4239,4.3613,4.3727,4.398,4.3526,4.2799,4.2136,4.2124,4.1026,3.9483,3.7788,3.581,3.4269,3.4209,3.3847,3.352,3.3591,3.3619,3.3657,3.378,3.3807,3.3592,3.3001,3.2842,3.2586,3.1984,3.1838,3.18,3.18,3.2455,3.3239,3.4074,3.4822,3.5617,3.6443,3.6515,3.6215,3.5601,3.4911,3.4154,3.3312,3.2666,3.2229,3.1966,3.1694,3.1565,3.1565,3.1131,3.1128,5.0178,5.0314,4.9901,4.987,4.8563,4.6116,4.1718,3.8705,3.5597,3.1146,2.955,2.9904,3.2984,3.4373,3.6693,4.1679,4.1411,4.2859,4.9494,5.0536,5.245,5.7332,5.7905,0.0,6.0021,5.7368,0.0,0.0,0.0,0.0,5.5273,5.4501,5.4387,5.5197,5.4444,5.4451,5.5384,5.4613,5.3816,5.3034,5.3027,5.2239,5.0798,5.0607,4.9648,4.8048,4.7116,0.0,0.0,4.4934,4.4781,4.4103,4.5092,4.5491,4.5509,4.5607,4.5708,4.5749,4.5667,4.5611,4.5502,4.5246,4.3969,4.2532,4.2522,4.2018,4.1593,4.2243,4.1881,4.1291,4.1252,4.0556,3.9483,3.7788,3.5947,3.4495,3.4257,3.4023,3.3788,3.3629,3.3643,3.3712,3.3793,3.3807,3.368,3.3321,3.2983,3.2668,3.2301,3.2001,3.18,3.18,3.2455,3.2997,3.329,3.4041,3.4622,3.4898,3.4917,3.4863,3.4793,3.4723,3.4118,3.2981,3.2876,3.2307,3.1201,3.1181,3.1162,3.1145,3.1086,3.1103,4.5702,4.7824,4.9906,4.9906,4.8197,4.54,4.1172,3.8209,3.5123,3.083,2.9959,3.0544,3.2312,3.3718,3.5547,3.84,3.8746,4.0816,4.6991,4.7983,5.0314,5.6338,5.669,5.6888,0.0,0.0,0.0,0.0,0.0,0.0,5.3897,5.4371,5.4844,5.5307,5.444,5.3983,5.4009,5.3161,5.2335,5.1578,5.1087,5.0566,5.0008,4.9409,4.854,4.7473,4.7025,0.0,0.0,4.4991,4.4732,4.3654,4.5063,4.5615,4.5623,4.5729,4.579,4.577,4.5677,4.5621,4.5488,4.4844,4.3742,4.2629,4.2443,4.2162,4.1847,4.1684,4.1442,4.1188,4.1166,4.0173,3.8869,3.7675,3.6346,3.5109,3.435,3.4049,3.3829,3.3629,3.3643,3.3726,3.3793,3.3807,3.3694,3.335,3.2999,3.2684,3.2352,3.2002,3.18,3.18,3.2059,3.2514,3.3152,3.3482,3.3976,3.467,3.4706,3.4495,3.4004,3.3986,3.3419,3.2198,3.2179,3.1817,3.1103,3.0865,3.0744,3.0744,3.041,3.0431,4.3363,4.678,5.027,5.027,4.7745,4.4278,4.0559,3.7323,3.4059,3.0278,3.0118,3.0971,3.2029,3.3137,3.4477,3.6238,3.7237,3.9642,4.4972,4.605,4.8592,5.4788,0.0,5.5032,0.0,5.5128,0.0,0.0,0.0,0.0,0.0,5.3641,5.4211,5.4364,5.3498,5.2831,5.2396,5.1538,5.0856,5.0319,4.9506,4.9042,4.8878,4.821,4.7504,4.6778,0.0,0.0,0.0,4.5123,4.4852,4.3737,4.5209,4.579,4.5796,4.5896,4.5911,4.5897,4.5814,4.5776,4.5661,4.4904,4.3917,4.2945,4.2658,4.2178,4.1589,4.1019,4.0854,4.0809,4.0809,3.957,3.8159,3.7552,3.6445,3.5302,3.4486,3.4173,3.3985,3.3766,3.3726,3.3739,3.3775,3.3807,3.3721,3.348,3.3078,3.2699,3.2487,3.2073,3.18,3.18,3.1837,3.21,3.2821,3.2874,3.3191,3.3968,3.4003,3.3757,3.3213,3.3371,3.2875,3.1545,3.1751,3.1502,3.0744,3.0472,3.0326,3.0305,2.993,2.993,4.5386,4.8572,5.1183,5.1183,4.7337,4.2855,4.0287,3.639,3.261,3.0022,3.018,3.129,3.2885,3.3199,3.3998,3.6412,3.7463,3.9482,4.3713,4.5073,4.7512,0.0,5.2473,5.3292,5.6762,0.0,0.0,0.0,0.0,0.0,0.0,5.1962,5.1943,5.1943,5.114,5.0722,5.0733,4.9931,4.9498,4.9397,4.861,4.7869,4.7216,4.7073,4.6642,0.0,0.0,0.0,0.0,4.5362,4.5226,4.4582,4.5603,4.5997,4.6012,4.6146,4.62,4.6201,4.619,4.6196,4.6158,4.5867,4.4608,4.3166,4.3049,4.1654,4.012,4.012,4.0019,3.9919,3.9919,3.8679,3.742,3.7401,3.6121,3.485,3.4636,3.4495,3.4316,3.4049,3.3881,3.3807,3.3807,3.3807,3.3807,3.3807,3.3229,3.2795,3.2795,3.2197,3.18,3.18,3.1857,3.1966,3.2108,3.2108,3.2214,3.2406,3.2423,3.2423,3.2406,3.3108,3.2747,3.114,3.189,3.15,2.9902,2.9918,2.9918,2.9918,2.9896,2.983,3.9478,4.2084,4.4224,4.4224,4.211,3.9493,3.7548,3.5126,3.2758,3.0784,3.1086,3.2018,3.3077,3.3761,3.4943,3.736,3.8476,4.0268,4.3798,4.6143,4.8937,5.2752,5.3976,5.4255,0.0,0.0,0.0,0.0,0.0,0.0,0.0,5.0009,5.0123,5.1052,5.0297,4.9649,4.9127,4.8278,4.7629,4.7138,4.6896,4.6351,4.559,4.6183,0.0,0.0,0.0,0.0,0.0,4.5686,4.5531,4.4859,4.5776,4.6142,4.615,4.6234,4.6272,4.6177,4.5526,4.5287,4.5138,4.4453,4.343,4.2441,4.2409,4.1412,4.0295,4.0186,4.0049,3.99,3.99,3.9096,3.814,3.7552,3.6557,3.553,3.4596,3.4404,3.4281,3.3868,3.3807,3.3807,3.3807,3.3807,3.3807,3.3807,3.3419,3.3063,3.2827,3.242,3.2055,3.1837,3.1857,3.1966,3.209,3.2144,3.2232,3.2388,3.2406,3.2406,3.2406,3.2616,3.2352,3.1545,3.148,3.11,3.0305,3.0038,2.9896,2.9896,2.9896,2.983,3.5665,3.8564,4.0995,4.0995,3.8976,3.6786,3.6064,3.3812,3.1657,3.0939,3.1726,3.2703,3.3201,3.4278,3.559,3.7082,3.8863,4.078,4.2776,4.5368,0.0,5.0237,0.0,0.0,0.0,0.0,0.0,0.0,0.0,0.0,0.0,4.8467,4.8444,4.8938,4.8799,4.8322,4.7539,4.6981,4.6505,4.6095,4.6137,4.5682,4.4865,4.5776,0.0,0.0,0.0,0.0,0.0,4.5985,4.5887,4.5439,4.5985,4.6206,4.617,4.588,4.577,4.5631,4.4724,4.4361,4.4222,4.369,4.2886,4.2081,4.1754,4.1067,4.0381,4.0242,4.007,3.9824,3.9532,3.8831,3.8007,3.7154,3.631,3.5483,3.4641,3.4409,3.4293,3.3921,3.3815,3.3807,3.3807,3.3807,3.3807,3.3807,3.3422,3.3047,3.2827,3.2403,3.202,3.1837,3.1911,3.2002,3.209,3.2161,3.2267,3.2388,3.2406,3.2406,3.2406,3.2406,3.2108,3.1488,3.124,3.0825,3.0262,3.0017,3.0026,3.0263,3.001,2.9998,0.0,3.724,4.026,4.026,3.7331,3.4633,3.5441,3.2589,0.0,3.0884,3.2319,3.3426,3.3549,3.4908,3.6021,3.6156,3.8932,4.1108,4.117,4.3536,0.0,0.0,4.9298,0.0,0.0,0.0,0.0,0.0,0.0,0.0,0.0,4.7305,4.6931,4.6139,4.6885,4.6917,4.6117,4.6098,4.6035,4.5918,4.6119,4.5683,4.4744,4.574,0.0,0.0,0.0,0.0,0.0,4.6199,4.616,4.6102,4.6102,4.6069,4.5916,4.5109,4.4804,4.4685,4.3812,4.3463,4.3385,4.3253,4.2713,4.1936,4.0999,4.0527,4.0301,4.025,4.0032,3.9656,3.8898,3.8045,3.7211,3.6396,3.5533,3.487,3.4728,3.4539,3.434,3.4148,3.3934,3.3807,3.3807,3.3807,3.3807,3.3807,3.3258,3.2827,3.2795,3.2249,3.1837,3.18,3.1965,3.209,3.209,3.2161,3.2267,3.2388,3.2406,3.2406,3.2406,3.2406,3.2001,3.1162,3.1083,3.0679,2.9896,2.9896,3.0214,3.0807,3.0204,3.0214,3.1712,0.0,3.3198,3.3192,3.2948,3.2742,0.0,3.272,3.2727,3.3549,3.401,3.4691,3.6038,3.657,3.7247,3.8592,4.0595,4.2213,4.2825,4.6829,0.0,4.8229,5.1067,5.1738,0.0,0.0,0.0,0.0,0.0,0.0,0.0,4.6722,4.6313,4.612,4.634,4.6352,4.6098,4.6098,4.5423,4.4121,4.5527,4.5052,4.2992,4.5188,0.0,0.0,0.0,0.0,4.6199,4.6199,4.5809,4.5209,4.5214,4.4835,4.4253,4.4062,4.3986,4.386,4.2985,4.264,4.2354,4.097,4.078,4.0842,3.9364,3.9245,3.9746,4.0223,3.9752,3.908,3.8788,3.8045,3.7211,3.6396,3.5533,3.486,3.4723,3.4553,3.4351,3.4209,3.3972,3.3807,3.3807,3.3807,3.3807,3.3807,3.3451,3.3093,3.2827,3.2453,3.2091,3.1837,3.1965,3.209,3.209,3.2267,3.2371,3.2406,3.2406,3.2406,3.2406,3.2406,3.2126,3.1565,3.0948,3.0389,2.9896,2.9896,2.9977,3.0139,2.9961,2.9977,3.2129,3.1992,3.2184,3.2959,3.2925,3.2908,3.3679,3.3607,3.3626,3.4425,3.4928,3.5489,3.6437,3.7235,3.8029,3.8964,4.0575,4.2264,0.0,0.0,4.8088,4.7568,4.9114,0.0,0.0,0.0,0.0,0.0,0.0,0.0,0.0,4.6338,4.6099,4.6095,4.6169,4.6181,4.6149,4.6149,4.5274,4.3572,4.5352,4.5048,4.2969,4.4786,4.5342,0.0,0.0,0.0,4.4988,4.4608,4.439,4.4309,4.4348,4.4063,4.3607,4.3242,4.3103,4.2988,4.2105,4.1481,4.0902,3.9917,3.9616,3.9552,3.9088,3.8932,3.9071,3.9682,3.9122,3.8317,3.8153,3.7476,3.6642,3.5799,3.5268,3.4908,3.4743,3.4575,3.4404,3.4233,3.3985,3.3807,3.3807,3.3807,3.3807,3.3807,3.3375,3.3016,3.2811,3.2369,3.202,3.1857,3.2001,3.2108,3.2144,3.2301,3.2406,3.2406,3.2406,3.2406,3.2406,3.2179,3.1785,3.1147,3.0539,3.0124,2.9896,2.9896,3.0058,3.036,3.036,3.0405,3.3397,3.369,3.4255,3.5419,3.4739,3.4157,3.5574,3.4798,3.4055,3.4995,3.5765,3.632,3.6453,3.7897,3.9006,3.884,4.0365,0.0,4.5047,4.5507,4.575,4.6236,4.6747,0.0,0.0,0.0,0.0,0.0,0.0,0.0,0.0,4.6105,4.6095,4.6102,4.6162,4.6193,4.6193,4.6193,4.532,4.3617,4.5222,4.5085,4.3422,4.4306,4.4699,0.0,0.0,0.0,4.3543,4.286,4.2919,4.3416,4.3478,4.3383,4.3131,4.2451,4.219,4.2109,4.1365,4.0363,3.941,3.9421,3.8923,3.8409,3.8947,3.8669,3.8287,3.8703,3.8292,3.7665,3.7319,3.6738,3.5979,3.5126,3.4955,3.4955,3.4821,3.4628,3.4461,3.4274,3.3992,3.3807,3.3807,3.3807,3.3807,3.3807,3.3273,3.2858,3.2795,3.2249,3.1893,3.1894,3.202,3.2126,3.2197,3.2319,3.2406,3.2406,3.2406,3.2406,3.2406,3.1894,3.13,3.0605,3.0146,2.9896,2.9896,2.9896,3.0231,3.0904,3.0904,3.1014,3.3397,3.4976,3.6315,3.5096,3.516,3.5574,3.5836,3.5705,3.5964,3.7566,3.7955,3.824,3.8978,4.0497,4.141,4.0715,0.0,4.5136,0.0,0.0,4.8637,4.734,0.0,0.0,0.0,0.0,0.0,0.0,0.0,0.0,0.0,4.6099,4.6122,4.6181,4.6185,4.6192,4.6192,4.6192,4.5331,4.3603,4.4614,4.4182,4.2532,4.3403,4.3796,0.0,0.0,4.3484,4.3582,4.3464,4.3081,4.2593,4.2595,4.2149,4.1462,4.1349,4.1303,4.129,4.1159,4.0004,3.859,3.8583,3.8486,3.8134,3.6807,3.6811,3.7268,3.7187,3.7513,3.7682,3.6776,3.6378,3.5989,3.5173,3.4992,3.502,3.512,3.4791,3.4487,3.4472,3.4099,3.3807,3.3807,3.3807,3.3807,3.3807,3.3465,3.3124,3.2827,3.247,3.2144,3.193,3.202,3.2126,3.2197,3.2319,3.2406,3.2406,3.2406,3.2406,3.2406,3.1618,3.1125,3.1024,3.0279,2.9896,2.9896,2.9896,3.0231,3.0904,3.0904,3.1267,3.3261,3.4567,3.6064,3.7147,3.7364,3.8032,4.0831,3.9315,3.8068,4.0711,3.9767,3.8845,4.0153,4.1789,4.3444,4.497,0.0,4.7868,4.8602,4.82,4.7738,0.0,0.0,0.0,0.0,0.0,0.0,0.0,0.0,0.0,0.0,0.0,4.613,4.6204,4.6192,4.5978,4.5499,4.5491,4.4614,4.2909,4.3785,4.3298,4.1682,4.2519,4.2893,4.2841,0.0,4.1809,4.2202,4.1738,4.1602,4.171,4.17,4.1445,4.1034,4.0566,4.0404,4.0321,3.9867,3.8812,3.7699,3.7743,3.7409,3.693,3.6602,3.6781,3.7072,3.6983,3.6766,3.6529,3.6427,3.5949,3.542,3.5087,3.502,3.5084,3.5183,3.484,3.4494,3.4497,3.4123,3.3807,3.3807,3.3807,3.3807,3.3807,3.3508,3.3169,3.2842,3.2536,3.2283,3.2037,3.209,3.2214,3.2301,3.2354,3.2406,3.2406,3.2406,3.2301,3.2037,3.1432,3.1004,3.0767,3.021,2.9896,2.9896,3.0247,3.0603,3.0904,3.1378,3.1781,3.291,3.3826,3.5343,3.8422,3.8694,3.9591,4.4991,4.2202,3.9649,4.3679,4.1945,4.0146,4.1639,4.2831,4.4607,4.7661,4.9039,4.9663,4.9595,0.0,0.0,0.0,0.0,0.0,0.0,0.0,0.0,0.0,0.0,0.0,0.0,0.0,4.6138,4.6196,4.6199,4.5779,4.4904,4.4708,4.3932,4.2604,4.3077,4.2613,4.14,4.1815,4.201,4.1945,4.0659,4.0484,4.1052,4.0382,4.0496,4.11,4.1096,4.1108,4.101,4.0351,3.9844,3.9435,3.8967,3.7942,3.6878,3.7118,3.6572,3.5959,3.6608,3.6794,3.6809,3.6809,3.6121,3.5525,3.6024,3.5547,3.4927,3.5001,3.5066,3.5129,3.5181,3.4822,3.4508,3.4508,3.4123,3.3807,3.3807,3.3807,3.3807,3.3807,3.3578,3.3291,3.2892,3.2668,3.2437,3.2161,3.2161,3.2249,3.2388,3.2406,3.2406,3.2406,3.2406,3.2249,3.1876,3.1374,3.0965,3.0642,3.0151,2.9896,2.9896,3.0409,3.0823,3.1163,3.183,3.2331,3.217,3.3378,3.5051,3.6921,3.7331,3.885,4.4835,4.2202,4.0156,4.6001,4.5094,4.3529,4.4458,4.4055,4.4191,4.6,4.7708,4.9605,0.0,0.0,0.0,0.0,0.0,0.0,0.0,0.0,0.0,0.0,0.0,0.0,0.0,0.0,0.0,4.6196,4.6199,4.5779,4.4904,4.4101,4.3633,4.3502,4.2742,4.2321,4.2198,4.1445,4.1133,4.1185,4.1049,4.1029,4.1091,4.1025,4.1047,4.1095,4.1111,4.1098,4.1088,4.1029,3.998,3.8694,3.9454,3.8104,3.6209,3.6952,3.6615,3.5894,3.5887,3.5893,3.5892,3.5892,3.5651,3.5417,3.5462,3.5182,3.4936,3.5066,3.5092,3.5119,3.5185,3.4832,3.4508,3.4508,3.4123,3.3807,3.3807,3.3807,3.3807,3.3807,3.3793,3.3583,3.3052,3.2959,3.2752,3.2249,3.2197,3.2249,3.2388,3.2406,3.2406,3.2406,3.2406,3.2371,3.2354,3.1562,3.1083,3.1064,3.03,2.9896,2.9896,2.9945,3.0658,3.1931,3.1979,3.2708,3.0336,3.2129,3.4528,3.7311,3.7603,3.8928,4.5514,4.4247,4.3231,4.8729,4.74,4.4981,4.4224,4.5994,4.7622,4.7751,4.9666,5.1468,0.0,0.0,0.0,0.0,0.0,0.0,0.0,0.0,0.0,0.0,0.0,0.0,0.0,0.0,0.0,4.6196,4.5659,4.4962,4.4106,4.268,4.1979,4.198,4.1649,4.1485,4.1484,4.1155,4.1045,4.1107,4.1107,4.1097,4.1106,4.1098,4.11,4.1056,4.0505,3.995,3.9415,3.887,3.8266,3.7662,3.7448,3.674,3.599,3.6298,3.6164,3.5894,3.5869,3.5864,3.5853,3.5803,3.5612,3.5398,3.5398,3.5176,3.4992,3.5075,3.5138,3.5172,3.5193,3.4832,3.4508,3.4508,3.4123,3.3807,3.3807,3.3807,3.3807,3.3807,3.3684,3.3459,3.3037,3.2896,3.2654,3.2249,3.2267,3.2354,3.2406,3.2406,3.2406,3.2406,3.2406,3.2406,3.2406,3.1803,3.1357,3.1103,3.0576,3.0151,2.9896,3.0697,3.1408,3.2012,3.2504,3.3234,2.9675,3.1224,3.3336,3.6473,3.6824,3.8266,4.5455,4.528,4.514,5.0599,4.9625,4.7209,4.5202,4.7014,0.0,0.0,4.9496,0.0,0.0,0.0,0.0,0.0,0.0,0.0,0.0,0.0,0.0,0.0,0.0,0.0,0.0,0.0,0.0,0.0,4.4802,4.4063,4.3206,4.2018,4.1275,4.0996,4.0731,4.0742,4.1016,4.0723,4.0632,4.0659,4.0409,4.0435,4.07,4.0686,4.0686,4.0608,3.9733,3.9026,3.8422,3.7837,3.7448,3.7116,3.6518,3.6138,3.5934,3.5929,3.5756,3.558,3.5825,3.5704,3.5544,3.5768,3.5629,3.5341,3.5085,3.5009,3.502,3.5101,3.5174,3.5189,3.5193,3.4832,3.4508,3.4508,3.4123,3.3807,3.3807,3.3807,3.382,3.3815,3.3629,3.339,3.3099,3.2846,3.2588,3.2284,3.2354,3.2406,3.2406,3.2406,3.2406,3.2406,3.2406,3.2406,3.2406,3.1948,3.1509,3.1103,3.0686,3.0305,2.9896,3.1043,3.1715,3.2028,3.2828,3.3527,3.0568,3.0817,3.1447,3.3982,3.4645,3.6671,4.4426,4.4851,4.5315,5.1339,5.1885,5.0502,4.7933,4.6803,0.0,4.503,0.0,0.0,0.0,0.0,0.0,0.0,0.0,0.0,0.0,0.0,0.0,0.0,0.0,0.0,0.0,0.0,0.0,0.0,4.3582,4.3166,4.2275,4.225,4.1811,4.0957,4.0084,4.0159,4.1049,4.012,3.9711,3.9747,3.887,3.8987,3.9786,3.9783,3.9772,3.9691,3.8817,3.848,3.848,3.848,3.7935,3.7197,3.7191,3.6677,3.6007,3.5997,3.5428,3.4854,3.5654,3.5285,3.4786,3.5626,3.5621,3.5193,3.4398,3.4584,3.501,3.5145,3.5181,3.5198,3.5201,3.4832,3.4508,3.4489,3.4123,3.3807,3.3807,3.3807,3.3815,3.3881,3.3671,3.3433,3.322,3.291,3.2621,3.2422,3.2406,3.2406,3.2406,3.2406,3.2406,3.2406,3.2406,3.2406,3.2406,3.1948,3.1509,3.1103,3.0723,3.0305,2.9896,3.0721,3.1414,3.2012,3.2828,3.3527,3.1401,3.2089,3.3169,3.5722,3.7786,4.0081,4.3572,4.4457,4.5696,4.9906,5.0573,4.923,4.5458,4.7509,0.0,0.0,0.0,0.0,0.0,0.0,0.0,0.0,0.0,0.0,0.0,0.0,0.0,0.0,0.0,0.0,0.0,0.0,0.0,0.0,4.2091,4.1346,4.0483,3.8689,3.7985,3.831,3.7442,3.8104,4.0101,3.9237,3.8879,3.8863,3.861,3.8653,3.889,3.8887,3.8519,3.7943,3.7684,3.7214,3.6668,3.6668,3.6518,3.6294,3.6297,3.6157,3.5995,3.5999,3.5827,3.5534,3.517,3.4832,3.4525,3.417,3.3868,3.3589,3.3413,3.3322,3.3481,3.4124,3.4309,3.4361,3.4369,3.4434,3.4339,3.3765,3.3734,3.3807,3.3807,3.3829,3.3868,3.3895,3.3753,3.3469,3.2986,3.2672,3.2456,3.2423,3.2406,3.2406,3.2406,3.2406,3.2406,3.2406,3.2406,3.2406,3.2406,3.2267,3.1857,3.1123,3.0985,3.0617,2.9968,3.1157,3.1658,3.1534,3.32,3.3787,3.2698,3.3663,3.5195,3.8781,4.0642,4.2109,4.4162,4.5545,4.7395,5.0846,5.0713,4.9202,4.6629,4.8132,0.0,0.0,0.0,0.0,0.0,0.0,0.0,0.0,0.0,0.0,0.0,0.0,0.0,0.0,0.0,0.0,0.0,0.0,0.0,0.0,4.0272,3.9587,3.8728,3.7185,3.6502,3.6677,3.58,3.638,3.8198,3.8042,3.7978,3.7978,3.7978,3.7979,3.7981,3.7975,3.7665,3.7173,3.6821,3.6365,3.5897,3.5897,3.5707,3.5422,3.5427,3.5225,3.4965,3.497,3.474,3.441,3.4245,3.3916,3.3639,3.3782,3.3624,3.3433,3.3508,3.3311,3.3255,3.3813,3.3971,3.3995,3.3995,3.4264,3.4264,3.3465,3.3573,3.382,3.3847,3.3868,3.3908,3.3972,3.3734,3.3364,3.2858,3.2556,3.2406,3.2406,3.2406,3.2406,3.2406,3.2406,3.2406,3.2406,3.2406,3.2406,3.2406,3.2406,3.2001,3.1123,3.1103,3.0723,2.9968,3.1076,3.1486,3.1269,3.3037,3.3632,3.4438,3.5403,3.7106,4.2189,4.3043,4.3343,4.6041,4.771,4.9606,5.2773,5.1484,4.9765,4.9765,4.8535,4.7187,0.0,0.0,0.0,0.0,0.0,0.0,0.0,0.0,0.0,0.0,0.0,0.0,0.0,0.0,0.0,0.0,0.0,0.0,3.8379,3.8301,3.7832,3.6973,3.6816,3.6348,0.0,3.4745,3.4784,3.5584,3.6523,3.7012,3.707,3.707,3.7031,3.6973,3.7041,3.7035,3.6898,3.6185,3.5856,3.5792,3.5792,3.5286,3.4584,3.4579,3.4062,3.3406,3.3394,3.2851,3.2343,3.3064,3.2723,3.2391,3.3851,3.4069,3.3898,3.4027,3.3805,3.3614,3.3826,3.388,3.3853,3.3761,3.4027,3.4065,3.3302,3.345,3.3742,3.3881,3.3908,3.3947,3.4061,3.3575,3.3076,3.2753,3.2397,3.2195,3.2195,3.2248,3.2283,3.2283,3.2353,3.2406,3.2406,3.2406,3.2406,3.2406,3.2406,3.2001,3.1123,3.1103,3.072,2.9902,3.0721,3.1075,3.1043,3.246,3.3127,3.6837,3.6635,3.6819,4.131,4.3821,4.6091,4.9434,4.9429,4.8928,4.9724,4.8903,4.8047,4.8036,4.7741,0.0,0.0,0.0,0.0,0.0,0.0,0.0,0.0,0.0,0.0,0.0,0.0,0.0,0.0,0.0,0.0,0.0,0.0,0.0,3.7505,3.6826,3.6046,3.5168,3.3854,3.3109,0.0,3.2667,3.2659,3.2898,3.4444,3.5524,3.6178,3.6178,3.5787,3.5205,3.5898,3.5816,3.5279,3.5724,3.5513,3.4956,3.4965,3.4423,3.3682,3.3672,3.3563,3.3395,3.3396,3.3279,3.3027,3.2539,3.2254,3.2026,3.1718,3.1459,3.1434,3.2082,3.1621,3.1324,3.2661,3.2986,3.2764,3.1958,3.2232,3.2504,3.2113,3.2484,3.3086,3.3771,3.3947,3.3947,3.3868,3.3054,3.2329,3.1985,3.1142,3.0598,3.0598,3.1107,3.1458,3.1458,3.2037,3.2406,3.2406,3.2406,3.2406,3.2406,3.2406,3.2001,3.1123,3.1103,3.0723,2.9973,3.0727,3.0859,3.0424,3.1789,3.2411,3.5999,3.7279,3.936,4.4503,4.6845,4.8238,4.9688,4.8988,4.7936,4.7577,4.7177,4.7002,4.7426,0.0,0.0,0.0,0.0,0.0,0.0,0.0,0.0,0.0,0.0,0.0,0.0,0.0,0.0,0.0,0.0,0.0,0.0,3.74,3.6961,3.654,3.6094,3.5433,3.4555,3.3699,3.2856,3.2052,3.2013,3.1994,3.2059,3.3817,3.4633,3.472,3.5104,3.477,3.4014,3.4476,3.4431,3.4121,3.4547,3.4454,3.4074,3.4078,3.3535,3.2776,3.278,3.2493,3.2168,3.219,3.2191,3.2113,3.1665,3.1526,3.1502,3.1436,3.1304,3.1347,3.212,3.1894,3.1546,3.1981,3.2107,3.1955,3.132,3.1675,3.2015,3.1749,3.2213,3.2917,3.3805,3.4036,3.3894,3.3301,3.2643,3.2076,3.1735,3.0753,3.0106,3.0106,3.0756,3.1194,3.1194,3.1932,3.2406,3.2406,3.2406,3.2406,3.2406,3.2406,3.2001,3.1123,3.0925,3.0535,2.9946,3.0341,3.0369,3.0152,3.1492,3.2152,3.4429,3.7797,4.2294,4.7598,4.885,4.8716,4.845,4.76,4.6678,4.5998,4.5892,4.6119,4.6703,0.0,0.0,0.0,0.0,0.0,0.0,0.0,0.0,0.0,0.0,0.0,0.0,0.0,0.0,0.0,0.0,0.0,3.7094,3.6134,3.5578,3.5581,3.5286,3.4796,3.4086,3.4055,3.3274,3.1763,3.1762,3.176,3.1832,3.3417,3.3866,3.3412,3.4105,3.3902,3.3106,3.3241,3.3248,3.3169,3.3339,3.3315,3.3179,3.3176,3.2628,3.1888,3.1888,3.1422,3.0822,3.0865,3.0887,3.0887,3.0887,3.089,3.1047,3.169,3.1773,3.1856,3.2593,3.2579,3.2208,3.157,3.1338,3.1203,3.0983,3.1308,3.1611,3.1481,3.2022,3.2754,3.3481,3.3827,3.3617,3.2478,3.2252,3.1953,3.1301,3.0563,3.0053,2.9913,3.0685,3.1194,3.1194,3.1932,3.2406,3.2406,3.2406,3.2406,3.2406,3.2319,3.1912,3.1123,3.0767,3.0368,2.9896,2.9896,2.9924,3.0027,3.1248,3.1952,3.5093,3.8667,4.2484,4.4796,4.4813,4.4854,4.7057,4.6309,4.5094,0.0,4.4885,4.472,0.0,0.0,0.0,0.0,0.0,0.0,0.0,0.0,0.0,0.0,0.0,0.0,0.0,0.0,0.0,0.0,0.0,0.0,3.7109,3.5556,3.4678,3.4672,3.3203,3.2384,3.2326,3.2287,3.1758,3.0788,3.0793,3.0824,3.0908,3.1903,3.27,3.3321,3.3487,3.3075,3.2305,3.3012,3.2859,3.2264,3.3072,3.2947,3.2265,3.2276,3.1724,3.0984,3.1042,3.0984,3.0886,3.0823,3.0801,3.0801,3.0801,3.0846,3.0905,3.0963,3.0877,3.0957,3.1758,3.1303,3.0784,3.1339,3.0915,3.0258,2.9895,2.9889,3.0036,3.0339,3.1138,3.18,3.1982,3.2646,3.2705,3.1319,3.1733,3.1484,2.9523,2.9769,2.9827,2.9141,3.0334,3.1194,3.1194,3.1932,3.2406,3.2406,3.2406,3.2406,3.2406,3.202,3.1565,3.1123,3.1044,3.0642,2.9896,2.9896,2.9924,3.0027,3.0707,3.1443,3.5306,3.7447,3.9733,4.4833,4.4011,4.289,4.653,4.5243,4.3426,4.3878,4.3571,0.0,0.0,0.0,0.0,0.0,0.0,0.0,0.0,0.0,0.0,0.0,0.0,0.0,0.0,0.0,0.0,0.0,0.0,3.6623,3.565,3.4851,3.4221,3.3722,3.2962,3.259,3.2623,3.2623,3.2191,3.1328,3.0827,3.0634,3.0704,3.1109,3.1475,3.1863,3.2425,3.2169,3.1334,3.1695,3.1643,3.1373,3.1789,3.171,3.1386,3.1403,3.1185,3.0853,3.0892,3.089,3.0907,3.0869,3.0867,3.0865,3.0868,3.0846,3.0838,3.0809,3.0701,3.0674,3.0986,3.0733,3.0481,3.0765,3.0535,3.0138,2.968,2.9608,2.9747,3.0224,3.1043,3.152,3.1143,3.2142,3.2514,3.1111,3.1636,3.1704,3.036,3.0141,2.9966,2.9614,3.0545,3.1194,3.1194,3.1863,3.2319,3.2406,3.2336,3.2336,3.2439,3.2214,3.193,3.1564,3.1027,3.0472,2.9896,2.9896,2.9918,2.9962,3.0677,3.1407,3.4642,3.5723,3.6886,4.3071,4.205,4.0483,4.4181,4.3001,4.138,0.0,4.2258,0.0,0.0,0.0,0.0,0.0,0.0,0.0,0.0,0.0,0.0,0.0,0.0,0.0,0.0,0.0,0.0,0.0,0.0,3.6101,3.4802,3.4337,3.3684,3.2798,3.2565,3.2464,3.2468,3.2498,3.2188,3.1549,3.0897,3.0514,3.039,3.0597,3.0707,3.0736,3.1435,3.1354,3.0694,3.0701,3.0722,3.0784,3.0781,3.0803,3.0816,3.0878,3.0896,3.0896,3.0895,3.0893,3.089,3.0892,3.089,3.0848,3.0638,3.0689,3.0749,3.0508,3.0514,3.0582,3.0543,3.0511,3.0477,3.0343,3.0305,3.0173,2.9725,2.9542,2.9592,3.0032,3.065,3.0917,3.0389,3.1459,3.1979,3.0776,3.1496,3.1869,3.1029,3.0791,3.0615,3.0404,3.1054,3.1493,3.1493,3.1934,3.2267,3.2388,3.2267,3.2284,3.249,3.244,3.2196,3.1731,3.1027,3.0435,3.0038,2.9946,2.9902,2.994,3.0721,3.1356,3.2656,3.3966,3.5038,3.7031,3.6799,3.6546,3.836,3.8632,3.8738,3.9629,0.0,0.0,0.0,0.0,0.0,0.0,0.0,0.0,0.0,0.0,0.0,0.0,0.0,0.0,0.0,0.0,0.0,0.0,0.0,3.5733,3.563,3.4124,3.2837,3.1889,3.1139,3.0733,3.0733,3.067,3.0626,3.0569,3.0586,3.0199,2.9496,3.0324,3.0691,3.0695,3.0752,3.0752,3.0695,3.0695,3.0707,3.0711,3.0788,3.0809,3.0809,3.0879,3.0898,3.0898,3.0897,3.0896,3.0894,3.0909,3.0865,3.0666,2.989,3.0193,3.0617,2.9723,3.001,3.0598,3.0606,3.0545,3.0488,3.0416,3.0356,3.0187,2.9777,2.9394,2.9175,2.9336,2.9394,2.9434,2.946,3.0158,3.0512,2.986,3.1106,3.1631,3.0326,3.1405,3.1984,3.1212,3.1861,3.2335,3.2335,3.2249,3.2267,3.2388,3.2267,3.2284,3.249,3.244,3.2037,3.1247,3.1125,3.0868,3.0477,3.0081,2.9924,3.0011,3.0744,3.1169,3.0365,3.139,3.2734,3.5532,3.4779,3.4248,3.7592,3.7922,3.7626,3.7928,0.0,0.0,0.0,0.0,0.0,0.0,0.0,0.0,0.0,0.0,0.0,0.0,0.0,0.0,0.0,0.0,0.0,0.0,0.0,0.0,3.4051,3.243,3.1386,3.1043,3.0752,3.0588,3.053,3.0477,3.0479,3.0558,3.0031,2.9923,3.0218,2.9405,2.9635,3.0662,3.0105,3.0186,3.0695,3.0695,3.0691,3.0717,3.0761,3.0801,3.0806,3.0877,3.0898,3.0898,3.0897,3.0896,3.0894,3.0909,3.0516,3.0085,3.0344,3.0186,2.9944,3.0175,3.0416,3.0604,3.0607,3.054,3.0477,3.0355,3.0111,2.9897,2.9789,2.9844,2.9954,3.005,3.0094,3.0304,3.0846,3.0997,3.1078,3.1216,3.1995,3.2313,3.1665,3.2055,3.2283,3.2002,3.223,3.2371,3.2284,3.2196,3.2161,3.2196,3.2197,3.2267,3.244,3.2439,3.2197,3.1658,3.1298,3.0764,3.0124,2.9968,2.9902,2.9924,3.025,3.0674,2.9094,2.9619,3.0512,3.3371,3.2602,3.1953,3.5104,3.6265,3.6653,3.6653,0.0,0.0,0.0,0.0,0.0,0.0,0.0,0.0,0.0,0.0,0.0,0.0,0.0,0.0,0.0,0.0,0.0,0.0,0.0,0.0,3.318,3.2082,3.1187,3.0583,3.0564,3.0554,3.0496,3.0458,3.0341,3.0163,2.9879,2.978,2.9826,2.8929,2.9185,3.026,2.9664,2.9901,3.0707,3.0707,3.0707,3.0695,3.0743,3.0773,3.0809,3.0855,3.0879,3.0898,3.0897,3.0895,3.0892,3.0909,3.0517,3.0048,3.003,2.9749,2.9482,2.9754,2.9984,3.0239,3.052,3.0535,3.0436,3.0292,2.9981,2.9698,2.9737,2.99,3.012,3.0472,3.0572,3.0864,3.1663,3.1525,3.1477,3.2017,3.2283,3.2401,3.2404,3.2406,3.2406,3.2406,3.2354,3.2301,3.2197,3.2108,3.2073,3.2126,3.2144,3.2249,3.2422,3.2439,3.2284,3.1894,3.1374,3.0764,3.0103,2.9968,2.9896,2.9896,2.9968,3.0321,0.0,0.0,0.0,3.0185,2.9991,2.9622,3.048,0.0,3.5698,3.5717,0.0,0.0,0.0,0.0,0.0,0.0,0.0,0.0,0.0,0.0,0.0,0.0,0.0,0.0,0.0,0.0,0.0,0.0,0.0,3.4918,3.3296,3.3141,3.2319,3.0554,3.0496,3.0496,3.0496,3.0496,3.011,2.935,3.0164,2.9747,2.8268,2.899,2.9365,2.9452,2.9383,2.9855,3.0651,3.0694,3.0694,3.0697,3.0692,3.0739,3.0795,3.0793,3.084,3.0894,3.0894,3.0872,3.0868,3.0868,3.0829,3.0477,2.8807,2.8824,2.924,2.8374,2.8694,2.9502,3.037,3.05,3.0369,3.0241,2.9954,2.9688,2.9617,2.9458,2.9601,3.0463,3.0641,3.092,3.1738,3.158,3.1519,3.2053,3.1841,3.1801,3.2317,3.2406,3.2406,3.2406,3.2284,3.2197,3.2197,3.202,3.2002,3.2179,3.2144,3.2214,3.249,3.244,3.2249,3.1894,3.1393,3.0908,3.0497,3.0103,2.9896,2.9896,2.9968,3.0146,2.6708,0.0,0.0,0.0,0.0,0.0,0.0,0.0,0.0,3.3856,0.0,0.0,0.0,0.0,0.0,0.0,0.0,0.0,0.0,0.0,0.0,0.0,0.0,0.0,0.0,0.0,0.0,0.0,3.4943,3.3684,3.3219,3.2,3.1076,3.0515,3.05,3.05,3.0496,3.05,3.0405,3.0238,2.9858,2.9458,2.9026,2.8039,2.7922,2.8486,2.8511,2.9004,2.9811,3.0436,3.0707,3.0703,3.0699,3.0714,3.0731,3.0839,3.0877,3.0894,3.0891,3.0498,2.9951,2.9951,2.9113,2.8118,2.8267,2.7975,2.7825,2.8768,2.9167,2.9494,3.0308,3.05,3.0403,3.0181,2.9977,2.9809,2.9636,2.9936,3.0471,3.131,3.1942,3.2593,3.341,3.2614,3.2127,3.2853,3.2511,3.2227,3.2388,3.2406,3.2406,3.2406,3.2284,3.2197,3.2197,3.2108,3.2073,3.2126,3.2249,3.2319,3.2284,3.2405,3.2249,3.1768,3.1603,3.1203,3.0497,3.0103,2.9896,2.9896,2.9968,3.0081,2.6184,2.7233,2.8204,0.0,0.0,0.0,2.8854,3.0754,3.2633,0.0,0.0,0.0,0.0,0.0,0.0,0.0,0.0,0.0,0.0,0.0,0.0,0.0,0.0,0.0,0.0,0.0,0.0,3.6513,3.5093,3.3945,3.3238,3.1874,3.1086,3.1042,3.0688,3.0698,3.1072,3.0699,3.0549,3.0634,3.0141,2.9709,2.9363,2.8042,2.7695,2.8148,2.8142,2.8631,2.9465,3.0304,3.0665,3.0704,3.0691,3.0718,3.0746,3.0839,3.0857,3.0869,3.0866,3.0319,2.9596,2.9598,2.8664,2.7552,2.7675,2.733,2.7094,2.8057,2.8783,2.9401,2.9916,3.0289,3.0455,3.0148,3.0007,2.9962,3.0,3.0594,3.1236,3.1719,3.2462,3.325,3.4048,3.3313,3.2766,3.3233,3.2469,3.2003,3.2353,3.2073,3.2003,3.2371,3.2249,3.2161,3.2161,3.2073,3.2055,3.2108,3.2232,3.2319,3.2284,3.2388,3.2301,3.2002,3.1804,3.1302,3.0497,3.0262,3.006,2.9896,2.9968,3.0038,2.6572,2.6825,2.7039,0.0,0.0,0.0,2.797,3.0315,3.2578,0.0,0.0,0.0,0.0,0.0,0.0,0.0,0.0,0.0,0.0,0.0,0.0,0.0,0.0,0.0,0.0,3.7666,3.6804,3.5993,3.5703,3.4904,3.3408,3.245,3.1942,3.1941,3.1186,3.1149,3.1897,3.1066,3.0675,3.0694,3.0691,3.0251,2.9382,2.8659,2.824,2.8057,2.8084,2.855,2.932,3.0118,3.0556,3.07,3.0706,3.0735,3.0799,3.082,3.0818,3.08,3.08,3.0274,2.9574,2.9481,2.8879,2.798,2.7056,2.6755,2.6768,2.6789,2.8008,2.9321,2.9385,2.9991,3.05,3.0092,2.9991,3.0094,3.0507,3.1247,3.1831,3.1924,3.2593,3.3324,3.3919,3.3542,3.311,3.2994,3.1907,3.1374,3.216,3.1671,3.1531,3.2318,3.2232,3.2108,3.2144,3.202,3.1984,3.2108,3.2179,3.2267,3.2406,3.2406,3.2441,3.2511,3.207,3.1423,3.058,3.0518,3.0284,2.9896,2.9968,2.9995,0.0,0.0,0.0,0.0,0.0,0.0,2.7132,2.7657,2.8706,0.0,0.0,0.0,0.0,0.0,0.0,0.0,0.0,0.0,0.0,0.0,0.0,0.0,0.0,0.0,0.0,3.8554,3.7696,3.6823,3.5509,3.457,3.4191,3.3325,3.2856,3.2841,3.2681,3.2377,3.1904,3.1723,3.1309,3.0711,3.0707,3.0269,2.9471,2.9316,2.8477,2.7185,2.7882,2.8243,2.8427,2.9214,3.0009,3.0704,3.0697,3.0749,3.0818,3.0857,3.0849,3.08,3.08,3.0277,2.9481,2.8782,2.7961,2.7095,2.62,2.5909,2.5994,2.6624,2.8039,2.9385,2.9408,2.9958,3.0441,3.0145,2.9965,2.9979,3.056,3.1272,3.1998,3.2648,3.3417,3.3716,3.2961,3.252,3.1931,3.1028,3.1009,3.1165,3.1339,3.1828,3.223,3.2456,3.2284,3.2249,3.2404,3.2249,3.2197,3.2336,3.2354,3.2371,3.2406,3.2406,3.2669,3.3284,3.2887,3.2107,3.0985,3.0662,3.0284,2.9896,2.9902,2.9946,0.0,0.0,0.0,2.5751,0.0,0.0,0.0,2.6864,2.7854,2.9147,3.002,3.0819,0.0,0.0,0.0,0.0,0.0,0.0,0.0,0.0,0.0,0.0,0.0,0.0,0.0,3.882,3.7938,3.7075,3.6222,3.5534,3.5072,3.4626,3.42,3.3756,3.3325,3.3127,3.3203,3.2329,3.1713,3.1342,3.093,3.0539,3.013,2.9702,2.9013,2.8179,2.8151,2.8372,2.8788,2.919,2.9875,3.0698,3.0706,3.0759,3.0859,3.0894,3.0867,3.0801,3.0844,3.0299,2.9463,2.8572,2.7709,2.6839,2.5913,2.5625,2.5762,2.6573,2.774,2.8834,2.9193,2.9907,3.0541,3.0621,3.0559,3.076,3.1742,3.2243,3.2717,3.3459,3.3918,3.4018,3.3444,3.2607,3.1798,3.1231,3.0757,3.0608,3.1043,3.1479,3.1933,3.2387,3.2301,3.2232,3.2336,3.2249,3.2232,3.2301,3.2354,3.2406,3.2406,3.2739,3.3212,3.3742,3.3552,3.2915,3.1851,3.1656,3.0969,2.9896,2.9896,3.0097,0.0,0.0,0.0,0.0,0.0,2.6369,0.0,0.0,0.0,2.7563,0.0,0.0,0.0,0.0,0.0,0.0,0.0,0.0,0.0,0.0,0.0,0.0,0.0,0.0,0.0,3.8107,3.7652,3.7284,3.724,3.6846,3.5973,3.6082,3.572,3.4681,3.4128,3.4061,3.4506,3.2954,3.2105,3.198,3.1176,3.0808,3.0789,3.0066,2.9666,2.9455,2.8511,2.8582,2.9384,2.9224,2.9763,3.0726,3.0724,3.0787,3.0894,3.0894,3.087,3.0801,3.0867,3.0421,2.97,2.8826,2.7824,2.6847,2.6055,2.5719,2.5734,2.6382,2.7307,2.8202,2.8601,2.9472,3.0359,3.087,3.0833,3.1166,3.2841,3.3082,3.3206,3.4035,3.4197,3.4049,3.3617,3.2565,3.1618,3.1149,3.0368,3.0052,3.0747,3.1147,3.1635,3.2335,3.2319,3.2249,3.2249,3.2249,3.2302,3.2441,3.2547,3.2669,3.2845,3.3547,3.3959,3.4002,3.414,3.3679,3.2596,3.2596,3.1802,3.0301,3.0301,3.0506,0.0,0.0,0.0,0.0,2.505,0.0,0.0,0.0,2.5765,2.5651,0.0,0.0,0.0,0.0,0.0,0.0,0.0,0.0,0.0,0.0,0.0,0.0,0.0,0.0,0.0,0.0,3.66,3.804,3.8105,3.7685,3.6812,3.7502,3.7185,3.5591,3.6207,3.5883,3.4503,3.36,3.2753,3.1981,3.1176,3.0799,3.0799,3.0691,3.0231,2.9455,2.8502,2.8589,2.9349,2.8576,2.926,3.0785,3.0799,3.0836,3.0894,3.0894,3.087,3.0803,3.0813,3.0797,3.0602,2.9675,2.8259,2.6873,2.6714,2.6181,2.5621,2.571,2.6886,2.7932,2.7179,2.8116,2.9423,3.006,2.9532,2.9696,3.2649,3.2676,3.2549,3.3924,3.4197,3.3555,3.1529,3.1042,3.022,2.815,2.8958,2.9843,2.993,3.1353,3.2368,3.2473,3.249,3.2473,3.2473,3.2422,3.2652,3.3318,3.3371,3.3687,3.4407,3.5144,3.5058,3.4019,3.4642,3.4193,3.2596,3.2596,3.2305,3.1769,3.1769,3.1438,0.0,0.0,0.0,0.0,0.0,0.0,2.6947,0.0,2.535,0.0,0.0,0.0,0.0,0.0,0.0,0.0,2.6122,0.0,0.0,0.0,0.0,0.0,0.0,0.0,0.0,0.0,0.0,0.0,3.6473,3.6364,3.5488,3.6717,3.7146,3.6477,3.6322,3.6144,3.5955,3.4652,3.3576,3.2746,3.1902,3.1256,3.0791,3.0806,3.0575,3.0121,2.8709,2.8887,3.0044,2.8717,2.9209,3.0791,3.0835,3.0879,3.0894,3.0892,3.0889,3.0866,3.0855,3.0878,3.0741,2.9805,2.7979,2.6315,2.7265,2.699,2.6448,2.6928,2.7527,2.7927,2.7464,2.7775,2.853,2.9741,2.9685,3.0072,3.2726,3.3007,3.3041,3.401,3.4074,3.3314,3.1216,3.0834,3.0227,2.8544,2.8711,2.9237,2.9788,3.0936,3.1896,3.2437,3.2861,3.309,3.309,3.3477,3.3863,3.4179,3.4214,3.453,3.532,3.5634,3.5533,3.4938,3.5228,3.4751,3.3468,3.3468,3.3388,3.321,3.2384,3.206,2.8184,0.0,0.0,0.0,0.0,0.0,0.0,0.0,0.0,0.0,0.0,0.0,0.0,0.0,0.0,0.0,0.0,2.5193,0.0,0.0,0.0,0.0,0.0,0.0,0.0,0.0,0.0,3.4071,3.5058,3.5182,3.4075,3.6087,3.7168,3.6978,3.6383,3.6366,3.6983,3.5124,3.3876,3.3283,3.2191,3.1368,3.0806,3.0781,3.0753,3.0642,2.9123,2.9177,3.0283,2.9063,2.9318,3.0505,3.0781,3.0741,3.0543,3.0541,3.0539,3.054,3.0546,3.0682,3.0736,3.0037,2.8362,2.6826,2.7802,2.7696,2.7332,2.7672,2.7882,2.7965,2.7821,2.7697,2.7993,2.9588,2.975,3.0239,3.2802,3.2893,3.2818,3.4027,3.3731,3.2785,3.1193,3.082,3.0309,2.9102,2.9103,2.9547,3.0431,3.1461,3.2371,3.3019,3.3547,3.3863,3.3827,3.4354,3.4776,3.4986,3.5197,3.5565,3.611,3.6011,3.5817,3.5616,3.5459,3.4951,3.4101,3.4101,3.4101,3.4084,3.3048,3.2757,0.0,0.0,0.0,2.717,0.0,0.0,0.0,0.0,2.396,0.0,0.0,0.0,0.0,0.0,0.0,2.2506,0.0,0.0,0.0,0.0,0.0,0.0,0.0,0.0,0.0,0.0,0.0,3.3209,3.4663,3.4842,3.3145,3.6309,3.777,3.6939,3.6941,3.6978,3.7002,3.4564,3.3339,3.3284,3.1624,3.0813,3.0806,3.0731,3.0745,3.0739,2.9786,2.9439,2.9531,2.947,2.9531,2.9723,3.0563,3.0388,2.9647,2.9647,2.9646,2.9645,2.9648,3.0113,3.0695,3.0609,2.9984,2.9125,2.8337,2.8139,2.7998,2.7173,2.7456,2.7969,2.7841,2.7689,2.7993,2.9537,2.9261,2.9521,3.2787,3.1859,3.1202,3.3873,3.3091,3.1758,3.1111,3.0736,3.0107,2.8895,3.0079,3.1354,3.2039,3.3617,3.4674,3.4618,3.4709,3.4727,3.4671,3.4689,3.5004,3.5722,3.6496,3.6937,3.6954,3.6516,3.6075,3.5616,3.5075,3.4586,3.4101,3.4101,3.4101,3.4101,3.4052,3.3696,0.0,0.0,3.2537,3.1932,0.0,0.0,0.0,0.0,0.0,0.0,0.0,0.0,0.0,0.0,2.1695,2.2186,2.268,0.0,0.0,0.0,0.0,0.0,0.0,0.0,0.0,0.0,0.0,2.8934,2.9395,2.9423,2.881,3.2064,3.4364,3.522,3.5822,3.6425,3.6983,3.5064,3.3824,3.3284,3.2129,3.1298,3.0728,3.071,3.0709,3.067,2.9783,2.9773,3.0312,2.9745,2.9883,3.0484,3.0779,3.0721,3.039,2.9802,2.9235,2.8826,2.9352,2.9693,2.9994,3.0494,2.9706,2.8708,2.955,2.946,2.8857,2.7896,2.7783,2.7634,2.6359,2.5944,2.6272,2.7877,2.7991,2.8489,3.1186,3.1351,3.1384,3.2859,3.2716,3.2139,3.144,3.1122,3.0466,2.8996,2.9628,3.0763,3.216,3.2336,3.2967,3.4586,3.4744,3.4918,3.539,3.5917,3.634,3.6566,3.6554,3.6325,3.5824,3.5359,3.4655,3.3707,3.3964,3.3919,3.3437,3.3874,3.4101,3.4101,3.4101,3.3971,3.4248,3.5085,0.0,3.4626,3.3789,0.0,3.1642,0.0,0.0,0.0,0.0,0.0,0.0,0.0,0.0,2.1627,2.1713,2.2216,0.0,2.5043,0.0,0.0,0.0,0.0,0.0,0.0,2.8042,2.5923,2.6607,2.6829,0.0,0.0,3.288,3.4314,3.5222,3.6115,3.6983,3.5044,3.3801,3.3297,3.2126,3.127,3.0694,3.0725,3.0733,3.0708,3.0136,3.0088,3.035,3.0097,3.0175,3.0465,3.0779,3.0703,3.0371,2.9804,2.9236,2.8803,2.9296,2.9666,3.0009,3.0502,2.992,2.9184,2.9991,3.0089,2.9667,2.8365,2.7954,2.7676,2.6673,2.6148,2.6249,2.784,2.8177,2.8663,3.0565,3.0828,3.1114,3.2391,3.2298,3.1922,3.1662,3.1587,3.1111,2.9849,3.0288,3.1355,3.3002,3.2967,3.3493,3.5378,3.5552,3.5706,3.6197,3.6689,3.693,3.6771,3.6468,3.6014,3.5368,3.4651,3.3863,3.3044,3.3093,3.3116,3.3048,3.325,3.3485,3.3744,3.3485,3.3356]}]]